[[{"header":{"parameterUnit":"m.s-1","parameterCategory":1,"la1":30.6,"la2":28.766,"lo1":-90.7593,"lo2":-88.6598,"dy":0.0162,"dx":0.0183,"nx":116,"ny":114,"refTime":"2023-03-03T18:00:00:Z","depth":0,"parameterNumber":2,"parameterNumberName":"U-component_of_WINDS"},"data":[0.0,0.0,0.0,0.0,0.0,0.0,0.0,0.0,0.0,0.0,0.0,0.0,0.0,0.0,0.0,0.0,0.0,0.0,0.0,0.0,0.0,0.0,0.0,0.0,0.0,0.0,0.0,0.0,0.0,0.0,0.0,0.0,0.0,0.0,0.0,0.0,0.0,0.0,0.0,0.0,0.0,0.0,0.0,0.0,0.0,0.0,0.0,0.0,0.0,0.0,0.0,0.0,0.0,0.0,0.0,0.0,0.0,0.0,0.0,0.0,0.0,0.0,0.0,0.0,0.0,0.0,0.0,0.0,0.0,0.0,0.0,0.0,0.0,0.0,0.0,0.0,0.0,0.0,0.0,0.0,0.0,0.0,0.0,0.0,0.0,0.0,0.0,0.0,0.0,0.0,0.0,0.0,0.0,0.0,0.0,0.0,0.0,0.0,0.0,0.0,0.0,0.0,0.0,0.0,0.0,0.0,0.0,0.0,0.0,0.0,0.0,0.0,0.0,0.0,0.0,0.0,0.0,0.0,0.0,0.0,0.0,0.0,0.0,0.0,0.0,0.0,0.0,0.0,0.0,0.0,0.0,0.0,0.0,0.0,0.0,0.0,0.0,0.0,0.0,0.0,0.0,0.0,0.0,0.0,0.0,0.0,0.0,0.0,0.0,0.0,0.0,0.0,0.0,0.0,0.0,0.0,0.0,0.0,0.0,0.0,0.0,0.0,0.0,0.0,0.0,0.0,0.0,0.0,0.0,0.0,0.0,0.0,0.0,0.0,0.0,0.0,0.0,0.0,0.0,0.0,0.0,0.0,0.0,0.0,0.0,0.0,0.0,0.0,0.0,0.0,0.0,0.0,0.0,0.0,0.0,0.0,0.0,0.0,0.0,0.0,0.0,0.0,0.0,0.0,0.0,0.0,0.0,0.0,0.0,0.0,0.0,0.0,0.0,0.0,0.0,0.0,0.0,0.0,0.0,0.0,0.0,0.0,0.0,0.0,0.0,0.0,0.0,0.0,0.0,0.0,0.0,0.0,0.0,0.0,0.0,0.0,0.0,0.0,0.0,0.0,0.0,0.0,0.0,0.0,0.0,0.0,0.0,0.0,0.0,0.0,0.0,0.0,0.0,0.0,0.0,0.0,0.0,0.0,0.0,0.0,0.0,0.0,0.0,0.0,0.0,0.0,0.0,0.0,0.0,0.0,0.0,0.0,0.0,0.0,0.0,0.0,0.0,0.0,0.0,0.0,0.0,0.0,0.0,0.0,0.0,0.0,0.0,0.0,0.0,0.0,0.0,0.0,0.0,0.0,0.0,0.0,0.0,0.0,0.0,0.0,0.0,0.0,0.0,0.0,0.0,0.0,0.0,0.0,0.0,0.0,0.0,0.0,0.0,0.0,0.0,0.0,0.0,0.0,0.0,0.0,0.0,0.0,0.0,0.0,0.0,0.0,0.0,0.0,0.0,0.0,0.0,0.0,0.0,0.0,0.0,0.0,0.0,0.0,0.0,0.0,0.0,0.0,0.0,0.0,0.0,0.0,0.0,0.0,0.0,0.0,0.0,0.0,0.0,0.0,0.0,0.0,0.0,0.0,0.0,0.0,0.0,0.0,0.0,0.0,0.0,0.0,0.0,0.0,0.0,0.0,0.0,0.0,0.0,0.0,0.0,0.0,0.0,0.0,0.0,0.0,0.0,0.0,0.0,0.0,0.0,0.0,0.0,0.0,0.0,0.0,0.0,0.0,0.0,0.0,0.0,0.0,0.0,0.0,0.0,0.0,0.0,0.0,0.0,0.0,0.0,0.0,0.0,0.0,0.0,0.0,0.0,0.0,0.0,0.0,0.0,0.0,0.0,0.0,0.0,0.0,0.0,0.0,0.0,0.0,0.0,0.0,0.0,0.0,0.0,0.0,0.0,0.0,0.0,0.0,0.0,0.0,0.0,0.0,0.0,0.0,0.0,0.0,0.0,0.0,0.0,0.0,0.0,0.0,0.0,0.0,0.0,0.0,0.0,0.0,0.0,0.0,0.0,0.0,0.0,0.0,0.0,0.0,0.0,0.0,0.0,0.0,0.0,0.0,0.0,0.0,0.0,0.0,0.0,0.0,0.0,0.0,0.0,0.0,0.0,0.0,0.0,0.0,0.0,0.0,0.0,0.0,0.0,0.0,0.0,0.0,0.0,0.0,0.0,0.0,0.0,0.0,0.0,0.0,0.0,0.0,0.0,0.0,0.0,0.0,0.0,0.0,0.0,0.0,0.0,0.0,0.0,0.0,0.0,0.0,0.0,0.0,0.0,0.0,0.0,0.0,0.0,0.0,0.0,0.0,0.0,0.0,0.0,0.0,0.0,0.0,0.0,0.0,0.0,0.0,0.0,0.0,0.0,0.0,0.0,0.0,0.0,0.0,0.0,0.0,0.0,0.0,0.0,0.0,0.0,0.0,0.0,0.0,0.0,0.0,0.0,0.0,0.0,0.0,0.0,0.0,0.0,0.0,0.0,0.0,0.0,0.0,0.0,0.0,0.0,0.0,0.0,0.0,0.0,0.0,0.0,0.0,0.0,0.0,0.0,0.0,0.0,0.0,0.0,0.0,0.0,0.0,0.0,0.0,0.0,0.0,0.0,0.0,0.0,0.0,0.0,0.0,0.0,0.0,0.0,0.0,0.0,0.0,0.0,0.0,0.0,0.0,0.0,0.0,0.0,0.0,0.0,0.0,0.0,0.0,0.0,0.0,0.0,0.0,0.0,0.0,0.0,0.0,0.0,0.0,0.0,0.0,0.0,0.0,0.0,0.0,0.0,0.0,0.0,0.0,0.0,0.0,0.0,0.0,0.0,0.0,0.0,0.0,0.0,0.0,0.0,0.0,0.0,0.0,0.0,0.0,0.0,0.0,0.0,0.0,0.0,0.0,0.0,0.0,0.0,0.0,0.0,0.0,0.0,0.0,0.0,0.0,0.0,0.0,0.0,0.0,0.0,0.0,0.0,0.0,0.0,0.0,0.0,0.0,0.0,0.0,0.0,0.0,0.0,0.0,0.0,0.0,0.0,0.0,0.0,0.0,0.0,0.0,0.0,0.0,0.0,0.0,0.0,0.0,0.0,0.0,0.0,0.0,0.0,0.0,0.0,0.0,0.0,0.0,0.0,0.0,0.0,0.0,0.0,0.0,0.0,0.0,0.0,0.0,0.0,0.0,0.0,0.0,0.0,0.0,0.0,0.0,0.0,0.0,0.0,0.0,0.0,0.0,0.0,0.0,0.0,0.0,0.0,0.0,0.0,0.0,0.0,0.0,0.0,0.0,0.0,0.0,0.0,0.0,0.0,0.0,0.0,0.0,0.0,0.0,0.0,0.0,0.0,0.0,0.0,0.0,0.0,0.0,0.0,0.0,0.0,0.0,0.0,0.0,0.0,0.0,0.0,0.0,0.0,0.0,0.0,0.0,0.0,0.0,0.0,0.0,0.0,0.0,0.0,0.0,0.0,0.0,0.0,0.0,0.0,0.0,0.0,0.0,0.0,0.0,0.0,0.0,0.0,0.0,0.0,0.0,0.0,0.0,0.0,0.0,0.0,0.0,0.0,0.0,0.0,0.0,0.0,0.0,0.0,0.0,0.0,0.0,0.0,0.0,0.0,0.0,0.0,0.0,0.0,0.0,0.0,0.0,0.0,0.0,0.0,0.0,0.0,0.0,0.0,0.0,0.0,0.0,0.0,0.0,0.0,0.0,0.0,0.0,0.0,0.0,0.0,0.0,0.0,0.0,0.0,0.0,0.0,0.0,0.0,0.0,0.0,0.0,0.0,0.0,0.0,0.0,0.0,0.0,0.0,0.0,0.0,0.0,0.0,0.0,0.0,0.0,0.0,0.0,0.0,0.0,0.0,0.0,0.0,0.0,0.0,0.0,0.0,0.0,0.0,0.0,0.0,0.0,0.0,0.0,0.0,0.0,0.0,0.0,0.0,0.0,0.0,0.0,0.0,0.0,0.0,0.0,0.0,0.0,0.0,0.0,0.0,0.0,0.0,0.0,0.0,0.0,0.0,0.0,0.0,0.0,0.0,0.0,0.0,0.0,0.0,0.0,0.0,0.0,0.0,0.0,0.0,0.0,0.0,0.0,0.0,0.0,0.0,0.0,0.0,0.0,0.0,0.0,0.0,0.0,0.0,0.0,0.0,0.0,0.0,0.0,0.0,0.0,0.0,0.0,0.0,0.0,0.0,0.0,0.0,0.0,0.0,0.0,0.0,0.0,0.0,0.0,0.0,0.0,0.0,0.0,0.0,0.0,0.0,0.0,0.0,0.0,0.0,0.0,0.0,0.0,0.0,0.0,0.0,0.0,0.0,0.0,0.0,0.0,0.0,0.0,0.0,0.0,0.0,0.0,0.0,0.0,0.0,0.0,0.0,0.0,0.0,0.0,0.0,0.0,0.0,0.0,0.0,0.0,0.0,0.0,0.0,0.0,0.0,0.0,0.0,0.0,0.0,0.0,0.0,0.0,0.0,0.0,0.0,0.0,0.0,0.0,0.0,0.0,0.0,0.0,0.0,0.0,0.0,0.0,0.0,0.0,0.0,0.0,0.0,0.0,0.0,0.0,0.0,0.0,0.0,0.0,0.0,0.0,0.0,0.0,0.0,0.0,0.0,0.0,0.0,0.0,0.0,0.0,0.0,0.0,0.0,0.0,0.0,0.0,0.0,0.0,0.0,0.0,0.0,0.0,0.0,0.0,0.0,0.0,0.0,0.0,0.0,0.0,0.0,0.0,0.0,0.0,0.0,0.0,0.0,0.0,0.0,0.0,0.0,0.0,0.0,0.0,0.0,0.0,0.0,0.0,0.0,0.0,0.0,0.0,0.0,0.0,0.0,0.0,0.0,0.0,0.0,0.0,0.0,0.0,0.0,0.0,0.0,0.0,0.0,0.0,0.0,0.0,0.0,0.0,0.0,0.0,0.0,0.0,0.0,0.0,0.0,0.0,0.0,0.0,0.0,0.0,0.0,0.0,0.0,0.0,0.0,0.0,0.0,0.0,0.0,0.0,0.0,0.0,0.0,0.0,0.0,0.0,0.0,0.0,0.0,0.0,0.0,0.0,0.0,0.0,0.0,0.0,0.0,0.0,0.0,0.0,0.0,0.0,0.0,0.0,0.0,0.0,0.0,0.0,0.0,0.0,0.0,0.0,0.0,0.0,0.0,0.0,0.0,0.0,0.0,0.0,0.0,0.0,0.0,0.0,0.0,0.0,0.0,0.0,0.0,0.0,0.0,0.0,0.0,0.0,0.0,0.0,0.0,0.0,0.0,0.0,0.0,0.0,0.0,0.0,0.0,0.0,0.0,0.0,0.0,0.0,0.0,0.0,0.0,0.0,0.0,0.0,0.0,0.0,0.0,0.0,0.0,0.0,0.0,0.0,0.0,0.0,0.0,0.0,0.0,0.0,0.0,0.0,0.0,0.0,0.0,0.0,0.0,0.0,0.0,0.0,0.0,0.0,0.0,0.0,0.0,0.0,0.0,0.0,0.0,0.0,0.0,0.0,0.0,0.0,0.0,0.0,0.0,0.0,0.0,0.0,0.0,0.0,0.0,0.0,0.0,0.0,0.0,0.0,0.0,0.0,0.0,0.0,0.0,0.0,0.0,0.0,0.0,0.0,0.0,0.0,0.0,0.0,0.0,0.0,0.0,0.0,0.0,0.0,0.0,0.0,0.0,0.0,0.0,0.0,0.0,0.0,0.0,0.0,0.0,0.0,0.0,0.0,0.0,0.0,0.0,0.0,0.0,0.0,0.0,0.0,0.0,0.0,0.0,0.0,0.0,0.0,0.0,0.0,0.0,0.0,0.0,0.0,0.0,0.0,0.0,0.0,0.0,0.0,0.0,0.0,0.0,0.0,0.0,0.0,0.0,0.0,0.0,0.0,0.0,0.0,0.0,0.0,0.0,0.0,0.0,0.0,0.0,0.0,0.0,0.0,0.0,0.0,0.0,0.0,0.0,0.0,0.0,0.0,0.0,0.0,0.0,0.0,0.0,0.0,0.0,0.0,0.0,0.0,0.0,0.0,0.0,0.0,0.0,0.0,0.0,0.0,0.0,0.0,0.0,0.0,0.0,0.0,0.0,0.0,2.6204,0.0,0.0,0.0,0.0,0.0,0.0,0.0,0.0,0.0,0.0,0.0,0.0,0.0,0.0,0.0,0.0,0.0,0.0,0.0,0.0,0.0,0.0,0.0,0.0,0.0,0.0,0.0,0.0,0.0,0.0,0.0,0.0,0.0,0.0,0.0,0.0,0.0,0.0,0.0,0.0,0.0,0.0,0.0,0.0,0.0,0.0,0.0,0.0,0.0,0.0,0.0,0.0,0.0,0.0,0.0,0.0,0.0,0.0,0.0,0.0,0.0,0.0,0.0,0.0,0.0,0.0,0.0,0.0,0.0,0.0,0.0,0.0,0.0,0.0,0.0,0.0,0.0,0.0,0.0,0.0,0.0,0.0,0.0,0.0,0.0,0.0,0.0,0.0,0.0,0.0,0.0,0.0,0.0,0.0,0.0,0.0,0.0,0.0,0.0,0.0,0.0,0.0,0.0,0.0,0.0,0.0,0.0,0.0,0.0,0.0,0.0,0.0,0.0,0.0,0.0,0.0,2.6319,0.0,0.0,0.0,0.0,0.0,0.0,0.0,0.0,0.0,0.0,0.0,0.0,0.0,0.0,0.0,0.0,0.0,0.0,0.0,0.0,0.0,0.0,0.0,0.0,0.0,0.0,0.0,0.0,0.0,0.0,0.0,0.0,0.0,0.0,0.0,0.0,0.0,0.0,0.0,0.0,0.0,0.0,0.0,0.0,0.0,0.0,0.0,0.0,0.0,0.0,0.0,0.0,0.0,0.0,0.0,0.0,0.0,0.0,0.0,0.0,0.0,0.0,0.0,0.0,0.0,0.0,0.0,0.0,0.0,0.0,0.0,0.0,0.0,0.0,0.0,0.0,0.0,0.0,0.0,0.0,0.0,0.0,0.0,0.0,0.0,0.0,0.0,0.0,0.0,0.0,0.0,0.0,0.0,0.0,0.0,0.0,0.0,0.0,0.0,0.0,0.0,0.0,0.0,0.0,0.0,0.0,0.0,0.0,2.8501,2.8858,2.9449,3.0179,3.0094,2.9327,2.8385,2.7696,2.7235,2.7312,0.0,0.0,0.0,0.0,0.0,0.0,0.0,0.0,0.0,0.0,0.0,0.0,0.0,0.0,0.0,0.0,0.0,0.0,0.0,0.0,0.0,0.0,0.0,0.0,0.0,0.0,0.0,0.0,0.0,0.0,0.0,0.0,0.0,0.0,0.0,0.0,0.0,0.0,2.2345,2.2124,2.2191,2.2387,2.0604,0.0,0.0,0.0,0.0,0.0,0.0,0.0,0.0,0.0,0.0,0.0,0.0,0.0,0.0,0.0,0.0,0.0,0.0,0.0,0.0,0.0,0.0,0.0,0.0,0.0,0.0,0.0,0.0,0.0,0.0,0.0,0.0,0.0,0.0,0.0,0.0,0.0,0.0,0.0,0.0,0.0,0.0,0.0,2.3807,2.394,0.0,0.0,0.0,0.0,0.0,0.0,0.0,0.0,0.0,0.0,0.0,0.0,0.0,2.8219,2.7811,2.8719,2.9413,2.992,3.049,3.0878,3.1118,3.1797,3.2087,3.2046,3.1324,0.0,2.8156,2.858,0.0,0.0,0.0,0.0,0.0,0.0,0.0,0.0,0.0,0.0,0.0,0.0,0.0,0.0,0.0,0.0,0.0,0.0,0.0,0.0,0.0,0.0,0.0,0.0,0.0,0.0,0.0,0.0,0.0,0.0,0.0,0.0,0.0,0.0,0.0,0.0,2.2355,2.3175,2.3033,2.3232,2.3423,2.3552,2.1962,2.1721,2.2467,2.1738,0.0,0.0,0.0,0.0,0.0,0.0,0.0,0.0,0.0,0.0,0.0,0.0,0.0,0.0,0.0,0.0,0.0,0.0,0.0,0.0,0.0,0.0,0.0,0.0,0.0,0.0,0.0,0.0,0.0,0.0,0.0,0.0,0.0,0.0,0.0,0.0,0.0,0.0,0.0,2.5052,2.552,2.4856,2.4978,2.5181,0.0,0.0,0.0,0.0,0.0,0.0,0.0,0.0,0.0,2.8254,2.9465,2.9838,2.9238,3.0112,3.1054,3.1994,3.1922,3.2366,3.3254,3.3045,3.276,3.2428,3.3461,3.282,3.0954,2.9819,2.8816,2.7976,0.0,0.0,0.0,0.0,2.7876,2.8752,0.0,0.0,0.0,0.0,0.0,0.0,0.0,0.0,0.0,0.0,0.0,0.0,0.0,0.0,0.0,1.9268,0.0,0.0,0.0,0.0,0.0,0.0,0.0,0.0,0.0,0.0,0.0,2.2474,2.4616,2.5111,2.4103,2.4543,2.4653,2.4445,2.3648,2.3108,2.2774,2.2396,2.1912,0.0,0.0,0.0,0.0,0.0,0.0,0.0,0.0,0.0,0.0,0.0,0.0,0.0,0.0,0.0,0.0,0.0,0.0,0.0,0.0,0.0,0.0,0.0,0.0,0.0,0.0,0.0,0.0,0.0,0.0,0.0,0.0,0.0,0.0,0.0,0.0,0.0,0.0,2.6342,2.6884,2.5813,2.5761,2.5889,0.0,0.0,0.0,0.0,0.0,0.0,2.9284,2.983,3.0123,3.0152,3.1075,3.1208,3.0489,3.1471,3.2452,3.3364,3.3035,3.3565,3.481,3.3996,3.3426,3.3143,3.4866,3.4758,3.3205,3.1599,3.0386,2.9435,2.8767,2.8589,2.8719,2.8875,2.9561,3.0526,0.0,0.0,0.0,0.0,0.0,0.0,0.0,0.0,0.0,0.0,0.0,0.0,0.0,0.0,1.9785,2.1056,2.0351,2.001,0.0,0.0,0.0,0.0,0.0,0.0,0.0,0.0,0.0,2.5112,2.5568,2.5947,2.6238,2.6202,2.5947,2.5521,2.5656,2.5849,2.5868,2.2967,2.2907,2.4489,0.0,0.0,0.0,0.0,0.0,0.0,0.0,0.0,0.0,0.0,0.0,0.0,0.0,0.0,0.0,0.0,0.0,0.0,0.0,0.0,0.0,0.0,0.0,0.0,0.0,0.0,0.0,0.0,0.0,0.0,0.0,0.0,0.0,0.0,0.0,0.0,0.0,0.0,0.0,2.6507,2.7051,0.0,0.0,0.0,0.0,2.8855,2.9069,2.9508,3.0288,3.0353,3.0437,3.057,3.1827,3.2132,3.1245,3.2731,3.342,3.3316,3.391,3.4549,3.5157,3.4535,3.4648,3.5344,3.5383,3.4749,3.3729,3.4374,3.3681,3.2134,3.147,3.1062,3.0784,3.0282,3.0472,3.0985,0.0,0.0,0.0,0.0,0.0,0.0,0.0,0.0,0.0,0.0,0.0,0.0,0.0,2.1201,2.1852,2.2776,2.2208,2.1367,2.0373,0.0,0.0,0.0,0.0,0.0,0.0,0.0,2.2871,2.4325,2.4932,2.5307,2.5503,2.553,2.5498,2.5466,2.5237,2.5607,2.6344,2.5081,2.4379,2.4129,2.3595,2.3104,0.0,0.0,0.0,0.0,0.0,0.0,0.0,0.0,0.0,0.0,0.0,0.0,0.0,0.0,0.0,0.0,0.0,0.0,0.0,0.0,0.0,0.0,0.0,0.0,0.0,0.0,0.0,0.0,0.0,0.0,0.0,0.0,0.0,0.0,0.0,0.0,0.0,2.7174,2.6846,0.0,2.7642,2.7765,2.829,2.9421,2.9828,3.054,3.1746,3.2173,3.2587,3.3038,3.38,3.3914,3.3307,3.4148,3.4806,3.5284,3.4921,3.5221,3.605,3.4892,3.4405,3.4494,3.4755,3.4528,3.402,3.487,3.3859,3.1688,3.1023,3.0659,3.0504,3.0662,3.0837,3.113,0.0,0.0,0.0,0.0,0.0,0.0,0.0,0.0,0.0,0.0,0.0,2.0187,2.1524,2.2648,2.367,2.4569,2.3454,2.2275,2.1262,0.0,0.0,0.0,0.0,0.0,0.0,2.2364,2.3042,2.4271,2.4836,2.5036,2.4906,2.4874,2.4961,2.5141,2.4772,2.5205,2.6224,2.6239,2.556,2.4515,2.4998,2.4835,2.4254,0.0,0.0,0.0,0.0,0.0,0.0,0.0,0.0,0.0,0.0,0.0,0.0,0.0,0.0,0.0,0.0,0.0,0.0,0.0,0.0,0.0,0.0,0.0,0.0,0.0,0.0,0.0,0.0,0.0,0.0,0.0,0.0,0.0,0.0,2.7637,2.8353,2.8311,2.765,2.7523,2.8387,2.842,2.8879,3.0075,3.066,3.15,3.2771,3.2935,3.3297,3.3956,3.4235,3.4177,3.3806,3.4163,3.466,3.5238,3.463,3.4798,3.5615,3.4669,3.4131,3.4022,3.4696,3.4577,3.3962,3.5078,3.422,3.2197,3.1939,3.1911,3.1985,3.1919,3.2119,3.2539,0.0,0.0,0.0,0.0,0.0,0.0,0.0,0.0,0.0,0.0,1.8864,2.0329,2.1687,2.3428,2.502,2.6348,2.3873,2.2451,2.299,1.996,0.0,0.0,0.0,0.0,2.2207,2.34,2.4382,2.5125,2.5305,2.5122,2.4621,2.4436,2.4487,2.4724,2.4517,2.4934,2.5827,2.6334,2.6365,2.6012,2.55,2.5285,2.5189,0.0,0.0,0.0,0.0,0.0,0.0,0.0,0.0,0.0,0.0,0.0,0.0,0.0,0.0,0.0,0.0,0.0,0.0,0.0,0.0,0.0,0.0,0.0,0.0,0.0,0.0,0.0,0.0,0.0,0.0,0.0,0.0,0.0,2.756,2.8584,2.9471,2.9871,2.9563,2.9359,2.9429,2.9737,3.0204,3.0865,3.1603,3.2395,3.3242,3.2499,3.2408,3.321,3.3041,3.2856,3.2671,3.2856,3.2988,3.3054,3.3054,3.3311,3.3838,3.3893,3.4006,3.4213,3.5284,3.4868,3.3592,3.5124,3.4982,3.3868,3.4472,3.5018,3.5308,3.4167,3.4364,3.5187,0.0,0.0,0.0,0.0,0.0,0.0,0.0,0.0,0.0,0.0,1.9283,2.0844,2.2236,2.3481,2.464,2.5742,2.2613,2.0766,2.1258,0.0,0.0,0.0,0.0,0.0,2.3035,2.2548,2.2676,2.3456,2.3171,2.3035,2.3048,2.3328,2.4202,2.555,2.5165,2.5978,2.7662,2.7756,2.7636,2.7382,2.7373,2.7172,2.6864,0.0,0.0,0.0,0.0,0.0,0.0,0.0,0.0,0.0,0.0,0.0,0.0,0.0,0.0,0.0,0.0,0.0,0.0,0.0,0.0,0.0,0.0,0.0,0.0,0.0,0.0,0.0,0.0,0.0,0.0,0.0,2.7807,2.8371,2.8569,2.938,3.0102,3.0504,3.0113,2.9923,3.0176,3.0587,3.0957,3.1245,3.214,3.2757,3.2999,3.3191,3.3607,3.4269,3.4091,3.403,3.4119,3.403,3.4071,3.4234,3.4071,3.4265,3.4738,3.4266,3.4566,3.5451,3.4868,3.4664,3.4713,3.4924,3.4617,3.4063,3.4528,3.4525,3.4302,3.4436,3.4942,3.5489,0.0,0.0,0.0,0.0,0.0,0.0,0.0,0.0,0.0,0.0,1.9221,2.0983,2.1844,2.3143,2.4188,2.4683,2.1641,1.9771,1.9956,0.0,0.0,0.0,0.0,2.1782,2.2586,2.2201,2.2118,2.2423,2.2295,2.2403,2.2697,2.3164,2.439,2.6169,2.5696,2.652,2.822,2.8196,2.7944,2.7686,2.8586,2.8582,2.8009,2.7803,2.7482,2.7095,2.6781,2.6049,2.5217,2.4931,0.0,0.0,0.0,0.0,0.0,0.0,0.0,0.0,0.0,0.0,0.0,0.0,0.0,0.0,0.0,0.0,0.0,0.0,0.0,0.0,0.0,0.0,0.0,0.0,2.9335,3.015,3.0874,3.0762,3.0826,3.1402,3.1145,3.103,3.1315,3.1934,3.2357,3.2426,3.3198,3.3579,3.3458,3.3703,3.3951,3.4155,3.4169,3.4139,3.4021,3.4139,3.4182,3.4155,3.4042,3.4272,3.4812,3.4679,3.5063,0.0,3.5226,3.4959,3.492,3.4913,3.4779,0.0,0.0,0.0,0.0,0.0,3.5219,3.5701,0.0,0.0,0.0,0.0,0.0,0.0,0.0,0.0,0.0,0.0,0.0,2.0617,2.0721,2.2293,2.33,2.3157,2.0726,1.9165,0.0,0.0,0.0,1.9721,2.1211,2.1932,2.1727,2.2285,2.2359,2.1977,2.2395,2.2795,2.3188,2.3677,2.4864,2.659,2.6156,2.6755,2.8083,2.8135,2.7882,2.7552,2.9272,2.9457,2.8671,2.8137,2.825,2.8673,2.8309,2.7501,2.6569,2.6404,0.0,0.0,0.0,0.0,0.0,0.0,0.0,0.0,0.0,0.0,0.0,0.0,0.0,0.0,0.0,0.0,0.0,0.0,0.0,0.0,0.0,0.0,0.0,0.0,3.1231,3.2399,3.3622,3.2536,3.1887,3.2616,3.2577,3.2546,3.2727,3.3494,3.3985,3.3985,3.4427,3.4542,3.4195,0.0,0.0,0.0,0.0,3.3759,3.3291,3.379,3.39,3.3589,3.3547,3.3892,3.4552,3.5078,3.5399,3.5535,3.5939,3.558,3.4708,3.512,3.5245,3.5146,3.4539,3.4661,3.515,3.5076,3.5493,3.6103,0.0,0.0,0.0,0.0,0.0,0.0,0.0,0.0,0.0,1.6967,1.792,1.8685,1.9036,1.9963,2.0684,2.0977,1.9186,1.8222,0.0,0.0,2.0059,2.1666,2.2069,2.2488,2.3026,2.2948,2.2761,2.2462,2.3335,2.3714,2.3605,2.4284,2.5315,2.6597,2.6506,2.7238,2.8595,2.9036,2.9019,2.8783,2.9361,2.9075,2.8485,3.0049,2.9862,2.8827,2.9157,2.8923,2.8339,2.7994,2.769,2.7324,2.6591,2.5957,0.0,0.0,0.0,0.0,0.0,0.0,0.0,0.0,0.0,0.0,0.0,0.0,0.0,0.0,0.0,0.0,0.0,0.0,0.0,3.1164,3.2619,3.3802,3.4276,3.435,3.439,3.4548,3.435,3.4236,3.4258,3.4437,3.454,3.454,3.464,3.4474,3.3988,3.4346,3.4311,3.3825,3.4296,3.449,3.4377,3.4704,3.4838,3.4768,0.0,0.0,3.5344,3.5003,3.5345,3.6212,3.6306,3.6125,3.5788,3.5897,3.5639,3.5236,3.5568,3.6115,3.6612,3.6122,3.6728,3.7742,0.0,0.0,0.0,0.0,0.0,0.0,0.0,0.0,0.0,0.0,1.7521,1.8249,1.8109,1.8822,1.922,1.901,1.7871,0.0,0.0,1.9482,2.075,2.2091,2.2642,2.2978,2.3142,2.3047,2.2787,2.2413,2.327,2.3608,2.3482,2.4334,2.5381,2.655,2.6545,2.7066,2.8008,2.8763,2.8735,2.8233,2.9274,2.907,2.8259,2.9642,3.0024,2.9846,2.9846,2.9794,2.9607,2.9131,2.8771,2.8355,2.7296,2.6843,2.6454,0.0,0.0,0.0,0.0,0.0,0.0,0.0,0.0,0.0,0.0,0.0,0.0,0.0,0.0,2.8091,2.8887,0.0,3.187,3.2896,3.4146,3.5114,3.5402,3.5618,3.5583,3.5139,3.5113,3.5117,3.5117,3.5378,3.5542,3.5542,3.5542,3.5303,3.4728,3.5242,3.528,3.4715,3.5242,3.5475,3.5297,3.5287,3.5229,3.5098,3.493,3.5326,3.6172,3.5689,3.6069,3.7125,3.6819,3.6467,3.6103,3.6103,3.592,3.5709,3.6295,3.6566,3.653,3.5907,3.6334,3.7146,0.0,0.0,0.0,0.0,0.0,0.0,0.0,0.0,0.0,0.0,1.7016,1.7792,1.7248,1.7858,1.8024,0.0,0.0,0.0,0.0,1.9994,2.1356,2.2189,2.3018,2.3364,2.3161,2.3201,2.3065,2.2715,2.3395,2.3714,2.3663,2.4438,2.5357,2.6336,2.6553,2.686,2.7353,2.8533,2.8495,2.7774,2.9386,2.9331,2.833,2.8682,2.957,3.0618,3.035,3.024,3.0162,2.9884,2.9405,2.8761,2.7944,2.7688,2.7382,2.5865,2.5087,0.0,0.0,0.0,0.0,0.0,0.0,0.0,0.0,2.6785,2.723,2.757,2.8195,2.9016,3.0116,3.1998,3.3645,3.4485,3.5474,3.624,3.6507,3.6499,3.6195,3.5494,3.5579,3.5732,3.5809,3.6257,3.6568,3.6568,3.6568,3.6306,3.5707,3.6144,3.6144,3.56,3.6117,3.631,3.6118,3.5924,3.5721,3.5563,3.5494,3.5989,3.6898,3.6473,3.6818,3.7695,3.7223,3.6717,3.6267,3.6267,3.6267,3.6309,3.6815,3.6703,3.623,3.5723,3.5864,3.6278,0.0,0.0,0.0,0.0,0.0,0.0,0.0,0.0,0.0,0.0,0.0,0.0,0.0,0.0,0.0,0.0,0.0,0.0,1.9098,2.0254,2.1523,2.2922,2.3196,2.3547,2.4045,2.4053,2.4202,2.4498,2.4998,2.5258,2.5246,2.5242,2.5421,2.5834,2.6669,2.7201,2.7575,2.9505,2.9864,2.9216,3.0137,3.0042,2.9273,2.8683,2.8998,2.9848,3.0622,3.0099,2.9214,3.0161,2.9634,2.8796,3.0112,2.9507,2.8115,2.7221,2.5877,2.4653,2.4498,2.3905,2.4048,2.7155,2.7121,2.6826,0.0,3.0053,3.058,2.9767,3.1175,3.2343,3.1561,3.3643,3.5377,3.5083,3.6106,3.6974,3.7026,3.6815,3.6624,3.6521,3.6384,3.6482,3.6948,3.7085,3.7122,3.7122,3.7122,3.6871,3.6318,3.6356,3.6224,3.5864,3.6209,3.6592,3.6972,3.6949,3.7016,3.7219,3.6929,3.6973,3.7325,3.678,3.6755,3.711,3.704,3.697,3.69,3.69,3.69,3.6914,3.697,3.697,3.6885,3.6815,3.6843,3.6885,0.0,0.0,0.0,0.0,0.0,0.0,0.0,0.0,0.0,0.0,0.0,0.0,0.0,0.0,0.0,0.0,0.0,0.0,1.9151,2.0647,2.2119,2.3567,2.3688,2.3781,2.3966,2.3856,2.3967,2.4342,2.4843,2.5131,2.5199,2.5467,2.5578,2.5614,2.616,2.6581,2.6938,2.8233,2.8911,2.9159,2.924,2.9252,2.9193,2.8441,2.8019,2.7854,2.8245,2.7985,0.0,0.0,2.8602,2.8399,2.9583,2.9201,2.811,2.6902,2.5758,2.4785,2.4382,2.4756,2.5717,2.7487,2.7724,2.7965,2.9609,3.0654,3.1253,3.1146,3.2537,3.3794,3.3845,3.5175,3.628,3.6251,3.6592,3.6862,3.6862,3.6675,3.6534,3.6534,3.6152,3.6232,3.7122,3.6921,3.6997,3.7613,3.7097,3.6842,3.7086,3.6943,3.6877,3.6887,3.6865,3.7097,3.7548,3.7098,3.7085,3.7505,3.7351,3.7451,3.7717,3.7273,3.7044,3.6998,3.6998,3.6998,3.6998,3.6998,3.6998,3.6998,3.6998,3.6998,3.6998,3.6998,3.6998,3.6973,0.0,0.0,0.0,0.0,0.0,0.0,0.0,0.0,0.0,0.0,0.0,0.0,0.0,0.0,0.0,0.0,0.0,1.7018,1.8411,2.0281,2.1888,2.3079,2.3597,2.369,2.3363,2.3614,2.3872,2.4103,2.4604,2.4987,2.5291,2.5437,2.5477,2.5387,2.5623,2.5975,2.6512,2.7392,2.8127,2.8676,2.8551,2.8511,2.8466,2.7661,2.6791,2.6033,2.6367,2.6102,0.0,0.0,2.7066,2.7366,2.8221,2.8319,2.7816,2.639,2.5437,2.4875,2.4953,2.5821,2.703,2.8324,2.9023,2.9665,3.0716,3.1685,3.2443,3.2646,3.3742,3.4805,3.5377,3.608,3.6687,3.6916,3.6936,3.6945,3.7015,3.6701,3.6396,3.6257,3.5785,3.5791,3.6622,3.6573,3.6905,3.7914,3.7268,3.7074,3.7678,3.7364,3.7224,3.7343,3.7248,3.7367,3.7794,3.7207,3.7155,3.7611,3.7611,3.7695,3.7817,3.7464,3.7261,3.7251,3.7082,3.6998,3.6998,3.6998,3.6998,3.6998,3.6998,3.6998,3.7007,3.7038,3.7015,3.6936,0.0,0.0,0.0,0.0,0.0,0.0,0.0,0.0,0.0,0.0,0.0,0.0,0.0,0.0,0.0,0.0,1.5049,1.581,1.6725,1.8768,2.0236,2.0866,2.2569,2.3129,2.2259,2.3637,2.4383,2.4383,2.4781,2.5345,2.5948,2.5186,2.4928,2.5135,2.5194,2.5733,2.6679,2.7944,2.8227,2.7915,2.8661,2.8251,2.7062,2.6129,2.5317,2.4809,2.6052,0.0,0.0,0.0,2.5109,2.5455,2.6383,2.7108,2.7367,2.6014,2.5099,2.4893,2.663,2.6961,2.7528,3.0533,3.1601,3.2054,3.2669,3.4139,3.5201,3.4551,3.5144,3.5683,3.5452,3.6071,3.6603,3.6616,3.7107,3.7564,3.7831,3.7127,3.6399,3.5882,3.557,3.5414,3.544,3.6192,3.7036,3.7914,3.7912,3.7884,3.7977,3.7415,3.6994,3.6747,3.6971,3.724,3.7508,3.7495,3.7598,3.7877,3.7877,3.7722,3.741,3.7138,3.7324,3.7835,3.7265,3.6998,3.6998,3.6998,3.6998,3.6998,3.6998,3.6998,3.7024,3.7154,3.7077,3.6914,0.0,0.0,0.0,0.0,0.0,0.0,0.0,0.0,0.0,0.0,0.0,0.0,0.0,0.0,0.0,0.0,1.474,1.5113,1.6491,1.8075,1.9156,1.9584,2.1651,2.2432,2.1693,2.2856,2.3673,2.4073,2.4479,2.4919,2.5402,2.5428,2.5424,2.5362,2.5572,2.596,2.6501,2.6915,2.7312,2.7618,2.6907,2.6669,2.6601,2.5141,2.3985,2.3245,0.0,0.0,0.0,0.0,2.3855,2.4225,2.6232,2.6706,2.634,2.5414,2.5777,2.6515,2.6648,2.811,2.9977,3.1595,3.2705,3.3599,3.4375,3.5315,3.5851,3.5234,3.5368,3.5416,3.4793,3.5155,3.562,3.5826,3.6457,3.7075,3.7582,3.7232,3.6453,3.5155,3.5234,3.5091,3.4345,3.5571,3.6856,3.7858,3.795,3.7961,3.7934,3.7615,3.7222,3.6734,3.6792,3.6956,3.7237,3.7413,3.7634,3.79,3.8126,3.8114,3.786,3.7681,3.7484,3.7293,3.7096,3.6998,3.6998,3.6998,3.6998,3.7001,3.7091,3.7124,3.7147,3.727,3.7362,3.7394,0.0,0.0,0.0,0.0,0.0,0.0,0.0,0.0,0.0,0.0,0.0,0.0,0.0,0.0,0.0,0.0,0.0,1.4513,1.557,1.6934,1.7803,1.7986,2.0082,2.0913,2.0165,2.1185,2.1995,2.2527,2.2927,2.3507,2.432,2.4491,2.457,2.4618,2.4778,2.503,2.5358,2.5669,2.6096,2.6476,2.5498,2.5279,2.5347,2.3631,2.2568,0.0,0.0,0.0,0.0,2.2174,2.2858,2.3621,2.4991,2.5301,2.5134,2.5055,2.5986,2.7137,2.7683,2.9577,3.1662,3.2835,3.4069,3.5093,3.5504,3.5938,3.6086,3.5312,3.4767,3.4309,3.3793,3.3738,3.4021,3.4761,3.5196,3.5845,3.7026,3.6528,3.5739,3.4938,3.5157,3.4981,3.4035,3.5528,3.6843,3.7559,3.8017,3.8109,3.7811,3.7848,3.7532,3.6734,3.6792,3.6968,3.7237,3.74,3.7713,3.8161,3.8313,3.8421,3.8442,3.8063,3.7681,3.7321,3.7096,3.6998,3.6998,3.6998,3.6915,3.6808,3.7087,3.7105,3.6989,3.7143,3.7399,3.7639,0.0,0.0,0.0,0.0,0.0,0.0,0.0,0.0,0.0,0.0,0.0,0.0,0.0,0.0,0.0,0.0,0.0,0.0,1.4086,1.5461,1.6216,1.6134,1.8051,1.8732,1.7897,1.8844,1.9589,2.0066,2.0384,2.1287,2.2732,2.2365,2.2434,2.2857,2.2851,2.3008,2.3342,2.415,2.45,2.451,2.4436,2.4033,2.3275,2.1639,0.0,0.0,0.0,0.0,2.0899,2.091,2.2222,2.3704,2.2985,2.3278,2.4105,2.5143,2.5932,2.707,2.9771,3.1375,3.2672,3.4298,3.5649,3.647,3.5989,3.6029,3.5896,3.4841,3.3501,3.2514,3.2514,3.205,3.2115,3.3566,3.3604,3.4224,3.646,3.5336,3.4544,3.5265,3.5391,3.5182,3.4554,3.607,3.7108,3.7191,0.0,3.8407,3.7618,3.8122,3.7889,3.6711,3.6968,3.7237,3.7482,3.7505,3.7897,3.8634,3.8516,3.8661,3.9058,3.8313,3.792,3.7821,3.7265,3.6998,3.6998,3.6978,3.6752,3.646,3.6966,3.69,3.6569,3.6698,3.7125,3.7617,0.0,0.0,0.0,0.0,0.0,0.0,0.0,0.0,0.0,0.0,0.0,0.0,0.0,0.0,0.0,0.0,0.0,0.0,1.4002,1.5027,1.5493,1.5169,1.7122,1.8027,1.7607,1.8392,0.0,1.9494,1.9697,1.9981,2.0363,2.0621,2.0803,2.0908,2.0971,2.1195,2.1545,2.1726,2.1911,2.2075,0.0,2.173,2.1331,0.0,0.0,0.0,0.0,1.9546,2.0689,2.1245,2.3269,2.5489,2.5101,2.6298,2.7793,2.748,2.8805,3.059,3.161,3.3333,3.5028,3.5702,3.6274,3.6497,3.5768,3.505,3.4316,3.3652,3.2365,3.1331,3.1331,3.1805,3.2587,3.3827,3.4786,3.5913,3.7378,3.7195,3.667,3.5992,3.6684,3.6828,3.577,3.7246,3.8261,3.8288,3.8966,3.8737,3.7307,3.8348,3.8229,3.6524,3.7074,3.733,3.7201,3.7611,3.8239,3.9127,3.9089,3.9025,3.8942,3.8742,3.8123,3.7223,3.7082,3.6998,3.6993,3.6831,3.6628,3.64,3.6504,3.6328,3.6102,3.6225,3.6389,3.6507,0.0,0.0,0.0,0.0,0.0,0.0,0.0,0.0,0.0,0.0,0.0,0.0,0.0,0.0,0.0,0.0,0.0,0.0,0.0,1.4448,1.4693,1.4164,1.5958,1.6733,1.6246,1.689,0.0,0.0,0.0,0.0,1.8886,1.9223,1.9423,1.9555,1.9871,1.9942,1.9889,2.0713,0.0,0.0,0.0,0.0,0.0,0.0,0.0,0.0,1.8751,1.9644,2.1083,2.2029,2.4038,2.6209,2.6453,2.7726,2.9192,2.9494,3.0736,3.2233,3.3258,3.4683,3.5955,3.6379,3.6396,3.6168,3.5476,3.4114,3.2802,3.2135,3.0568,2.9385,2.9625,3.0196,3.1086,3.2479,3.3617,3.4972,3.6724,3.6785,3.6677,3.6858,3.7495,3.773,3.7286,3.8383,3.9079,3.9079,3.9416,3.904,3.7743,3.8428,3.8245,3.6913,3.7168,3.7307,3.7284,3.768,3.8366,3.9305,3.9305,3.9159,3.8902,3.8902,3.8193,3.7012,0.0,3.687,3.685,3.6648,3.6331,3.5986,3.6209,3.623,3.6125,3.5847,3.6136,3.6568,0.0,0.0,0.0,0.0,0.0,0.0,0.0,0.0,0.0,0.0,0.0,0.0,0.0,0.0,0.0,0.0,0.0,0.0,0.0,0.0,0.0,0.0,1.4907,1.5375,1.466,1.5255,1.5794,1.6296,1.6135,0.0,0.0,0.0,0.0,0.0,0.0,0.0,0.0,0.0,0.0,0.0,0.0,0.0,0.0,0.0,0.0,0.0,1.8702,1.9966,2.1495,2.2789,2.4534,2.6316,2.7236,2.8198,2.9383,3.1132,3.202,3.2836,3.4635,3.5547,3.6128,3.6571,3.6216,3.5573,3.4964,3.306,3.1195,3.0394,2.8561,2.7316,2.7989,2.8373,2.9154,3.0888,3.1831,3.3204,3.5577,3.553,3.5894,3.7694,3.8031,3.8318,3.8776,3.9442,3.9784,3.9705,3.9627,3.9255,3.8433,3.8441,3.8158,3.7577,3.7284,3.7284,3.7551,3.7854,3.8434,3.9305,3.9372,3.9265,3.9008,3.8944,3.8271,3.7192,3.6939,0.0,3.6825,3.6543,3.6082,3.564,3.6035,3.6263,3.6248,3.5568,3.6018,3.6828,0.0,0.0,0.0,0.0,0.0,0.0,0.0,0.0,0.0,0.0,1.5738,1.5316,0.0,0.0,0.0,0.0,0.0,0.0,0.0,0.0,0.0,0.0,1.4887,1.5167,1.4855,1.5547,1.5681,1.5181,1.6383,1.6592,0.0,0.0,0.0,0.0,0.0,0.0,0.0,0.0,0.0,0.0,0.0,0.0,0.0,0.0,0.0,0.0,1.9001,1.9637,2.0446,2.2203,2.4413,2.6571,2.7334,2.8579,3.0069,3.1828,3.279,3.3652,3.5309,3.6151,3.6571,3.6696,3.58,3.4645,3.3683,3.1347,2.9214,2.8512,2.7178,2.6557,2.7942,2.8983,3.0269,3.2252,3.3217,3.4404,3.6272,3.6476,3.6777,3.7785,3.8736,3.9351,3.9418,4.0396,4.079,4.0293,3.986,3.9255,3.8433,3.8559,3.8392,3.7844,3.7564,3.7564,3.7831,3.8275,3.876,3.9305,3.9689,3.9809,3.9627,3.9121,3.8667,3.8204,3.7682,0.0,3.7551,3.6845,3.6554,3.6505,3.5942,3.5629,3.5494,3.536,3.5137,3.4892,0.0,0.0,0.0,0.0,0.0,0.0,0.0,1.5219,1.5671,1.565,1.5623,1.5275,1.4418,1.4449,1.449,0.0,0.0,0.0,0.0,0.0,0.0,0.0,0.0,0.0,0.0,1.5999,1.6365,1.6033,0.0,1.7099,1.6707,1.7308,1.7471,1.7276,1.7321,1.7456,0.0,0.0,0.0,0.0,0.0,0.0,0.0,0.0,0.0,0.0,0.0,1.9594,2.0216,2.1531,2.327,2.526,2.7398,2.9409,3.1219,3.2335,3.3359,3.4403,3.5633,3.6239,3.6534,3.6534,3.5193,3.3508,3.2114,2.9867,2.7903,2.7297,2.6411,2.6034,2.6984,2.83,2.9688,3.1066,3.21,3.3466,3.5535,3.5828,3.6346,3.7764,3.8637,3.9272,3.9586,4.0084,4.0305,3.9993,3.9444,3.8963,3.8572,3.8366,3.8174,3.7913,3.7785,3.7785,3.79,3.8366,3.885,3.9305,3.9777,3.9929,3.9781,3.9025,3.8378,3.7826,3.698,0.0,3.6963,3.6154,3.6144,3.657,3.5872,3.6168,3.6876,3.5734,3.5667,3.6004,0.0,0.0,0.0,0.0,0.0,0.0,0.0,1.5063,1.5276,1.5572,1.558,1.5368,1.4846,1.4673,1.4491,0.0,0.0,0.0,0.0,0.0,0.0,0.0,0.0,0.0,0.0,0.0,0.0,1.6709,1.7199,0.0,0.0,0.0,0.0,0.0,1.8278,1.8251,1.8139,1.9103,0.0,0.0,0.0,1.8764,0.0,0.0,0.0,0.0,0.0,1.9605,2.0232,2.0928,2.2055,2.3643,2.6448,2.8991,3.112,3.2167,3.332,3.4481,3.5539,3.612,3.638,3.6243,3.4547,3.2512,3.0999,2.88,2.6919,2.6436,2.5808,2.5536,2.6099,2.7268,2.8487,2.9533,3.0602,3.2059,3.4224,3.4747,3.5579,3.7281,3.8108,3.8728,3.9196,3.9462,3.956,3.9429,3.8773,3.841,3.8517,3.8135,3.79,3.79,3.79,3.7877,3.7808,3.8457,3.8904,3.9225,3.9813,3.9999,3.9809,3.8936,3.8214,3.7593,3.6613,0.0,0.0,3.5969,3.6064,3.6638,3.6036,3.6672,3.7741,3.5999,3.6141,3.6899,0.0,0.0,0.0,0.0,0.0,0.0,0.0,1.4937,1.5514,1.5898,1.5855,1.5681,1.5435,1.53,1.4969,0.0,0.0,0.0,0.0,0.0,0.0,0.0,0.0,0.0,0.0,0.0,0.0,1.5475,1.6896,0.0,0.0,0.0,0.0,0.0,0.0,1.8814,1.925,1.9231,0.0,0.0,0.0,0.0,0.0,0.0,0.0,0.0,0.0,1.9485,2.0234,2.0558,2.1442,2.2531,2.3279,2.5341,2.7977,3.066,3.2069,3.3172,3.4812,3.5824,3.6268,3.5719,3.3925,3.203,3.1099,2.8499,2.62,2.5854,2.5144,2.4934,2.5999,2.6474,2.7303,2.9153,3.0145,3.1228,3.2784,3.3991,3.4992,3.5743,3.7162,3.8086,3.8137,3.9023,3.9353,3.8804,3.7834,3.7454,3.7955,3.7926,3.79,3.79,3.79,3.7785,3.7528,3.8679,3.9136,3.8953,3.9914,4.0235,3.9964,3.9076,3.8717,3.8728,3.8069,0.0,0.0,3.7718,3.7405,3.725,3.6643,3.6202,3.5859,3.565,3.5363,3.5084,0.0,0.0,0.0,0.0,0.0,0.0,1.4828,1.4805,1.5036,1.6051,1.5845,1.5725,1.6012,1.5737,1.5398,1.5043,0.0,0.0,0.0,0.0,0.0,0.0,0.0,0.0,0.0,0.0,1.706,1.6926,1.7613,0.0,0.0,0.0,0.0,0.0,0.0,1.9448,1.9643,1.9759,0.0,0.0,0.0,0.0,0.0,0.0,0.0,0.0,0.0,0.0,2.0068,2.0369,2.1234,2.2127,2.183,2.311,2.5251,2.807,3.0402,3.2417,3.4102,3.5139,3.5793,3.5759,3.3651,3.1334,3.0286,2.8297,2.6485,2.5774,2.5745,2.5857,2.5998,2.6462,2.7236,2.8527,2.8745,2.9462,3.154,3.2377,3.3242,3.4498,3.589,3.6824,3.7002,3.7422,3.7579,3.7337,3.6908,3.6981,3.7634,3.725,3.7204,3.7657,3.7657,3.7818,3.8171,3.8926,3.9247,3.9145,3.9834,4.0097,3.9982,3.9137,3.8692,3.8563,3.7844,0.0,0.0,3.6905,3.6814,3.6971,3.6374,3.6526,3.7002,3.6112,3.5968,3.6129,0.0,0.0,0.0,0.0,0.0,1.3677,1.4587,1.442,1.4623,1.5826,1.5781,1.5846,1.6338,1.6035,1.5748,1.5658,1.5614,0.0,0.0,0.0,0.0,0.0,0.0,0.0,0.0,0.0,1.7425,1.747,1.7759,1.8255,0.0,0.0,1.8871,1.9526,0.0,0.0,0.0,0.0,0.0,0.0,0.0,0.0,0.0,0.0,0.0,0.0,0.0,0.0,0.0,0.0,0.0,2.1922,2.1402,2.2111,2.3538,2.5789,2.8398,3.0943,3.2571,3.3863,3.4826,3.5004,3.2976,3.0673,2.9717,2.7858,2.6304,2.6135,2.6257,2.6358,2.6363,2.6761,2.7305,2.8089,2.8039,2.8616,3.069,3.1214,3.1911,3.3252,3.4417,3.5263,3.5642,3.6122,3.6334,3.6181,3.6381,3.664,3.7051,3.6781,3.6992,3.7805,3.7828,3.8113,3.8728,3.9361,3.9608,3.946,3.9927,4.0043,3.9763,3.9068,3.8646,3.8416,3.7676,0.0,0.0,3.6585,3.6478,3.6596,3.6196,3.6542,3.7187,3.6152,3.6154,3.6521,0.0,0.0,0.0,0.0,0.0,0.0,1.3123,1.3745,1.4436,1.5115,1.566,1.6099,1.6371,1.6165,1.5999,1.5988,1.5869,0.0,0.0,0.0,0.0,0.0,0.0,0.0,0.0,0.0,1.6675,1.6212,1.6876,1.7421,1.7823,1.8143,1.8841,1.9798,0.0,0.0,0.0,0.0,0.0,0.0,0.0,0.0,0.0,0.0,0.0,0.0,0.0,0.0,0.0,0.0,0.0,0.0,0.0,2.2455,2.3091,2.4123,2.6109,2.8318,2.9985,3.1861,3.3268,3.3081,3.1647,3.0168,2.9623,2.7076,2.5285,2.6938,2.6391,2.5991,2.7252,2.7339,2.7366,2.7914,2.8493,2.924,3.026,3.0867,3.1415,3.1967,3.2744,3.3451,3.397,3.5472,3.6168,3.5644,3.6274,0.0,3.6037,3.6696,3.7546,3.8557,3.858,3.8755,3.9091,4.0092,4.0318,3.9791,4.0341,4.0131,3.9283,3.8814,3.8589,3.8562,0.0,0.0,0.0,3.7429,3.6838,3.6294,3.6294,3.5944,3.5426,3.5413,3.5413,3.5453,0.0,0.0,0.0,0.0,0.0,0.0,0.0,1.445,1.5115,1.5804,1.5552,1.5586,1.6323,1.5757,1.5366,1.5505,1.5367,0.0,0.0,0.0,0.0,0.0,0.0,0.0,0.0,0.0,1.696,1.7352,1.7257,1.769,1.8621,1.8403,1.8625,1.9188,1.9223,1.955,0.0,0.0,0.0,0.0,0.0,0.0,0.0,0.0,0.0,0.0,0.0,0.0,0.0,0.0,0.0,0.0,0.0,0.0,0.0,2.287,2.512,2.7702,2.9347,3.0261,3.0894,3.1423,3.0113,2.8775,2.9266,2.731,2.5803,2.7161,2.6606,2.6152,2.7111,2.736,2.7635,2.8311,2.8351,2.8562,2.9391,3.0162,3.0937,3.1685,3.3276,3.4372,3.454,3.5012,3.5538,3.6088,3.6189,3.6627,3.7515,3.7753,3.7995,3.8327,3.834,3.8623,3.9226,3.9724,4.0098,4.0323,3.9683,3.944,3.9543,3.8797,3.8238,0.0,0.0,0.0,0.0,3.7306,3.7035,3.6522,3.6522,3.638,3.6163,3.5771,3.5879,3.6238,0.0,0.0,0.0,0.0,0.0,0.0,0.0,1.4374,1.4925,1.528,1.5151,1.5259,1.5846,1.5334,1.5035,1.5206,1.4808,0.0,0.0,0.0,0.0,0.0,0.0,0.0,1.5389,1.5884,1.6546,1.7377,1.7087,1.7418,1.8311,1.8362,1.8471,1.8651,1.9008,1.9423,0.0,0.0,0.0,0.0,0.0,0.0,1.9897,0.0,0.0,0.0,0.0,0.0,0.0,0.0,0.0,0.0,0.0,0.0,0.0,0.0,2.4509,2.6339,2.7469,2.7961,2.8374,2.9221,2.8165,2.7134,2.7954,2.652,2.5419,2.677,2.6514,2.6306,2.7209,2.7677,2.8059,2.8525,2.8372,2.8448,2.9224,2.987,3.0692,3.1728,3.3075,3.4055,3.4362,3.4486,3.5016,3.6148,3.6248,3.6848,3.8181,3.8398,3.8472,3.8472,3.8666,3.9024,3.9557,3.984,3.9988,4.0024,3.919,3.8845,3.8969,3.8268,3.7773,0.0,0.0,0.0,0.0,3.6814,3.6692,3.6467,3.632,3.6402,3.6551,3.6185,3.6408,3.6937,0.0,0.0,0.0,0.0,0.0,0.0,0.0,1.384,1.4148,1.4022,1.4629,1.5063,1.5101,1.4961,1.4907,1.5041,0.0,0.0,0.0,0.0,0.0,0.0,0.0,0.0,1.4913,1.521,1.575,1.6554,1.6569,1.6816,1.7255,1.8068,1.8372,1.8261,1.9088,1.9476,0.0,0.0,0.0,0.0,0.0,0.0,0.0,0.0,0.0,0.0,0.0,0.0,0.0,0.0,0.0,0.0,0.0,0.0,0.0,0.0,0.0,0.0,0.0,2.5236,2.5937,2.6732,2.6101,2.5444,2.6085,2.5059,0.0,2.5955,2.6195,2.6412,2.7451,2.8166,2.8611,2.8692,2.8628,2.8822,2.961,3.0004,3.0694,3.2026,3.2498,3.2996,3.3684,3.4063,3.4774,3.5992,3.6498,3.7186,3.8175,3.8643,3.8886,3.8908,3.9372,3.973,3.9886,4.0154,3.9905,3.9137,3.8882,3.8446,3.7863,3.7425,3.7313,0.0,0.0,0.0,0.0,3.6217,3.6068,3.636,3.5967,3.6144,3.6639,3.6564,3.691,3.7452,0.0,0.0,0.0,0.0,0.0,0.0,0.0,0.0,0.0,0.0,1.4769,1.4721,1.5126,1.4783,1.4527,0.0,0.0,0.0,0.0,0.0,0.0,0.0,0.0,0.0,1.5121,1.6283,1.6927,1.7042,1.7291,1.748,1.7591,1.7897,1.8206,1.8491,1.8149,1.831,0.0,0.0,0.0,0.0,0.0,0.0,0.0,0.0,0.0,0.0,2.0745,2.0655,0.0,0.0,0.0,0.0,0.0,0.0,0.0,0.0,2.2963,0.0,2.3281,0.0,2.5288,2.6055,2.5691,2.5399,0.0,2.5513,2.4821,2.5909,2.612,2.6294,2.6903,2.7881,2.8844,2.9627,2.9355,2.9248,2.9847,3.0724,3.1721,3.281,3.4078,3.4673,3.4198,3.5195,3.6152,3.6864,3.7164,3.7673,3.8535,3.8646,3.8733,3.8908,3.9033,3.9047,3.8926,3.9136,3.9396,3.9699,3.8676,3.8384,3.8681,3.7921,3.7357,0.0,0.0,0.0,3.6908,3.7138,3.7277,3.7335,3.6978,3.6915,3.697,3.6184,3.6286,3.6801,0.0,0.0,0.0,0.0,0.0,0.0,0.0,0.0,0.0,0.0,0.0,1.4202,1.4695,1.4437,0.0,0.0,0.0,0.0,0.0,0.0,0.0,0.0,0.0,1.4911,1.5601,1.6173,1.6747,1.7285,1.7352,1.7512,1.7803,1.8048,1.8174,1.8181,1.7924,1.8074,0.0,0.0,0.0,0.0,1.9821,0.0,0.0,0.0,0.0,0.0,2.081,2.0669,0.0,2.0524,2.0587,2.0703,0.0,0.0,0.0,0.0,2.239,0.0,2.2919,2.345,2.4088,2.4656,2.4418,2.428,2.517,2.4974,2.4801,2.5455,2.5942,2.6412,2.6926,2.7493,2.8295,2.9575,2.9208,2.9253,3.0551,3.1477,3.2447,3.3643,3.4689,3.5268,3.5098,3.5665,3.6399,3.7273,3.7322,3.7701,3.8606,3.8616,3.8589,3.8571,3.8571,3.8555,3.8514,3.862,3.87,3.874,3.7962,3.7784,3.8115,3.7544,3.7115,0.0,0.0,0.0,3.7056,3.7231,3.7395,3.748,3.7157,3.719,3.735,3.6822,3.6999,3.7531,0.0,0.0,0.0,0.0,0.0,0.0,0.0,0.0,0.0,0.0,0.0,0.0,0.0,0.0,0.0,0.0,0.0,0.0,0.0,0.0,0.0,0.0,1.4288,1.4868,1.6028,1.5772,1.6225,1.7425,1.7306,1.7488,1.7965,1.8412,1.8288,1.7714,1.8085,1.8311,0.0,0.0,0.0,0.0,1.9847,0.0,0.0,0.0,0.0,0.0,0.0,0.0,0.0,2.0662,2.0699,2.0778,2.1224,0.0,0.0,0.0,0.0,0.0,2.2763,2.2882,2.2995,2.3546,2.3388,2.3298,2.3881,2.4321,2.4667,2.4841,2.5711,2.653,2.6945,2.7071,2.7614,2.9197,2.9122,2.964,3.18,3.2472,3.325,3.4655,3.5163,3.557,3.6064,3.6011,3.6392,3.7469,3.7361,3.7661,3.8557,3.8602,3.8512,3.8281,3.8258,3.8273,3.8293,3.833,3.8071,3.7472,3.7386,3.7321,3.7257,3.7084,3.7018,3.7018,0.0,0.0,3.7358,3.7078,3.7149,3.7368,3.7016,3.7183,3.7635,3.7586,3.7887,3.8336,0.0,0.0,0.0,0.0,0.0,0.0,0.0,0.0,0.0,0.0,0.0,0.0,0.0,0.0,0.0,0.0,0.0,0.0,0.0,0.0,0.0,1.4756,1.5159,1.5518,1.5843,1.639,1.6935,1.7475,1.8135,1.8342,1.817,1.8865,1.8651,1.7713,1.8294,1.8486,1.8409,1.8478,1.8727,1.9154,2.0045,0.0,0.0,0.0,0.0,0.0,0.0,0.0,0.0,2.0699,2.0699,2.0713,2.0791,0.0,0.0,0.0,0.0,0.0,2.1469,2.23,2.3507,2.4644,2.4782,2.4727,2.4935,2.5034,2.4954,2.4505,2.5465,2.6268,2.5854,2.6776,2.8039,2.943,3.0695,3.2194,3.4129,3.4324,3.476,3.6126,3.6772,3.6965,3.6553,3.7139,3.7585,3.773,3.7913,3.8213,3.858,3.8602,3.858,3.8534,3.8534,3.83,3.7802,3.8091,3.8087,3.783,3.8201,3.8255,3.8026,3.8004,3.7981,3.7981,0.0,3.7746,3.7802,3.7756,3.7746,3.7772,3.7381,3.7285,3.7334,3.7041,3.6995,3.7075,0.0,0.0,0.0,0.0,0.0,0.0,0.0,0.0,0.0,0.0,0.0,0.0,0.0,0.0,0.0,0.0,0.0,0.0,0.0,0.0,1.4905,1.459,1.5434,1.6205,1.682,1.7158,1.7804,1.8744,1.9615,1.9821,1.933,1.9303,1.8762,1.7825,1.8208,1.8611,1.9003,1.9113,1.9561,2.023,0.0,0.0,0.0,0.0,0.0,0.0,0.0,0.0,0.0,0.0,2.08,2.08,2.08,0.0,0.0,0.0,0.0,0.0,2.1342,2.1864,2.264,2.3954,2.4535,2.4792,2.4863,2.4934,2.5047,2.5284,2.5893,2.6503,2.6889,2.7651,2.8766,3.0405,3.1955,3.3374,3.452,3.4969,3.5611,3.6779,3.7453,3.7778,3.7682,3.8036,3.8262,3.8236,3.8362,3.8476,3.8602,3.8688,3.8564,3.8127,3.8256,3.7975,3.7222,3.751,3.7533,3.7325,3.74,3.7467,3.7418,3.7174,3.713,3.7303,0.0,3.7233,3.6959,3.7286,3.722,3.6955,3.7244,3.7279,3.7168,3.7332,3.739,3.735,0.0,0.0,0.0,0.0,0.0,0.0,0.0,0.0,0.0,0.0,0.0,0.0,0.0,0.0,0.0,0.0,0.0,0.0,0.0,1.527,1.5205,1.4381,1.5385,1.6463,1.7511,1.7683,1.8506,2.0006,2.085,2.0934,2.0308,1.9627,1.8795,1.7912,1.8169,1.8735,1.9471,1.9861,2.0472,2.1181,0.0,0.0,0.0,0.0,0.0,0.0,0.0,0.0,0.0,0.0,0.0,0.0,0.0,0.0,0.0,2.0862,2.0712,2.0677,2.121,2.1433,2.176,2.2786,2.3677,2.4415,2.471,2.4936,2.5299,2.617,2.6484,2.6932,2.798,2.883,2.9882,3.1525,3.3116,3.4335,3.4848,3.5744,3.6617,3.738,3.7957,3.8407,3.8729,3.855,3.8434,3.8546,3.8514,3.8448,3.8359,3.863,3.8429,3.7681,3.7985,3.7712,3.6767,3.7099,3.7123,3.6796,3.6766,3.6766,3.6796,3.6436,3.6363,3.6511,3.6717,3.6528,3.6136,3.6606,3.6515,3.6171,3.6831,3.6958,3.6867,3.7469,3.7691,3.7674,0.0,0.0,0.0,0.0,0.0,0.0,0.0,0.0,0.0,0.0,0.0,0.0,0.0,0.0,0.0,0.0,0.0,0.0,0.0,1.5205,1.5007,1.4515,1.4984,1.5838,1.7018,1.7657,1.8853,2.0635,2.1138,2.1045,2.037,1.9638,1.8795,1.7922,1.8368,1.8846,1.9359,2.0069,2.0651,2.1129,2.145,0.0,0.0,0.0,0.0,0.0,0.0,0.0,0.0,0.0,0.0,0.0,0.0,0.0,2.1106,2.0735,2.0697,2.071,2.0385,2.0888,2.1511,2.1616,2.2614,2.3888,2.5063,2.5598,2.5995,2.6637,2.7013,2.7399,2.799,2.9857,3.1595,3.2462,3.4271,3.569,3.6099,3.736,3.8239,3.8298,3.8637,3.8935,3.9225,3.8354,3.7944,3.8369,3.8251,3.7965,3.7605,3.8114,3.8141,3.7524,3.8095,3.7811,3.6632,3.718,3.7251,3.6796,3.723,3.7195,3.6796,3.6774,3.6645,3.6484,3.6271,3.6136,3.6109,3.6149,3.6136,3.6109,3.6171,3.6175,3.624,3.6841,3.7063,3.7142,0.0,0.0,0.0,0.0,0.0,0.0,0.0,0.0,0.0,0.0,0.0,0.0,0.0,0.0,0.0,0.0,0.0,0.0,0.0,1.5829,1.5566,1.4716,1.5265,1.6015,1.6983,1.8272,1.984,2.1692,2.1542,2.1078,2.0321,1.9671,1.9089,1.8621,1.9387,1.9962,2.0419,2.1231,2.1712,2.1891,2.1768,2.1723,0.0,0.0,0.0,0.0,0.0,0.0,0.0,0.0,2.04,2.05,0.0,0.0,2.0966,0.0,2.0434,2.066,2.0585,2.1092,2.1707,2.2089,2.2908,2.3975,2.5294,2.617,2.7006,2.8023,2.8764,2.9476,3.0265,3.0825,3.1739,3.3365,3.4481,3.5466,3.6366,3.7274,3.7981,3.8361,3.8139,3.8318,3.922,3.8234,3.7754,3.8358,3.8336,3.8057,3.7526,3.7724,3.7561,3.6951,3.7175,3.689,3.6062,3.6259,3.6299,3.612,3.6175,3.6175,3.6099,3.5738,3.5571,3.5639,3.5614,3.5391,3.5064,3.5443,3.5378,3.5077,3.5456,3.5982,3.6515,3.636,3.6386,3.6509,0.0,0.0,0.0,0.0,0.0,0.0,0.0,0.0,0.0,0.0,0.0,0.0,0.0,0.0,0.0,0.0,0.0,0.0,1.6025,1.616,1.5968,1.5352,1.5719,1.6429,1.7519,1.8776,2.0284,2.2023,2.1726,2.0923,1.9639,1.9508,1.9136,1.8633,1.9699,2.0376,2.0766,2.1651,2.2054,2.21,2.1871,2.1788,0.0,0.0,0.0,0.0,0.0,0.0,0.0,0.0,2.0185,0.0,0.0,0.0,0.0,0.0,2.0484,2.0711,2.076,2.11,2.1587,2.2168,2.3003,2.4153,2.588,2.6647,2.7458,2.9216,3.0163,3.0943,3.1775,3.1783,3.2204,3.384,3.4825,3.5581,3.6239,3.7005,3.7588,3.7805,3.7593,3.7765,3.8664,3.7767,3.7332,3.7797,3.7818,3.7479,3.6686,3.7018,3.6856,3.6076,3.6559,3.6463,3.5698,3.6015,3.5919,3.5411,3.5377,3.5443,3.5602,3.5106,3.4942,3.5009,3.5094,3.4915,3.4606,3.5087,3.5126,3.485,3.4904,3.5544,3.6319,3.6113,3.594,3.5843,0.0,0.0,0.0,0.0,0.0,0.0,0.0,0.0,0.0,0.0,0.0,0.0,0.0,0.0,0.0,0.0,0.0,0.0,1.6324,1.6054,1.6063,1.6479,1.6294,1.6957,1.8633,1.9081,1.9975,2.1397,2.1666,2.0553,1.823,1.9093,1.8866,1.7774,1.9122,1.9851,2.0157,2.1029,2.1437,2.1505,2.164,2.1405,2.105,0.0,0.0,0.0,0.0,0.0,0.0,0.0,1.9915,0.0,0.0,0.0,0.0,2.0899,2.0888,2.0875,2.0737,2.08,2.1033,2.1561,2.2724,2.438,2.6931,2.7011,2.7308,3.0049,3.0988,3.1494,3.2092,3.2707,3.3273,3.3813,3.5405,3.6375,3.5778,3.672,3.7262,3.6659,3.7113,3.7472,3.7485,3.6937,3.6605,3.6605,3.6592,3.6076,3.4876,3.594,3.6035,3.4835,3.6405,3.6761,3.5702,3.6675,3.6379,3.4817,3.5142,3.5339,3.5386,3.5195,3.499,3.4797,3.481,3.4834,3.493,3.5192,3.5501,3.5677,3.462,3.4688,3.5462,3.6048,3.5757,3.5195,0.0,0.0,0.0,0.0,0.0,0.0,0.0,0.0,0.0,0.0,0.0,0.0,0.0,0.0,0.0,0.0,0.0,0.0,1.6879,1.5845,1.5519,1.6266,1.5468,1.5375,1.6143,1.7068,1.8515,2.0492,2.0718,2.0109,1.8764,1.9219,1.9337,1.923,2.0177,2.0524,2.0428,2.1213,2.1233,2.0742,2.0881,2.1065,2.1306,0.0,0.0,0.0,0.0,0.0,0.0,0.0,0.0,0.0,0.0,0.0,0.0,1.9813,2.0348,2.0997,2.0485,2.1101,2.1932,2.2141,2.3417,2.5206,2.7477,2.8249,2.9087,3.1277,3.1578,3.1678,3.2487,3.3127,3.3646,3.4042,3.4709,3.5113,3.4895,3.5279,3.552,3.5364,3.5445,3.5884,3.6773,3.6283,3.6092,3.655,3.6212,3.5742,3.526,3.5151,3.5093,3.502,3.55,3.559,3.5269,3.5681,3.5624,3.5161,3.511,3.4984,3.4761,3.4794,3.4882,3.503,3.5107,3.5236,3.5419,3.5579,3.5377,3.4925,3.462,3.4278,3.3998,3.4025,3.4017,3.3971,0.0,0.0,0.0,0.0,0.0,0.0,0.0,0.0,0.0,0.0,1.6267,1.6349,0.0,0.0,0.0,0.0,0.0,0.0,0.0,1.6127,1.5856,1.6374,1.5558,1.5198,1.5407,1.6401,1.7488,1.8669,1.9031,1.888,1.8268,1.8741,1.9045,1.9239,2.0129,2.0536,2.059,2.0859,2.076,2.0454,2.0691,2.095,2.1201,0.0,0.0,0.0,0.0,0.0,0.0,0.0,0.0,0.0,1.8754,1.926,1.9713,1.9451,2.005,2.0686,2.0105,2.1155,2.2403,2.2339,2.4094,2.6296,2.803,2.9775,3.1273,3.2219,3.2359,3.2494,3.3013,3.3216,3.3495,3.4103,3.4407,3.4611,3.4723,3.4719,3.4689,3.4689,3.4713,3.4955,3.5473,3.5385,3.5344,3.552,3.5327,3.4962,3.4394,3.4591,3.4538,3.4083,3.4901,3.514,3.4708,3.5528,3.5612,3.495,3.5318,3.5074,3.4353,3.4596,3.4891,3.5217,3.5082,3.5144,3.5336,3.5228,3.5127,3.5041,3.4744,3.4557,3.4353,3.4042,3.3898,3.3801,0.0,0.0,0.0,0.0,0.0,0.0,0.0,0.0,0.0,0.0,1.6521,1.6658,0.0,0.0,0.0,0.0,0.0,0.0,0.0,1.6642,1.6639,1.6725,1.6225,1.5892,1.5833,1.6557,1.6766,1.6419,1.7106,1.7345,1.7173,1.7987,1.8376,1.8426,1.9358,2.0095,2.0597,2.0174,2.0162,2.0466,2.0866,2.092,2.0846,2.1724,0.0,0.0,0.0,0.0,0.0,0.0,0.0,0.0,1.8897,1.8935,1.8895,1.9598,2.0016,2.0181,1.9837,2.1181,2.2595,2.2258,2.4626,2.7352,2.8506,3.1158,3.319,3.2552,3.3066,3.3638,3.3638,3.3291,3.3272,3.4052,3.4311,3.4534,3.476,3.4469,3.4223,3.4223,3.4424,3.4357,3.3813,3.4343,3.4479,3.3881,3.4223,3.4022,3.2954,3.4215,3.4238,3.264,3.4551,3.5059,3.3984,3.5734,3.59,3.4467,3.556,3.549,3.4438,3.4613,3.4963,3.5407,3.4854,3.484,3.5088,3.4432,3.4742,3.5594,3.4833,3.4918,3.546,3.5121,3.4643,3.4086,0.0,0.0,0.0,0.0,0.0,0.0,0.0,0.0,0.0,0.0,0.0,0.0,0.0,0.0,0.0,0.0,0.0,0.0,0.0,1.6494,1.6197,1.6989,1.596,1.5337,1.5276,1.5538,1.5725,1.58,1.713,1.772,1.7588,1.8502,1.8967,1.9016,1.9392,1.9719,1.9981,2.0004,1.9968,1.9977,2.0332,2.0455,2.0449,2.0811,2.0823,0.0,0.0,0.0,0.0,0.0,0.0,0.0,1.8125,1.8323,1.8653,1.9474,2.0178,2.0695,2.0824,2.2016,2.3007,2.2111,2.428,2.698,2.8275,3.0117,3.1341,3.0582,3.2245,3.3839,3.3839,3.4641,3.5025,3.4188,3.3983,3.3637,3.2715,3.2298,3.2059,3.2059,3.2518,3.2785,3.2646,3.362,3.4006,3.3403,3.392,3.4064,3.361,3.3889,3.385,3.3374,3.4217,3.4133,3.3008,3.3983,3.4635,0.0,3.5044,3.5763,3.6956,3.5231,3.4877,3.5606,3.5173,3.5446,3.6037,3.4469,3.4142,3.4525,3.359,3.2938,3.2606,3.3302,3.3019,3.2341,0.0,0.0,0.0,0.0,0.0,0.0,0.0,0.0,0.0,0.0,0.0,0.0,0.0,0.0,0.0,0.0,0.0,0.0,0.0,0.0,1.6584,1.7167,1.6279,1.5641,1.5344,1.5412,1.5374,1.5221,1.6678,1.7341,1.7289,1.8165,1.8806,1.9207,1.9479,1.9896,2.0346,1.9972,1.993,2.0146,2.0229,2.0216,2.0201,2.0557,2.0494,2.0203,2.0096,0.0,0.0,0.0,0.0,0.0,0.0,0.0,1.8139,1.9227,1.9831,2.0226,2.0599,2.2158,2.3715,2.4014,2.4631,2.5521,2.6887,2.782,2.8381,2.8458,3.1209,3.3523,3.3247,3.3856,3.4182,3.3457,3.2837,3.2394,3.2211,3.1676,3.1379,3.1613,3.2027,3.2193,3.1898,3.2694,3.2989,3.2369,3.2811,3.2925,3.2532,3.3239,3.3348,3.2702,3.3802,3.3991,3.3146,3.4177,3.4643,3.4485,3.5045,3.5619,3.6158,3.5802,3.53,3.4694,3.4867,3.503,3.5033,3.416,3.3738,3.3662,3.3602,3.312,3.2562,3.2996,3.2768,3.2273,0.0,0.0,0.0,0.0,0.0,0.0,0.0,0.0,0.0,0.0,0.0,0.0,0.0,0.0,0.0,0.0,0.0,0.0,0.0,0.0,0.0,1.7348,1.6912,1.6428,1.596,1.5951,1.5742,1.5342,1.6417,1.6976,1.7019,1.7786,1.8515,1.9203,1.9493,2.0053,2.0734,1.9941,1.9899,2.036,2.0166,2.0026,1.9953,2.0415,2.0243,1.9722,1.9548,1.9206,1.8793,1.8755,0.0,0.0,0.0,0.0,1.768,1.8947,1.9281,1.9414,2.0146,2.1892,2.3896,2.548,2.4668,2.3829,2.5102,2.5377,2.5698,2.6845,2.9997,3.2463,3.2188,3.2248,3.2389,3.2449,3.1526,3.1096,3.1884,3.1397,3.1089,3.1403,3.1754,3.1765,3.126,3.1765,3.1864,3.126,3.1712,3.175,3.1173,3.254,3.288,3.1903,3.3297,3.3878,3.3444,3.4597,3.4761,3.3985,3.5355,3.5492,3.4564,3.6129,3.5697,3.3783,3.4317,3.4141,3.3486,3.342,3.3138,3.2804,3.3443,3.3413,3.3026,3.3052,3.2856,3.2477,0.0,0.0,0.0,0.0,0.0,0.0,0.0,0.0,0.0,0.0,1.6924,1.7241,0.0,0.0,0.0,0.0,0.0,0.0,0.0,0.0,0.0,1.7547,1.7652,1.7585,1.7345,1.7337,1.7377,1.7493,1.7551,1.7645,1.7773,1.8398,1.8845,1.912,1.9278,1.9586,1.9942,1.9695,1.971,1.9879,1.9745,1.9592,1.9505,1.9695,1.9494,1.9123,1.9094,1.896,1.8765,1.86,1.8489,0.0,0.0,0.0,1.7683,1.8759,1.8852,1.8972,2.0555,2.1484,2.2137,2.2733,2.2779,2.2855,2.3628,2.437,2.5352,2.7009,2.8528,2.9892,3.0903,3.1023,3.1168,3.1795,3.0904,3.0097,3.0008,2.9985,2.9907,2.9673,3.0181,3.0549,3.0463,3.1051,3.1151,3.0492,3.1671,3.2091,3.1308,3.2136,3.2598,3.2481,3.2649,3.2787,3.2814,3.2941,3.3568,3.4689,3.5933,3.5974,3.503,3.5787,3.5497,3.4349,3.3754,3.3327,3.2979,3.179,3.1463,3.1636,3.107,3.0956,3.1195,3.2146,3.1946,3.1278,0.0,0.0,0.0,0.0,0.0,0.0,0.0,0.0,0.0,0.0,0.0,1.7883,0.0,0.0,0.0,0.0,0.0,0.0,0.0,0.0,0.0,1.8484,1.8402,1.8217,1.7937,1.7751,1.753,1.7283,1.7684,1.7901,1.7969,1.8657,1.9064,1.9213,1.9311,1.949,1.9735,1.9647,1.9629,1.9659,1.9496,1.9395,1.9339,1.933,1.9196,1.8993,1.8908,1.8898,1.887,1.8595,1.861,1.8755,1.8586,0.0,0.0,0.0,1.9209,1.9355,2.1515,2.1835,2.1707,2.2397,2.2083,2.1871,2.2826,2.3206,2.377,2.5298,2.5835,2.673,2.9009,2.9821,3.0045,2.9773,2.9753,2.9667,2.936,2.9263,2.9294,2.9449,2.9637,2.9853,3.0158,3.0446,3.0504,3.0217,3.0796,3.103,3.0757,3.1426,3.187,3.1985,3.2325,3.2531,3.2596,3.2932,3.3605,3.458,3.4802,3.4839,3.4715,3.4795,3.4522,3.3998,3.3984,3.3672,3.3095,3.2,3.1495,3.1294,3.0823,3.0784,3.104,3.1629,3.1679,3.1516,0.0,0.0,0.0,0.0,0.0,0.0,0.0,0.0,0.0,0.0,0.0,0.0,0.0,0.0,0.0,0.0,0.0,0.0,0.0,0.0,0.0,0.0,1.9087,1.8818,1.8453,1.8181,1.7806,1.7368,1.7951,1.8254,1.8296,1.8846,1.9148,1.9256,1.9302,1.9441,1.9617,1.9514,1.9532,1.9632,1.9367,1.9288,1.9349,1.9332,1.9262,1.9171,1.9113,1.9137,1.9118,1.8705,1.8769,1.8974,1.8817,1.846,0.0,0.0,0.0,1.9749,2.1287,2.1459,2.1294,2.1655,2.1156,2.0849,2.1943,2.2085,2.2384,2.3759,2.3891,2.4459,2.6799,2.8007,2.8609,2.8427,2.8847,2.9195,2.922,2.9135,2.9166,2.9446,2.9481,2.9637,2.9989,3.002,3.002,3.002,3.0065,3.0127,3.0235,3.0756,3.118,3.1496,3.1829,3.2163,3.2497,3.2991,3.3456,3.3918,3.3678,3.3781,3.4165,3.4033,3.3848,3.3703,3.4041,3.3737,3.2949,3.2336,3.1613,3.0865,3.072,3.0758,3.0917,3.1124,3.1459,3.1796,0.0,0.0,0.0,0.0,0.0,0.0,0.0,0.0,0.0,0.0,0.0,0.0,1.7299,1.7922,1.8174,1.7611,1.7369,0.0,0.0,0.0,0.0,0.0,0.0,0.0,1.9163,1.9016,1.8912,1.8883,1.8921,1.8983,1.9034,1.9077,1.9101,1.911,1.911,1.9237,1.9404,1.9204,1.9384,1.9743,1.9291,1.9254,1.9525,1.9822,1.9829,1.9689,1.9873,1.9819,1.9559,1.8974,1.8879,1.8974,1.8759,1.8771,1.8863,0.0,0.0,0.0,1.872,1.9523,2.0356,1.9201,1.9286,1.9863,2.0629,2.1129,2.1854,2.3321,2.377,2.3984,2.4264,2.5143,2.6565,2.8866,2.8589,2.8441,2.9435,2.9669,2.959,2.9178,2.968,2.9989,2.9838,2.9822,2.9822,2.9822,2.9989,3.0096,3.0111,3.0249,3.0704,3.1481,3.0974,3.128,3.2497,3.254,3.2569,3.2613,3.3207,3.3514,3.356,3.3922,3.4005,3.3862,3.3511,3.2905,3.216,3.2114,3.1289,3.0056,3.0056,3.0056,3.0114,3.0495,3.1048,3.1683,0.0,0.0,0.0,0.0,0.0,0.0,0.0,0.0,0.0,0.0,0.0,0.0,0.0,1.934,1.9625,1.8997,1.8857,0.0,0.0,0.0,0.0,0.0,0.0,0.0,1.9582,1.9115,1.8865,1.8865,1.8741,1.8827,1.9092,1.8841,1.8717,1.8736,1.8988,1.9139,1.9204,1.9213,1.9325,1.9465,1.93,1.9447,1.9769,1.9892,2.0017,2.0129,1.9898,1.9767,1.9563,1.8601,1.8408,1.8446,1.7861,1.7742,1.7996,1.8881,1.9766,2.0432,2.0385,2.0296,2.0157,1.992,1.9494,1.9382,2.0292,2.0967,2.1653,2.2518,2.3073,2.3408,2.3502,2.4935,2.6143,2.6207,2.7696,2.8693,2.8309,2.9032,2.9562,2.9446,2.9526,2.9652,2.9777,2.9793,2.9747,2.9682,2.9821,2.9914,2.9914,3.0082,3.035,3.0734,3.0653,3.1004,3.1844,3.1858,3.2076,3.2497,3.2745,3.3079,3.3503,3.3522,3.372,3.4005,3.3657,3.3259,3.281,3.2169,3.1608,3.1095,3.0601,3.0696,3.1169,3.1318,3.1599,3.196,0.0,0.0,0.0,0.0,0.0,0.0,0.0,0.0,0.0,1.9641,0.0,0.0,0.0,0.0,1.958,1.9225,1.964,1.9942,1.996,2.0235,0.0,0.0,0.0,0.0,1.96,1.9137,1.8893,1.8879,1.8621,1.8717,1.9092,1.864,1.8451,1.85,1.8736,1.8774,1.8688,1.8926,1.9077,1.9173,1.9266,1.9468,1.9748,1.9886,2.0017,2.0126,2.0012,1.9922,1.9729,1.886,1.8623,1.8587,1.7919,1.77,1.7985,1.9398,2.0015,2.0353,2.0745,2.0412,1.9871,1.9672,1.9209,1.8989,1.9667,2.0377,2.1066,2.1633,2.2389,2.2926,2.2872,2.4529,2.5698,2.5096,2.6925,2.8298,2.7953,2.8669,2.9316,2.9497,2.945,2.9536,2.987,2.9946,2.99,2.9788,2.9852,0.0,2.99,3.002,3.0158,3.0311,3.0492,3.0786,3.1192,3.1206,3.1424,3.1859,3.2061,3.2396,3.2833,3.2921,3.327,3.3794,3.3554,3.3407,3.3241,3.2511,3.1996,3.1649,3.1188,3.1336,3.1796,3.1796,3.1931,3.2142,0.0,0.0,0.0,0.0,0.0,0.0,0.0,0.0,2.0525,1.9696,0.0,0.0,0.0,0.0,0.0,1.8229,1.9567,2.0106,1.9367,2.0004,2.0267,1.9925,1.9835,1.9609,1.9207,1.9133,1.9069,1.8993,1.8654,1.8698,1.9073,1.8519,1.8334,1.8451,1.8324,1.8078,1.7787,1.8275,1.865,1.8931,1.92,1.9354,1.9474,1.988,1.9897,1.9764,2.0327,2.04,2.0167,1.9809,1.9594,1.9389,1.8991,1.8791,1.8947,2.0354,2.013,1.9404,0.0,0.0,0.0,1.8251,1.8251,1.8606,1.8694,1.9327,2.0076,2.0758,2.1776,2.246,2.2226,2.3615,2.5049,2.5792,2.6354,2.7133,2.844,2.8638,2.8856,2.9319,2.9508,2.9724,3.0041,3.0206,3.0235,3.0083,3.0083,3.0068,3.0039,3.0068,3.0159,3.0282,3.0478,3.0598,3.0598,3.0598,3.0598,3.0612,3.1192,3.1481,3.1525,3.2177,3.2735,3.318,3.318,3.322,3.328,3.309,3.2439,3.1589,3.1759,3.1851,3.1851,3.1851,3.1971,3.22,0.0,0.0,0.0,0.0,0.0,0.0,1.9761,2.0471,2.0711,0.0,0.0,0.0,1.9633,1.965,1.9631,1.9512,2.0098,2.0299,1.9894,2.0242,2.0376,2.0124,1.9912,1.9609,1.9207,1.9133,1.9016,1.8855,1.8289,1.8216,1.8649,1.7911,1.7571,1.7557,1.7571,1.7315,1.6924,1.7764,1.849,1.9041,1.9079,1.9619,2.0433,2.0639,2.1162,2.1734,2.1414,2.1043,2.0613,1.998,1.9169,1.8427,1.8458,1.8308,1.8398,1.9811,1.994,1.9649,1.9788,0.0,0.0,0.0,0.0,0.0,1.9058,1.938,1.9728,2.0404,2.0869,2.1221,2.144,2.2083,2.2859,2.3753,2.5301,2.6528,2.685,2.756,2.8268,2.8828,2.932,2.9609,2.9591,3.0023,3.0034,0.0,2.9605,2.9477,2.89,2.9419,2.9797,2.993,3.0365,3.0598,3.0598,3.0598,3.0598,3.0598,3.0771,3.1076,3.151,3.1699,3.2102,3.2693,3.2547,3.2679,3.3024,3.315,3.3139,3.3002,3.2913,3.2966,3.3122,3.328,3.2987,3.2532,0.0,0.0,0.0,0.0,0.0,2.0766,2.0456,2.0448,2.0393,0.0,0.0,0.0,1.9794,1.9697,1.9654,1.9782,2.0004,2.0067,1.9933,2.0089,2.0083,1.9877,1.9573,1.929,1.9044,1.8969,1.8927,1.8889,1.8072,1.7958,1.8471,1.7588,1.7201,1.7235,1.7256,1.7131,1.6945,1.73,1.8038,1.8989,1.9171,1.988,2.0808,2.0916,2.1312,2.1782,2.1557,0.0,2.1096,2.0681,1.9788,1.8852,1.8909,1.8361,1.8005,1.9612,1.9533,1.9025,1.9598,1.954,1.9253,1.9015,0.0,0.0,1.9599,1.9934,2.0308,2.132,2.1283,2.1126,2.1381,2.1707,2.2031,2.2265,2.3854,2.5112,2.5294,2.5854,2.6438,2.697,2.7959,2.8592,2.8569,2.9363,2.9784,2.9537,2.9449,2.9274,2.9001,2.9435,2.9813,3.0119,3.0498,3.0672,3.0598,3.0598,3.0598,3.0598,3.0598,3.0771,3.1119,3.1119,3.1482,3.209,3.1949,3.2326,3.3023,3.309,3.3264,3.3469,3.3448,3.3521,3.3695,3.3848,3.3479,3.2872,0.0,0.0,0.0,2.0585,2.0694,2.0687,2.0822,2.0121,1.9835,0.0,1.9536,1.8909,1.94,1.8954,1.8838,1.9416,1.9527,1.9582,1.9603,1.9654,1.9566,1.935,1.9087,1.8879,1.8765,1.8745,1.8788,1.8884,1.7962,1.7797,1.8315,1.7397,1.7055,1.7219,1.7186,1.7287,1.7465,1.6912,1.754,1.8943,1.933,2.0006,2.0837,2.0859,2.0851,2.0884,2.1273,2.147,2.1552,2.1509,2.0842,0.0,1.9902,1.8821,1.7921,1.9674,1.9133,1.8179,1.9098,1.929,1.9133,1.8747,1.8706,0.0,2.0082,2.0473,2.1001,2.2368,2.1934,2.1343,2.1504,2.1751,2.1786,2.1269,2.2206,2.3235,2.3918,2.3991,2.4152,2.4549,2.5996,2.7024,2.7148,2.8364,2.9298,2.9718,2.9304,2.9217,2.9635,2.9723,2.9988,3.0526,3.063,3.0659,3.0598,3.0598,3.0598,3.0598,3.0598,3.0598,3.0598,3.0598,3.0888,3.1394,3.1394,3.2011,3.2992,3.2849,3.3024,3.3388,3.3556,3.3712,3.3839,3.3934,3.3678,3.3247,0.0,0.0,2.0167,2.0359,2.0333,2.0056,1.9356,1.9703,1.9859,1.9284,1.9416,1.9609,1.9702,1.9471,1.9291,1.9262,1.9365,1.9334,1.9068,1.9306,1.9315,1.9011,1.9091,1.895,1.8562,1.887,1.876,1.8201,1.7841,1.7533,1.7284,1.6926,1.678,1.6823,1.6918,1.7162,1.7458,1.6818,1.7731,1.9558,1.8904,1.9562,2.0946,2.0739,2.1116,2.1764,2.1959,2.1967,2.1806,2.1107,2.0488,2.0042,0.0,0.0,0.0,1.9774,1.9596,1.9098,1.9084,1.9211,1.929,0.0,1.8774,0.0,1.9596,1.9321,1.9089,1.9739,1.93,1.9144,2.0279,2.0121,2.0113,2.1042,2.1165,2.1654,2.3161,2.3372,2.3501,2.3849,2.4897,2.5596,2.5633,2.7159,2.8021,2.7628,2.8178,2.8632,2.882,2.9188,2.9641,3.0176,3.0075,3.0192,3.0598,3.0598,3.0598,3.0598,3.0598,3.0598,3.0598,3.0598,3.067,3.0771,3.0771,3.1176,3.1852,3.2021,3.2756,3.3796,3.3827,3.392,3.4059,3.4244,3.4141,3.3763,0.0,1.9868,2.0222,1.9866,1.9979,1.9984,1.9647,1.9637,1.963,1.9567,1.951,1.9457,1.9319,1.9053,1.894,1.9035,1.9045,1.8993,1.886,1.8984,1.9012,1.8946,1.895,1.8808,1.8508,1.8538,1.8315,1.7848,1.7349,1.7026,1.6898,1.6693,1.6643,1.6709,1.7129,1.7452,1.7685,1.7451,1.8293,1.9734,1.8926,1.9595,2.108,2.0873,2.1263,2.1914,2.1985,2.2008,2.1894,2.1187,2.062,0.0,2.0673,2.0016,1.9299,0.0,2.0102,1.946,0.0,0.0,0.0,1.8894,0.0,0.0,0.0,1.9681,1.9646,2.0516,1.9865,1.9361,2.0073,1.9617,1.9385,2.0084,2.037,2.076,2.1497,2.2009,2.2484,2.299,2.3667,2.4213,2.4485,2.5584,2.6413,2.6682,2.7817,2.8676,2.9071,2.9006,2.9331,3.017,3.0042,3.0031,3.0192,3.0468,3.0598,3.0598,3.0598,3.0598,3.0598,3.0598,3.0598,3.0583,3.0492,3.0809,3.1398,3.1446,3.2221,3.3439,3.3768,3.3985,3.4068,3.3883,3.4004,3.398,1.9298,1.9783,2.0032,1.9488,1.9626,1.9919,2.0192,1.958,1.9293,1.989,1.9479,1.9053,1.8836,1.8519,1.8475,1.8812,1.8664,1.862,1.8741,1.8668,1.8664,1.875,1.8669,1.851,1.8267,1.8046,1.7808,1.7523,1.6858,1.6595,1.671,1.6552,1.6627,1.6919,1.7576,1.7995,1.8203,1.8378,1.9007,1.982,1.9175,1.9765,2.1042,2.098,2.1249,2.171,2.1902,2.1888,2.1758,2.1432,2.0907,2.0474,2.0966,2.0306,0.0,0.0,0.0,0.0,0.0,0.0,0.0,0.0,0.0,1.8907,0.0,0.0,0.0,2.1284,2.0588,1.9841,1.9978,1.9396,1.8946,1.9081,1.9712,2.0134,1.9897,2.0617,2.134,2.1848,2.2299,2.2742,2.3175,2.397,2.4999,2.6271,2.7607,2.8657,2.9328,2.8998,2.9258,3.0268,3.0185,3.0087,2.9988,3.0425,3.0642,3.0598,3.0598,3.0598,3.0598,3.0598,3.0598,3.0583,3.0432,3.0659,3.1164,3.1091,3.1656,3.2673,3.3462,3.3905,3.4053,3.36,3.3741,3.3876,2.0251,1.9879,1.9557,1.9725,1.9431,1.9306,1.9638,1.9304,1.8968,1.8817,1.8817,1.8855,1.8898,1.864,1.8523,1.8621,1.8285,1.821,1.8503,1.8421,1.8208,1.7864,1.8171,1.8063,1.7453,1.7633,1.7462,1.69,1.6752,1.6595,1.6436,1.6414,1.6829,1.76,1.8231,1.8769,1.9244,1.9322,1.9656,2.0117,1.954,1.9804,2.051,2.0747,2.1005,2.1382,2.2205,2.191,2.1176,0.0,2.1141,2.0485,0.0,2.0598,1.9965,2.0233,0.0,0.0,0.0,0.0,0.0,0.0,1.8866,0.0,0.0,0.0,1.8758,1.8612,0.0,1.8532,1.9193,0.0,0.0,1.8627,1.914,1.9485,1.9393,1.9924,2.0275,2.0102,2.0665,2.1076,2.113,2.2649,2.4361,2.608,2.7039,2.7841,2.8509,2.9137,2.9736,3.0283,3.0284,3.0408,3.0675,3.0762,3.0717,3.0598,3.0598,3.0598,3.0598,3.0598,3.0598,3.0598,3.0568,3.0611,3.0712,3.1092,3.1345,3.1605,3.2815,3.3621,3.4113,3.4225,3.3876,3.3208,1.9568,1.9562,1.948,1.9207,1.922,1.9321,1.9465,1.9144,1.8769,1.8475,1.877,1.8975,1.8868,1.909,1.9163,1.891,1.8767,1.8615,0.0,1.8484,1.8338,1.7881,1.8146,1.7997,1.7313,1.7298,1.7058,1.6563,1.638,1.6411,1.6643,1.6788,1.73,1.8118,1.829,1.8708,1.9291,1.9597,2.0029,2.0472,2.0322,2.0437,0.0,2.0765,2.1152,2.1701,2.2021,2.2058,2.1924,0.0,2.1573,0.0,0.0,0.0,0.0,2.0888,0.0,0.0,0.0,0.0,0.0,0.0,0.0,0.0,1.8476,0.0,1.8437,0.0,0.0,0.0,0.0,0.0,0.0,0.0,1.8924,1.9305,1.9352,1.9985,2.0462,2.0551,0.0,0.0,2.1323,2.2944,2.425,2.4925,2.5823,2.6778,2.7771,2.784,2.8476,2.9856,2.9776,2.9948,3.0397,3.0207,3.0264,3.0598,3.022,3.0249,3.0717,3.0836,3.0895,3.088,3.0762,3.0777,3.0895,3.0978,3.1267,3.1753,3.2292,3.2946,3.3537,3.3161,3.3089,3.2941,1.9135,1.9325,1.9423,1.9044,1.9206,1.9358,1.9256,1.8907,1.8609,1.8466,1.8817,1.9079,1.9062,1.9478,1.9571,1.9061,1.9034,1.882,0.0,0.0,1.8351,1.7795,1.8026,1.7808,1.704,1.7039,1.6798,1.6295,1.6426,1.6617,1.6861,1.7284,1.7866,1.8573,1.8665,1.8918,1.9296,1.9875,2.0213,2.0359,2.0492,2.0585,2.0678,2.0784,2.1344,2.2063,2.2077,2.2201,2.2279,2.1589,2.1785,0.0,2.1222,0.0,2.1321,0.0,0.0,0.0,1.9492,0.0,0.0,0.0,0.0,0.0,0.0,0.0,0.0,0.0,0.0,0.0,0.0,0.0,1.8213,1.8275,0.0,1.9111,1.9224,1.9927,2.059,2.0966,0.0,0.0,0.0,2.3083,2.3899,2.4109,2.4822,2.5708,2.6792,2.6869,2.7632,2.9279,2.9517,2.9898,3.0423,2.9972,3.0061,3.0732,3.0017,3.0105,3.0895,3.1028,3.1102,3.1102,3.0955,3.0969,3.1102,3.094,3.1234,3.1765,3.1942,3.2474,3.3071,3.2416,3.2398,3.2423,1.9536,1.9334,1.925,1.9606,1.9527,1.9274,1.8879,1.8519,1.8428,1.8739,1.8803,1.9027,1.9605,1.9686,1.9453,1.8861,0.0,1.8496,1.821,0.0,1.7984,1.7266,1.7604,1.7359,1.6352,1.6903,1.6816,1.601,1.7174,1.7491,1.7011,1.7797,1.8466,1.9008,1.9725,1.9799,1.9446,2.0308,2.0192,1.9445,1.9589,1.981,2.0092,0.0,2.1433,2.2242,2.2629,0.0,0.0,2.212,2.1636,0.0,0.0,0.0,0.0,0.0,0.0,0.0,0.0,0.0,0.0,1.9253,0.0,0.0,0.0,0.0,1.8493,0.0,0.0,0.0,0.0,1.8394,1.8312,1.8043,1.8465,0.0,0.0,1.951,2.022,2.0747,0.0,0.0,0.0,2.2526,2.3005,2.4105,2.4292,2.4672,2.5414,2.6807,2.7887,2.8607,2.982,3.0722,3.1262,3.0481,3.0424,3.1073,3.0265,3.0309,3.1102,3.1102,3.1102,3.1102,3.1102,3.1102,3.1102,3.1102,3.1117,3.1191,3.1765,3.2413,3.297,3.2768,3.2121,3.1379,0.0,1.951,1.9385,1.9197,1.9189,1.9045,1.8543,1.8713,1.8773,0.0,1.9456,0.0,0.0,2.0767,2.0942,0.0,0.0,1.9557,1.8533,1.8976,0.0,0.0,0.0,1.8057,1.6912,1.7435,1.75,1.7059,1.7471,1.7848,1.8189,1.8204,1.8672,1.9509,1.9055,1.8947,1.9158,1.9591,1.9735,1.9679,1.9855,1.9883,1.9794,0.0,2.0603,2.1938,2.2086,2.2679,0.0,2.2702,2.2889,2.3139,2.1753,2.1477,2.1655,2.1641,2.0705,0.0,0.0,0.0,2.0577,2.0066,0.0,0.0,0.0,0.0,0.0,0.0,0.0,0.0,0.0,1.8394,1.8431,1.852,1.9129,1.962,0.0,2.0504,2.1218,2.1603,2.1764,2.2047,0.0,0.0,2.3282,2.3585,2.3755,2.4287,2.5337,2.6377,2.7647,2.9219,2.9586,3.0012,3.0495,2.9704,2.9633,3.0294,3.0117,3.0453,3.1234,3.1322,3.1366,3.1366,3.1366,3.1366,3.1366,3.1366,3.1366,3.138,3.1589,3.1694,3.175,3.187,3.1991,3.1939,1.9646,1.9468,1.9245,1.8917,1.8722,1.8614,0.0,0.0,0.0,0.0,2.0059,0.0,2.0578,0.0,2.1638,0.0,2.0678,2.0261,1.9398,1.9741,0.0,1.7711,1.8382,0.0,0.0,0.0,1.7771,1.7326,1.8032,1.8536,1.8821,1.8742,1.909,1.9773,1.8975,1.8739,1.8946,1.9118,1.9191,1.9215,1.9543,1.9573,0.0,0.0,2.0128,2.1412,0.0,2.2535,2.3448,2.309,2.3459,2.3859,2.2537,2.2287,2.2497,2.2496,2.1733,2.1042,2.1748,2.1934,0.0,2.1332,2.1783,0.0,2.0862,0.0,0.0,0.0,0.0,0.0,0.0,1.8692,1.8839,1.9118,1.9669,2.0182,0.0,2.1236,2.1799,2.2007,2.191,2.2038,2.2575,2.2947,2.3213,2.3359,2.3494,2.4,2.5037,2.6048,2.7278,2.8778,2.9204,2.9659,3.017,2.9366,2.9484,3.0468,3.026,3.0582,3.138,3.1452,3.1511,3.1511,3.1511,3.1511,3.1511,3.1511,3.1511,3.1511,3.1511,3.1441,3.1352,3.1362,3.1592,3.1747,0.0,1.9213,1.8884,1.8836,1.8218,0.0,0.0,0.0,1.8711,0.0,2.0602,2.1021,2.0983,2.1539,2.1518,2.0618,2.0547,2.058,2.0678,2.0446,0.0,0.0,1.8591,1.7797,1.6357,0.0,0.0,0.0,0.0,1.9471,1.8946,1.9355,1.963,1.976,1.9524,1.9194,1.8798,1.8956,1.8688,1.8178,1.8687,1.8919,1.9023,1.9534,2.0074,2.0699,2.1541,2.1989,2.2339,2.3309,2.3378,2.3082,2.3224,2.2942,2.2589,2.2643,2.2603,2.259,2.2764,2.3487,2.396,2.3004,0.0,0.0,0.0,0.0,2.0728,0.0,0.0,0.0,0.0,0.0,1.9497,1.9734,2.0029,2.0472,2.1138,2.1645,2.1926,2.1888,2.1763,2.1899,2.2462,2.2506,2.2799,2.345,2.3498,2.3811,2.4528,2.5869,2.6884,2.7431,2.8705,2.9658,3.0239,2.9477,2.9887,3.1436,3.0711,3.0755,3.1511,3.1511,3.1511,3.1511,3.1511,3.1511,3.1511,3.1496,3.1496,3.1511,3.1467,3.1575,3.1698,3.1308,3.1013,3.082,1.9763,1.9228,1.8966,0.0,1.869,1.8336,0.0,0.0,0.0,0.0,2.0599,2.1179,2.0871,2.135,2.153,2.1196,2.1072,0.0,0.0,0.0,0.0,1.935,1.9299,1.8933,1.8152,1.8721,1.889,1.8579,0.0,1.9334,1.9559,1.9086,1.9093,1.9511,1.9637,1.9306,1.8689,1.9216,1.9161,1.8713,1.8839,1.9344,2.0013,0.0,2.0181,2.0609,2.1929,2.2912,2.3646,2.4008,2.3984,2.3867,2.4083,2.3911,2.3798,2.475,2.4107,2.3284,2.4176,2.4313,2.4109,2.3771,2.4163,2.4276,0.0,0.0,0.0,0.0,0.0,0.0,0.0,0.0,0.0,1.9522,2.0156,2.0907,2.1684,2.1476,2.136,2.1641,2.144,2.1615,2.2566,2.2646,2.2915,2.3532,2.3527,2.4037,2.5242,0.0,0.0,2.8112,2.8726,2.9158,2.9404,2.92,2.9608,3.0607,3.1006,3.1288,3.1511,3.1511,3.1511,3.1511,3.1511,3.1511,3.1496,3.1394,3.1409,3.1467,3.1014,3.0884,3.1087,3.1844,3.1732,3.1217,2.0117,0.0,0.0,1.903,0.0,0.0,1.9001,1.981,0.0,1.9981,2.1047,0.0,2.0474,2.1084,2.1361,2.0922,2.1019,0.0,2.1109,0.0,0.0,1.992,1.9643,1.9171,1.8461,1.856,0.0,1.8858,0.0,1.9097,1.9695,1.9067,1.9199,1.9922,1.9908,1.9677,1.9365,1.9557,1.9485,1.9264,1.947,1.9895,0.0,2.0529,2.0806,2.1266,2.2176,2.2862,2.3389,2.397,2.4308,2.4522,2.4666,2.4579,2.4613,2.5467,2.5024,2.4435,2.5191,2.5177,2.4928,2.4846,2.5064,2.5028,2.4035,2.3781,2.3431,0.0,0.0,0.0,0.0,0.0,0.0,2.0386,2.0858,2.1372,2.1758,2.155,0.0,2.1619,2.1236,2.142,2.2587,2.2703,2.2817,2.3097,2.3385,0.0,0.0,0.0,0.0,2.8378,2.8732,2.9035,2.9314,2.9455,2.9863,3.0527,3.1187,3.1511,3.1511,3.1511,3.1511,3.1496,3.1278,3.119,3.1175,3.0881,3.0822,3.0866,3.0553,3.0617,3.0982,3.1978,3.1919,3.1377,0.0,0.0,0.0,0.0,0.0,0.0,0.0,2.0467,0.0,2.0745,0.0,2.1598,2.0089,2.072,2.0966,2.0207,0.0,2.1197,2.1714,2.1312,2.0859,2.0472,1.9759,1.9004,1.8237,1.7922,1.8018,0.0,0.0,1.8902,1.9565,1.9258,1.963,2.0542,2.03,2.026,2.0305,1.9872,1.9703,1.9779,2.0217,2.0431,2.0561,2.1029,2.153,2.2021,2.2267,2.2436,2.2694,2.3628,2.4433,2.5028,2.4961,2.4963,2.5061,2.5369,2.5481,2.555,2.5784,2.5866,2.5893,2.5893,2.5893,2.5725,2.5081,2.4851,2.4433,2.3219,2.2803,2.253,0.0,0.0,0.0,2.1882,2.1877,0.0,0.0,0.0,2.1885,2.195,2.1417,0.0,2.2518,2.2507,2.2457,2.2527,2.3097,0.0,0.0,0.0,0.0,2.8363,2.8732,2.9098,2.9493,0.0,3.0264,3.0703,3.1117,3.1351,3.1409,3.1351,3.1322,3.1292,3.0896,3.0718,3.0673,3.0251,3.0065,3.01,3.0265,3.0649,3.1203,3.1868,3.1842,3.15,0.0,0.0,0.0,0.0,0.0,2.1069,2.0927,2.147,2.1939,2.2047,2.1439,2.0875,2.0579,2.028,2.004,1.9888,2.041,0.0,0.0,0.0,0.0,2.0709,1.9761,1.9262,1.9318,1.8944,1.8798,0.0,0.0,1.9087,1.9446,1.9593,1.9888,2.0296,2.1009,2.103,2.0505,1.9942,0.0,1.9903,2.0262,2.068,2.1075,2.1167,2.1269,2.1431,2.1959,2.2887,2.3849,2.3716,2.4341,2.51,2.4711,2.4779,2.5033,2.5202,2.5369,2.5508,2.5564,2.5729,2.5893,2.5893,2.5893,2.5671,2.4788,2.5159,2.5326,2.4123,2.4009,2.3861,2.3032,0.0,0.0,0.0,0.0,0.0,0.0,0.0,0.0,2.3241,2.2769,2.2319,2.2229,2.151,2.1505,2.2582,2.2673,2.3293,0.0,0.0,0.0,0.0,2.8732,0.0,0.0,0.0,2.9841,3.015,3.0283,3.0553,3.0911,3.0523,3.0342,3.0342,3.0266,3.0206,3.0191,2.9947,2.9917,3.0079,3.0693,3.1064,3.1346,3.1964,3.2131,3.2079,0.0,0.0,0.0,0.0,0.0,0.0,0.0,2.2242,2.2392,2.1617,2.0985,2.028,1.9448,1.9372,1.9467,1.9683,2.0211,2.0745,2.1237,2.1024,2.0897,2.0952,2.0038,1.957,1.9695,1.8632,1.839,1.9052,0.0,0.0,1.9761,2.0137,2.053,2.0935,2.121,2.1362,2.1377,0.0,0.0,2.0687,2.0776,2.0971,2.119,2.119,2.119,2.1285,2.2002,2.2991,2.3969,2.4126,2.4953,2.587,2.5535,2.533,2.525,2.5495,2.5566,2.5512,2.5382,2.5823,2.6252,2.5963,2.5895,2.5783,2.5326,2.5328,2.5231,2.4458,2.4409,2.4323,2.3735,2.3156,0.0,0.0,0.0,0.0,0.0,0.0,2.3037,0.0,2.3028,2.2721,2.3279,2.2405,2.2063,2.2697,2.3073,2.3803,2.4997,0.0,2.6661,0.0,0.0,0.0,0.0,0.0,0.0,2.9628,2.9948,3.0206,3.0433,3.0191,3.0099,3.0068,2.9501,2.9619,3.0161,3.0114,3.0331,3.0702,3.1076,3.143,3.1807,3.2092,3.22,3.2218,0.0,2.1475,0.0,0.0,2.1603,2.1871,2.1839,2.2262,2.2181,2.1134,2.0546,1.9747,1.8467,1.8571,1.8895,1.9307,1.9908,2.062,2.1472,2.1538,2.1432,2.1202,2.0402,1.9889,1.9791,1.8298,1.793,0.0,0.0,0.0,0.0,2.0555,2.1204,0.0,0.0,0.0,0.0,0.0,2.1016,2.1284,2.1254,2.1237,2.119,2.119,2.119,2.1285,2.192,2.2833,2.3801,2.4328,2.5404,2.6505,2.6354,2.5959,2.5618,2.5751,2.579,2.5704,2.5343,2.5954,2.66,2.6184,2.6077,2.6007,2.584,2.5491,2.5083,2.4692,2.4666,2.4617,2.4312,2.401,0.0,0.0,0.0,0.0,0.0,0.0,2.3758,0.0,2.3421,2.3312,2.4375,0.0,0.0,0.0,2.3781,2.4444,2.5464,2.5515,2.6564,0.0,0.0,2.8813,2.9672,0.0,2.9593,2.8967,2.953,2.9704,2.9593,2.9594,2.9563,2.939,2.8673,2.9002,3.0075,3.0307,3.0758,3.13,3.13,3.1671,3.22,3.22,3.2182,3.2146,0.0,0.0,0.0,0.0,0.0,0.0,2.0698,2.0752,2.1106,2.1866,2.0414,1.9248,1.9114,1.8323,1.8007,1.8461,1.9272,2.0112,2.0914,2.0965,2.1122,2.146,2.0804,2.0247,1.9818,1.8924,1.8321,0.0,0.0,1.8955,0.0,0.0,0.0,0.0,0.0,0.0,0.0,2.1548,2.1354,2.0963,2.1249,2.1305,2.119,2.119,2.119,2.1206,2.1285,2.2376,2.381,2.3873,2.496,2.631,2.6307,2.6254,2.6108,2.5603,2.5907,2.6264,2.5568,2.604,2.6679,2.664,2.664,2.6416,2.5638,2.5641,2.5656,2.5071,2.5188,2.5272,2.4824,2.4214,2.3932,0.0,0.0,0.0,0.0,0.0,2.4759,2.5039,0.0,2.472,2.443,2.4858,0.0,0.0,2.4587,2.4467,2.553,2.5533,2.6415,2.8398,0.0,2.8366,2.8295,2.9018,2.8857,2.7861,2.8462,2.8452,2.794,2.799,2.7742,2.7306,2.7704,2.8508,2.9617,3.0175,3.0758,3.13,3.13,3.1671,3.22,3.22,3.2073,3.1927,0.0,0.0,0.0,0.0,0.0,0.0,0.0,2.0205,2.029,2.0312,1.938,1.8576,1.8159,1.8044,1.8275,1.8945,1.9698,2.0455,2.1272,2.1428,2.1359,2.109,2.0579,2.0097,1.9636,1.8867,1.8487,0.0,0.0,0.0,0.0,0.0,0.0,0.0,0.0,2.139,2.1573,2.1402,2.129,2.1218,2.1354,2.1257,2.1031,2.1142,2.119,2.1301,2.2063,2.2782,2.3535,2.4579,2.5871,2.7013,2.7013,2.6983,2.6847,2.63,2.6228,2.622,2.5468,2.6031,2.6702,2.6264,2.642,2.6511,2.5803,2.5748,2.576,2.5535,2.5394,2.5358,2.5433,2.5007,2.4798,0.0,0.0,0.0,0.0,0.0,0.0,2.5214,0.0,2.4772,2.4711,2.4984,0.0,0.0,0.0,2.4893,2.5506,2.5096,0.0,2.7745,0.0,2.7812,2.8331,2.8909,2.8698,2.7772,2.8291,2.8512,2.8426,2.8445,2.7988,2.7272,2.8731,2.9233,2.915,3.0797,3.163,3.1847,3.1847,3.1983,3.22,3.2055,3.1963,3.1872,2.0335,0.0,2.0098,0.0,1.9679,1.9593,1.9317,1.9387,1.9282,1.8697,1.8344,1.7964,1.7506,1.7807,1.833,1.9033,1.9765,2.0584,2.1483,2.1612,2.151,2.1145,2.063,0.0,1.9625,1.8983,1.8691,1.8743,1.9415,0.0,0.0,0.0,0.0,0.0,2.0981,2.1205,2.1804,2.1531,2.1411,2.1427,2.1598,2.138,2.093,2.1282,2.1404,2.1513,2.242,2.2943,2.3401,2.4794,2.6066,2.7131,2.7352,2.7393,2.7267,2.6818,2.6663,2.6493,2.5832,2.6304,2.6899,2.6425,2.6621,2.6778,2.6203,2.6057,2.6004,2.5848,2.5644,2.5562,2.568,2.5384,2.5286,2.5715,0.0,0.0,0.0,2.5162,0.0,2.5265,2.5002,2.4954,2.541,2.5297,0.0,0.0,0.0,0.0,0.0,0.0,0.0,0.0,0.0,0.0,0.0,2.8839,2.8631,2.7714,2.8374,2.8608,2.8484,2.8484,2.8158,2.7681,2.9341,2.9803,2.9494,3.1332,3.2187,3.2322,3.2145,3.2186,3.2304,3.1983,3.1947,3.2005,1.9492,1.8684,1.8164,1.8215,1.8234,1.8182,1.8031,1.8025,1.7889,1.7556,1.7512,1.7538,1.7589,1.7658,1.7906,1.8372,1.9219,2.0198,2.1322,2.123,2.1345,0.0,0.0,2.0518,1.9916,1.9497,1.9,1.8399,0.0,0.0,1.9123,0.0,2.0196,2.1573,2.0977,2.1222,2.2104,2.2155,2.1882,2.1466,2.2119,2.1788,2.0964,2.1639,2.1883,2.1896,2.1906,2.2552,2.3487,2.4022,2.5068,2.6244,2.6971,2.7192,2.7173,2.6966,2.718,2.7376,2.6834,2.698,2.7323,2.7443,2.7477,2.735,2.6808,2.6693,2.652,2.5926,2.6054,2.6076,2.5339,2.5094,2.5118,2.5453,0.0,0.0,0.0,2.5714,0.0,2.5336,2.5245,2.561,2.6675,2.6057,0.0,0.0,0.0,0.0,0.0,0.0,0.0,2.7183,2.8294,0.0,2.7921,2.8699,2.856,2.7528,2.8582,2.8541,2.7508,2.7508,2.7797,2.8326,2.9013,2.9918,3.0921,3.1561,3.2146,3.2617,3.2041,3.2179,3.2617,3.2009,3.2038,3.2345,1.8798,1.8254,1.7914,1.774,1.7717,1.7663,1.7474,1.7581,1.7625,1.7505,1.7505,1.7465,1.7347,1.7666,1.7903,0.0,1.8755,1.9532,0.0,2.0334,2.0484,2.0677,2.0227,1.984,1.9511,1.9286,1.9068,1.8878,0.0,0.0,0.0,2.0556,2.087,2.1203,2.1223,2.1447,2.1772,2.2036,2.1805,2.1296,2.1601,2.1523,2.1326,2.2043,2.2589,2.3103,2.3912,2.4419,2.4773,2.526,2.5701,2.6135,2.6683,2.7011,2.72,2.7126,2.6966,2.6846,2.6996,2.7128,2.7205,2.7111,2.7302,2.7363,2.6821,2.6974,2.7193,2.701,2.7077,2.7033,2.6583,2.6499,2.6399,2.6087,2.5841,0.0,0.0,0.0,2.6482,2.7013,2.7015,2.6983,2.7002,2.6105,0.0,0.0,0.0,0.0,0.0,0.0,0.0,0.0,2.7628,0.0,2.8179,2.893,2.8886,2.806,2.8768,2.8992,2.8801,2.8801,2.8702,2.8642,2.9863,3.0388,3.0433,3.1406,3.1909,3.2078,3.1888,3.1929,3.2096,3.218,3.2288,3.2363,1.8364,1.7999,1.7704,1.7345,1.7404,1.7415,1.7125,1.7185,1.7271,1.7271,1.7271,1.7237,1.7107,1.7392,0.0,1.7586,1.8452,1.9032,1.9133,1.9504,1.9731,1.9731,1.9528,1.9324,1.9119,1.9142,0.0,1.8991,1.9862,2.0403,2.0662,2.092,2.1073,2.1157,2.1207,2.1537,2.2071,2.2388,2.2304,2.1988,2.226,2.2296,2.2241,2.2766,2.3425,2.4177,2.4784,2.5214,2.5569,2.609,2.6264,2.6353,2.6837,2.7209,2.7404,2.7329,2.7064,2.6884,2.732,2.7374,2.7343,2.744,2.7718,2.7839,2.7426,2.7419,2.749,2.749,2.7444,2.735,2.7142,2.6971,2.6847,2.6826,2.6344,2.6141,2.6573,0.0,2.6737,0.0,0.0,0.0,0.0,2.6438,2.5773,0.0,0.0,0.0,0.0,0.0,0.0,2.8145,2.8087,0.0,2.9194,2.9385,2.928,2.8881,2.92,2.9312,2.9229,2.9441,2.9261,2.8831,2.9992,3.042,3.033,3.1056,3.1474,3.1663,3.1449,3.1616,3.2028,3.205,3.235,3.27,1.8161,1.7795,1.7476,0.0,1.7193,0.0,1.6928,1.6874,1.6874,1.6874,1.6891,1.6908,1.6908,1.6908,1.7008,1.7301,0.0,0.0,0.0,1.8785,1.9044,1.9081,1.9081,1.8992,1.8774,1.9075,1.9119,1.8858,2.0018,2.0537,2.0438,2.0594,2.0945,2.1418,2.1072,2.1611,2.2778,2.3035,2.3137,2.3166,2.3646,2.3672,2.347,2.3612,2.4273,2.5084,2.4768,2.5197,2.5968,2.6564,2.6771,2.6847,2.7389,2.7685,2.7798,2.7583,2.7436,2.7419,2.7739,2.7689,2.7667,2.8212,2.8462,2.8535,2.8355,2.7924,2.7525,2.7503,2.7344,2.7184,2.7144,2.6747,2.671,2.7559,2.7004,2.6712,2.7434,0.0,2.6655,0.0,0.0,0.0,0.0,2.7084,2.6761,0.0,0.0,0.0,0.0,0.0,2.7811,2.8789,2.9458,3.0095,3.0692,2.9973,2.9671,2.9809,2.9796,2.9515,2.8982,2.9553,2.9503,2.8994,2.9591,3.0139,3.0607,3.0607,3.0927,3.1375,3.0826,3.1303,3.2209,3.1658,3.2224,3.3174,0.0,0.0,1.682,1.6888,1.685,1.6738,1.6482,1.656,1.6664,1.6664,1.6795,1.6908,1.6908,1.6908,1.6812,1.6574,1.6904,1.7405,1.8044,1.8153,1.8391,1.8838,1.8875,1.8774,1.8583,1.8647,1.8921,1.9407,2.0163,2.0634,2.0871,2.1207,2.1486,2.1707,2.1924,2.2139,2.2352,2.2571,2.2549,2.2349,2.2168,2.2463,2.3079,2.3363,2.4213,2.534,2.6143,2.6552,2.6768,2.7178,2.7311,2.7402,2.7994,2.8224,2.8183,2.7824,2.7776,2.7871,2.7984,2.7984,2.7908,2.7756,2.756,2.7437,2.7543,2.7764,2.7872,2.7548,2.7893,2.8059,2.7522,2.7632,2.7782,2.7656,2.787,2.8006,2.7897,2.7826,0.0,0.0,2.8211,2.8498,2.861,2.8238,2.7824,0.0,0.0,0.0,0.0,2.8441,2.9247,3.005,2.9949,3.0118,3.0624,2.9976,2.9722,2.9802,2.9806,2.9729,2.9591,2.9729,2.9716,2.961,3.0177,3.0488,3.0607,3.0607,3.0683,3.0801,3.0671,3.0772,3.1029,3.0922,3.1617,3.2541,1.8399,1.7935,1.7383,1.6971,1.6892,1.6776,1.6482,1.6455,1.6508,1.6586,1.6621,1.663,1.663,1.663,1.654,1.6323,1.6396,1.668,1.7189,1.7365,1.7665,1.8175,1.8438,1.8472,1.8279,1.8411,1.8849,1.9596,2.0108,2.0613,2.1101,2.1607,2.1811,2.1807,2.212,2.232,2.2454,2.2736,2.2828,2.2762,2.2459,2.2889,2.3705,2.3551,2.4366,2.5634,2.607,2.6397,2.6722,2.7349,2.7592,2.7768,2.8556,2.8974,2.9083,2.8628,2.8345,2.8152,2.8,2.803,2.8146,2.836,2.8161,2.7983,2.8241,2.8125,2.7962,2.7997,2.8317,2.8391,2.7764,2.7753,2.7695,2.7259,2.7335,2.7582,2.7952,2.8053,0.0,2.8407,2.891,2.9139,2.8826,2.8978,2.8831,2.8166,2.848,0.0,2.8645,2.9907,3.0751,3.1035,3.051,3.062,3.1414,3.055,2.9997,2.9792,2.9792,2.9654,2.9402,2.9666,2.9641,2.9434,2.9986,3.0228,3.0228,3.0228,3.0228,3.0203,2.9935,2.9933,3.0061,2.9857,3.0361,3.1145,1.8399,1.8393,1.8044,1.6973,1.6928,1.6911,1.6544,1.635,1.6342,1.6508,1.6394,1.6289,1.6289,1.6289,1.6289,1.6289,1.6235,1.6256,1.6344,1.6577,1.6952,1.7486,1.7906,1.8092,1.7991,1.8373,1.8867,1.949,1.997,2.0543,2.1238,2.1833,2.2035,2.1902,2.212,2.2384,2.2684,2.3057,2.3335,2.3501,2.3353,2.379,2.4468,2.3893,2.4515,2.5652,2.5388,2.5748,2.6454,2.7316,2.7782,2.819,2.9134,2.9727,3.0009,2.9549,2.907,2.8568,2.8144,2.8116,2.8384,2.9171,2.9106,2.8949,2.9255,2.8661,2.8124,2.8521,2.8643,2.8528,2.8031,2.7715,2.7441,2.7103,2.684,2.6975,2.7867,0.0,2.8248,2.8567,2.9049,2.9283,2.9029,2.9534,2.9748,2.9481,3.0207,3.0562,3.032,3.1309,3.1858,3.1807,3.112,3.1145,3.2005,3.0996,3.0247,2.9792,2.9792,2.9528,2.9057,2.9566,2.9528,2.907,2.9578,2.9792,2.9792,2.9792,2.9792,2.969,2.9094,2.9044,2.9241,2.864,2.8829,2.9557,1.7413,1.7143,1.6774,1.6298,1.6246,1.6193,1.5964,1.6035,1.6132,1.6167,1.6254,1.6289,1.6289,1.6289,1.6289,1.6289,1.5995,1.6,1.6512,1.6123,1.6377,1.7449,1.7415,1.758,1.7991,1.854,1.8892,1.9013,1.9803,2.0612,2.1376,2.1866,2.2176,2.2327,2.2703,2.2703,2.2459,2.2703,2.2908,2.3113,2.3242,2.3501,2.3783,2.3961,2.4317,2.4766,2.5152,2.5992,2.6948,2.7442,2.8257,2.9164,2.9787,3.0022,3.0074,2.9996,2.9923,2.9714,2.9223,2.8841,2.8619,2.872,2.8497,2.8299,2.8527,2.8792,2.8905,2.8656,2.8871,2.8969,2.8554,2.8564,2.8665,2.8721,2.901,2.8943,2.8122,0.0,2.8604,2.8164,2.9072,2.9665,2.9508,3.0182,3.0487,3.0166,3.038,3.0897,3.1731,3.1229,3.134,3.2262,3.1685,3.0987,3.0209,3.003,2.9876,2.9792,2.9792,2.9741,2.9666,2.9754,2.9741,2.9666,2.9754,2.9792,2.9792,2.9792,2.9682,2.9408,2.8923,2.8623,2.8367,2.7384,2.767,2.8608,1.6755,1.6533,1.6214,1.5845,1.5694,1.5585,1.5479,1.5453,1.5604,1.6044,1.6052,1.6035,1.6035,1.6217,1.6181,1.5753,1.5823,1.6024,1.6313,1.6146,1.652,1.7605,1.7845,1.8171,1.8636,1.8944,1.9166,1.929,1.9688,2.0468,2.1618,2.1619,2.1767,2.203,2.2248,2.2171,2.1893,2.2352,2.259,2.2721,2.3131,2.3494,2.3776,2.3925,2.4436,2.5015,2.4788,2.5678,2.7005,2.7455,2.843,2.9588,3.0356,3.0594,3.0594,3.0594,3.0163,2.965,2.9588,2.9519,2.9453,2.943,2.9144,2.8908,2.9101,2.9076,2.9088,2.9214,2.9391,2.9366,2.8859,2.9067,2.9247,2.9026,2.9394,0.0,0.0,2.9583,2.9796,2.9881,3.0374,3.068,3.063,3.0865,3.0957,3.0789,3.1139,3.1316,3.1186,3.1153,3.0967,3.0579,3.0853,3.0614,2.9811,2.9792,2.9792,2.9792,2.9436,2.9248,2.926,2.8882,2.8712,2.8732,2.9111,2.9072,2.8752,2.9111,2.8981,2.8501,2.7982,2.7608,2.7319,2.6793,2.6895,2.7405,1.5876,1.5797,1.5562,1.524,1.5043,1.4937,1.4937,1.4929,1.5117,1.5736,1.5806,1.5849,1.5996,1.6195,1.6131,1.5658,1.5893,1.6135,1.6273,1.6387,1.6895,1.7902,1.8513,1.8984,1.9294,1.9431,1.9576,1.9746,1.98,2.0491,2.1698,2.1349,2.1381,2.1766,2.1775,2.1722,2.166,2.2168,2.2459,2.262,2.3494,2.3878,2.403,2.4492,2.5015,2.5421,2.4839,2.575,2.7275,2.7643,2.8724,3.0015,3.0599,3.0861,3.0949,3.0653,3.0032,2.954,2.9917,3.0112,3.0215,3.0117,2.9864,2.9629,2.9611,2.9233,2.9032,2.9503,2.9591,2.9529,2.9334,2.9629,2.982,2.9556,0.0,0.0,0.0,3.064,3.0921,3.1445,3.1612,3.171,3.171,3.1575,3.1353,3.1064,3.147,3.1276,3.0263,3.0505,3.001,2.8578,2.962,2.9993,2.9566,2.9566,2.9566,2.9566,2.8882,2.8574,2.8542,2.8031,2.7891,2.8051,2.8403,2.8363,2.8051,2.8422,2.8243,2.7683,2.7147,2.6772,2.6547,2.652,2.6392,2.6395,1.4452,1.4428,1.4377,1.4222,1.4181,1.4183,1.4183,1.4589,1.4921,1.4974,1.5461,1.6005,1.6566,1.6332,1.6324,1.682,1.6328,1.6235,1.6801,1.6841,1.7303,1.8322,1.9101,1.9536,1.9573,1.9949,2.0149,2.0163,2.0407,2.0837,2.1413,2.1221,2.1421,2.1962,2.1787,2.1929,2.2341,2.2392,2.2609,2.309,2.4763,2.4933,2.4383,2.624,2.6354,2.5533,2.5778,2.6862,2.8202,2.824,2.9429,3.0809,3.0247,3.0489,3.0766,2.9581,2.9589,3.0056,3.0499,3.0632,3.0576,3.0196,3.0069,2.9866,2.9139,2.8925,2.8919,2.8969,2.8969,2.9277,3.0296,3.0514,3.0713,3.1216,0.0,0.0,3.0584,3.1036,3.1429,3.1502,3.1991,3.2328,3.2328,3.2319,3.183,3.0646,3.0588,3.0338,2.9694,2.8721,2.7844,2.7171,2.8364,2.8979,2.887,2.8882,2.8882,2.8882,2.8191,2.7871,2.7871,2.7819,2.8131,2.8692,2.8111,2.8191,2.8673,2.8111,2.7742,2.7464,2.6933,2.6594,2.6423,2.6559,2.6206,2.5885,1.3649,1.3748,1.3851,1.3796,1.3653,1.3605,1.3766,1.3955,1.4278,1.4828,1.5566,1.6218,1.6653,1.7071,1.7142,1.6671,1.681,1.6917,1.6892,1.7011,1.759,1.8722,1.9732,2.0131,1.9779,2.0342,2.0496,2.0195,2.0673,2.1019,2.1216,2.1422,2.1468,2.1382,2.165,2.1933,2.2235,2.2664,2.3163,2.3783,2.4951,2.5203,2.4964,2.5731,2.5866,2.555,2.4976,2.6155,2.7932,2.7605,2.8711,3.0152,2.989,2.9813,2.9736,2.9238,2.9257,2.9484,2.9671,3.0017,3.0114,2.9259,2.9207,2.9211,2.8708,2.8854,2.8993,2.8665,2.9051,2.941,2.9259,2.9973,3.0684,3.0954,0.0,3.2097,3.2218,3.2451,3.2606,3.2606,3.2817,3.2702,3.2079,3.1586,3.0965,3.0193,2.9668,2.9144,2.8574,2.7787,2.7158,2.6758,2.7713,2.8218,2.8171,2.8171,2.8171,2.8171,2.7551,2.7387,2.7665,2.7239,2.7345,2.7882,2.803,2.7859,2.7459,2.7603,2.7224,2.6487,2.6276,2.612,2.6063,2.6417,2.6173,2.5792,1.3107,1.3299,1.3455,1.335,1.3206,1.31,1.3175,1.3424,1.3842,1.4533,1.5375,1.6171,1.6879,1.7341,1.743,1.7056,1.7233,1.7355,1.7272,1.7579,1.812,1.8966,2.0069,2.0496,2.0136,2.0634,2.0745,2.0422,2.0893,2.111,2.1106,2.159,2.1588,2.1243,2.1624,2.1994,2.2342,2.2803,2.3392,2.4087,2.5012,2.5262,2.513,2.5523,2.5629,2.5473,2.4753,2.5781,2.7438,2.7125,2.8094,2.9406,2.927,2.8897,2.8581,2.8983,2.8976,2.8782,2.8612,2.895,2.9226,2.8753,2.8574,2.8443,2.8097,2.8205,2.8257,2.7777,2.8431,2.8988,2.8744,2.9726,3.0684,3.091,3.1465,3.2073,3.2654,3.2743,3.2771,3.2739,3.2789,3.2475,3.1613,3.0818,3.0094,2.9391,2.8899,2.8379,2.7748,2.7328,2.7015,2.6824,2.721,2.7415,2.7415,2.7499,2.7601,2.7731,2.7107,2.7043,2.7502,2.703,2.7118,2.7635,2.7887,2.7654,2.7138,2.7395,2.6967,2.6115,2.6115,2.5997,2.591,2.6584,2.6492,2.6094,1.2784,1.3012,1.3113,1.2844,1.281,1.269,1.2358,1.3053,1.3691,1.3963,1.4759,1.5863,1.7335,1.6894,1.7017,1.8292,1.7612,1.7397,1.8059,1.8658,1.9002,1.9002,2.001,2.0605,2.0605,2.0799,2.0906,2.0906,2.1089,2.1164,2.1116,2.1571,2.1766,2.1703,2.177,2.2182,2.2814,2.2814,2.3206,2.3911,2.5026,2.5136,2.4735,2.6,2.5997,2.5297,2.5447,2.6048,2.6812,2.7017,2.7851,2.8724,2.8307,2.7748,2.7444,2.8708,2.8673,2.808,2.7537,2.7543,2.7915,2.8842,2.8391,2.7609,2.7267,2.6871,2.6492,2.6165,2.6846,2.7866,2.9036,2.9976,3.0764,3.136,3.1028,3.0854,3.1391,3.1532,3.1556,3.1491,3.1668,3.1544,3.0932,3.0278,2.9391,2.8176,2.8339,2.8136,2.736,2.7293,2.7293,2.7315,2.6857,2.6617,2.6617,2.6798,2.7141,2.7585,2.6917,2.6857,2.7315,2.7315,2.7668,2.8269,2.7602,2.769,2.8257,2.758,2.702,2.6606,2.6606,2.6311,2.6034,2.7172,2.7172,2.6734,1.2318,1.2668,1.3028,1.3133,1.3107,1.3113,1.3207,1.3635,1.4019,1.4253,1.5239,1.6083,1.6476,1.7141,1.755,1.7486,1.8062,1.8525,1.8723,1.902,1.9152,1.9002,1.9706,2.0196,2.0401,2.0722,2.0819,2.0693,2.1176,2.1403,2.1403,2.1669,2.2034,2.2471,2.2348,2.2768,2.3586,2.3729,2.4094,2.4608,2.5101,2.5184,2.5045,2.5283,2.5009,2.4502,2.435,2.4999,2.5902,2.5965,2.6823,2.7834,2.7586,2.7362,2.7272,2.7655,2.7635,2.745,2.7299,2.7068,2.6848,2.6793,2.6675,2.6488,2.6158,2.628,2.6329,2.5851,2.6649,2.7239,2.6608,2.7401,2.8093,2.7943,2.8146,2.8512,2.9108,2.9197,2.9455,3.0087,2.9919,2.9675,2.9464,2.9125,2.8456,2.7345,2.7501,2.7711,2.7796,2.7479,2.7446,2.7773,2.7337,2.7086,2.7086,2.681,2.6752,2.6895,2.7042,2.7337,2.7795,2.7795,2.8116,2.864,2.8434,2.8248,2.8065,2.7863,2.7326,2.6606,2.6606,2.6311,2.5938,2.628,2.6073,2.5717,1.2555,1.2926,1.3301,1.3581,1.3472,1.338,1.342,1.3821,1.4164,1.4378,1.5247,1.5927,1.6114,1.6958,1.7433,1.7233,1.8066,1.8683,1.8862,1.9002,1.9121,1.924,1.9647,1.9981,2.0147,2.0381,2.0605,2.085,2.1017,2.1282,2.1629,2.1988,2.2339,2.266,2.2806,2.3268,2.3919,2.4023,2.4336,2.4743,2.4871,2.4914,2.4914,2.47,2.4454,2.4153,2.3807,2.4359,2.5253,2.5253,2.6144,2.7269,2.7199,2.721,2.721,2.721,2.721,2.721,2.721,2.6852,2.6431,2.6146,2.6088,2.6092,2.6076,2.618,2.6146,2.5637,2.6531,2.7152,2.6224,2.7089,2.7876,2.7593,2.7639,2.7874,2.8261,2.8503,2.877,2.9115,2.9138,2.9035,2.8759,2.8397,2.7936,2.7381,2.748,2.7795,2.8298,2.8047,2.8014,2.8309,2.7839,2.7532,2.7465,2.7171,2.7074,2.7151,2.7446,2.7839,2.8331,2.8331,2.8375,2.8507,2.8716,2.8398,2.7751,2.7914,2.7435,2.6606,2.6606,2.6268,2.5791,2.5987,2.5804,2.5525,1.3212,1.3519,1.3779,1.4018,1.382,1.3553,1.3313,1.3768,1.4193,1.4384,1.4896,1.5451,1.5991,1.6408,1.6826,1.7159,1.7659,1.8141,1.8571,1.8672,1.8971,1.9527,1.9754,1.9863,1.9843,1.9922,2.0348,2.113,2.0698,2.0978,2.1862,2.2371,2.257,2.2592,2.3224,2.3658,2.3919,2.396,2.4178,2.4497,2.4497,2.4497,2.4475,2.4292,2.4228,2.4163,2.3742,2.4164,2.4924,2.5031,2.5884,2.6944,2.7149,2.721,2.721,2.721,2.721,2.7222,2.7268,2.6955,2.6651,2.6697,2.6505,2.6402,2.6704,2.6446,2.6015,2.5649,2.658,2.7406,2.7196,2.8219,2.906,2.9003,2.8584,2.8237,2.8247,2.8715,2.8862,2.8446,2.8892,2.9058,2.8585,2.8074,2.7844,2.8069,2.8079,2.8287,2.8781,2.878,2.8757,2.8757,2.8262,2.792,2.7737,2.7737,2.7807,2.7968,2.7989,2.8262,2.8757,2.8734,2.847,2.8032,2.847,2.8143,2.7336,2.7717,2.7357,2.6541,2.6541,2.6162,2.5678,2.612,2.6119,2.5913,1.3228,1.3592,1.3786,1.3779,1.3902,1.3968,1.3908,1.4195,1.4407,1.4404,1.4733,1.4943,1.4803,1.5336,1.5683,1.5596,1.6776,1.7631,1.7902,1.8563,1.8982,1.9121,1.9458,1.9597,1.944,2.0089,2.0516,2.0658,2.0557,2.1132,2.2334,2.1942,2.2504,2.3805,2.3593,2.3748,2.4149,2.4288,2.4425,2.4497,2.4497,2.4497,2.4497,2.4454,2.4335,2.4206,2.4261,2.4551,2.5031,2.5915,2.653,2.6944,2.7149,2.721,2.721,2.721,2.721,2.7291,2.7713,2.7757,2.7757,2.8126,2.8186,2.7853,2.6807,2.65,2.6482,2.676,2.7092,2.7231,2.6804,2.7148,2.7302,2.6732,2.6848,2.6873,2.652,2.6726,2.7091,2.7511,2.7366,2.7456,2.8076,2.8198,2.8352,2.8606,2.8766,2.8833,2.8792,2.8594,2.8488,2.8488,2.8159,2.7989,2.7942,2.7942,2.7877,2.7774,2.7923,2.8159,2.8488,2.8256,2.8098,2.7991,2.7747,2.7511,2.7274,2.7061,2.6622,2.6043,2.6043,2.5957,2.5839,2.5946,2.5956,2.5913,1.3842,1.3994,1.4056,1.428,1.4204,1.4109,1.4109,1.4335,1.4484,1.4452,1.4745,1.482,1.448,1.5043,1.5591,1.5976,1.6735,1.7448,1.8003,1.8543,1.8911,1.9002,1.9291,1.9508,1.9578,2.0041,2.0343,2.051,2.0237,2.0753,2.197,2.184,2.2404,2.3537,2.3738,2.4024,2.4347,2.4454,2.4497,2.4497,2.4497,2.4497,2.4497,2.4497,2.4433,2.4325,2.4218,2.4391,2.4893,2.6177,2.6665,2.6809,2.7108,2.721,2.721,2.721,2.721,2.7325,2.7839,2.7998,2.8113,2.8574,2.87,2.8494,2.7734,2.755,2.7568,2.758,2.7885,2.8026,2.754,2.7678,2.7733,2.7348,2.7371,2.7294,2.6824,2.7173,2.7536,2.7621,2.7743,2.7997,2.8468,2.8558,2.8599,2.8606,2.8721,2.871,2.8617,2.8594,2.8605,2.8605,2.8443,2.8326,2.8196,2.8068,2.794,2.7845,2.7951,2.8068,2.8196,2.8068,2.7881,2.7645,2.7636,2.737,2.6966,2.6989,2.6551,2.5923,2.6158,2.5901,2.5443,2.5676,2.5673,2.5554,1.4486,1.4486,1.4438,1.479,1.443,1.4109,1.4109,1.4295,1.4421,1.4421,1.4663,1.4745,1.4454,1.4939,1.563,1.6594,1.6768,1.7225,1.8112,1.8471,1.8732,1.8942,1.9112,1.935,1.9686,1.9787,2.0046,2.047,2.0048,2.0332,2.1347,2.1869,2.2356,2.2847,2.3786,2.4292,2.4454,2.4497,2.4497,2.4497,2.4497,2.4497,2.4497,2.4497,2.4497,2.4454,2.4143,2.438,2.5031,2.6207,2.6644,2.6768,2.7076,2.7227,2.7275,2.7316,2.7364,2.7536,2.8103,2.8193,2.8239,2.8712,2.8769,2.8723,2.8815,2.8838,2.8753,2.8439,2.8767,2.9004,2.8723,2.876,2.8873,2.8919,2.8803,2.8533,2.797,2.8483,2.872,2.8211,2.8724,2.9082,2.9058,2.8896,2.871,2.8488,2.8418,2.8371,2.8314,2.8547,2.8664,2.8664,2.8617,2.8477,2.8277,2.8008,2.788,2.788,2.788,2.7904,2.7927,2.7904,2.7679,2.7327,2.7636,2.7329,2.6618,2.6936,2.6597,2.593,2.6237,2.5821,2.5112,2.5426,2.5399,2.5161,1.4484,1.4712,1.4756,1.431,1.4156,1.4109,1.4109,1.4122,1.4142,1.4142,1.4182,1.421,1.417,1.4233,1.4593,1.5298,1.5899,1.653,1.7241,1.8011,1.8523,1.874,1.878,1.8812,1.886,1.9309,1.9846,2.0418,2.0334,2.0558,2.1064,2.1771,2.2356,2.2847,2.3786,2.4228,2.4249,2.4433,2.4497,2.4497,2.4497,2.4497,2.4497,2.4497,2.4497,2.454,2.4882,2.558,2.6343,2.6541,2.683,2.7129,2.719,2.7364,2.7591,2.7822,2.8068,2.8384,2.9094,2.8953,2.8723,2.9263,2.9045,2.8827,2.9286,2.9389,2.9482,2.9827,2.9477,2.9212,2.9624,2.9348,2.9151,2.937,2.9715,2.9646,2.8774,2.9096,2.9233,2.8762,2.8922,2.9035,2.8873,2.8827,2.878,2.8757,2.8535,2.829,2.8068,2.8092,2.8115,2.8115,2.788,2.7749,2.7702,2.7499,2.7394,2.7394,2.7394,2.7489,2.7655,2.7465,2.7363,2.7266,2.6947,2.6728,2.657,2.6227,2.6009,2.5873,2.5507,2.5538,2.5725,2.5391,2.5233,2.5139,1.4719,1.4758,1.4636,1.4376,1.4195,1.4109,1.4109,1.4109,1.4109,1.4109,1.4109,1.4109,1.4109,1.4109,1.4377,1.5048,1.5367,1.5961,1.698,1.755,1.8043,1.8503,1.8752,1.903,1.9356,1.9561,1.9972,2.0576,2.0422,2.0695,2.1414,2.1983,2.2655,2.3385,2.4067,2.4378,2.4368,2.4454,2.4497,2.4497,2.4497,2.4497,2.4497,2.4497,2.4722,2.5126,2.559,2.5716,2.5748,2.6385,2.6727,2.6969,2.7481,2.7742,2.7887,2.8277,2.8195,2.8092,2.8712,2.8483,2.8278,2.911,2.9232,2.9274,2.9791,2.9894,2.9828,2.9624,2.9646,2.9657,2.9485,2.914,2.8921,2.9036,2.8874,2.8606,2.8196,2.8443,2.8746,2.8943,2.9058,2.9082,2.8989,2.8839,2.8572,2.8173,2.8008,2.7891,2.7786,2.7927,2.7998,2.7998,2.788,2.7809,2.7809,2.7584,2.7476,2.7476,2.7347,2.7357,2.7418,2.7333,2.7309,2.7299,2.7068,2.6998,2.6964,2.6781,2.6364,2.5929,2.626,2.6353,2.6229,2.5761,2.5761,2.5875]},{"header":{"parameterUnit":"m.s-1","parameterCategory":1,"la1":30.6,"la2":28.766,"lo1":-90.7593,"lo2":-88.6598,"dy":0.0162,"dx":0.0183,"nx":116,"ny":114,"refTime":"2023-03-03T18:00:00:Z","depth":0,"parameterNumber":3,"parameterNumberName":"V-component_of_WINDS"},"data":[0.0,0.0,0.0,0.0,0.0,0.0,0.0,0.0,0.0,0.0,0.0,0.0,0.0,0.0,0.0,0.0,0.0,0.0,0.0,0.0,0.0,0.0,0.0,0.0,0.0,0.0,0.0,0.0,0.0,0.0,0.0,0.0,0.0,0.0,0.0,0.0,0.0,0.0,0.0,0.0,0.0,0.0,0.0,0.0,0.0,0.0,0.0,0.0,0.0,0.0,0.0,0.0,0.0,0.0,0.0,0.0,0.0,0.0,0.0,0.0,0.0,0.0,0.0,0.0,0.0,0.0,0.0,0.0,0.0,0.0,0.0,0.0,0.0,0.0,0.0,0.0,0.0,0.0,0.0,0.0,0.0,0.0,0.0,0.0,0.0,0.0,0.0,0.0,0.0,0.0,0.0,0.0,0.0,0.0,0.0,0.0,0.0,0.0,0.0,0.0,0.0,0.0,0.0,0.0,0.0,0.0,0.0,0.0,0.0,0.0,0.0,0.0,0.0,0.0,0.0,0.0,0.0,0.0,0.0,0.0,0.0,0.0,0.0,0.0,0.0,0.0,0.0,0.0,0.0,0.0,0.0,0.0,0.0,0.0,0.0,0.0,0.0,0.0,0.0,0.0,0.0,0.0,0.0,0.0,0.0,0.0,0.0,0.0,0.0,0.0,0.0,0.0,0.0,0.0,0.0,0.0,0.0,0.0,0.0,0.0,0.0,0.0,0.0,0.0,0.0,0.0,0.0,0.0,0.0,0.0,0.0,0.0,0.0,0.0,0.0,0.0,0.0,0.0,0.0,0.0,0.0,0.0,0.0,0.0,0.0,0.0,0.0,0.0,0.0,0.0,0.0,0.0,0.0,0.0,0.0,0.0,0.0,0.0,0.0,0.0,0.0,0.0,0.0,0.0,0.0,0.0,0.0,0.0,0.0,0.0,0.0,0.0,0.0,0.0,0.0,0.0,0.0,0.0,0.0,0.0,0.0,0.0,0.0,0.0,0.0,0.0,0.0,0.0,0.0,0.0,0.0,0.0,0.0,0.0,0.0,0.0,0.0,0.0,0.0,0.0,0.0,0.0,0.0,0.0,0.0,0.0,0.0,0.0,0.0,0.0,0.0,0.0,0.0,0.0,0.0,0.0,0.0,0.0,0.0,0.0,0.0,0.0,0.0,0.0,0.0,0.0,0.0,0.0,0.0,0.0,0.0,0.0,0.0,0.0,0.0,0.0,0.0,0.0,0.0,0.0,0.0,0.0,0.0,0.0,0.0,0.0,0.0,0.0,0.0,0.0,0.0,0.0,0.0,0.0,0.0,0.0,0.0,0.0,0.0,0.0,0.0,0.0,0.0,0.0,0.0,0.0,0.0,0.0,0.0,0.0,0.0,0.0,0.0,0.0,0.0,0.0,0.0,0.0,0.0,0.0,0.0,0.0,0.0,0.0,0.0,0.0,0.0,0.0,0.0,0.0,0.0,0.0,0.0,0.0,0.0,0.0,0.0,0.0,0.0,0.0,0.0,0.0,0.0,0.0,0.0,0.0,0.0,0.0,0.0,0.0,0.0,0.0,0.0,0.0,0.0,0.0,0.0,0.0,0.0,0.0,0.0,0.0,0.0,0.0,0.0,0.0,0.0,0.0,0.0,0.0,0.0,0.0,0.0,0.0,0.0,0.0,0.0,0.0,0.0,0.0,0.0,0.0,0.0,0.0,0.0,0.0,0.0,0.0,0.0,0.0,0.0,0.0,0.0,0.0,0.0,0.0,0.0,0.0,0.0,0.0,0.0,0.0,0.0,0.0,0.0,0.0,0.0,0.0,0.0,0.0,0.0,0.0,0.0,0.0,0.0,0.0,0.0,0.0,0.0,0.0,0.0,0.0,0.0,0.0,0.0,0.0,0.0,0.0,0.0,0.0,0.0,0.0,0.0,0.0,0.0,0.0,0.0,0.0,0.0,0.0,0.0,0.0,0.0,0.0,0.0,0.0,0.0,0.0,0.0,0.0,0.0,0.0,0.0,0.0,0.0,0.0,0.0,0.0,0.0,0.0,0.0,0.0,0.0,0.0,0.0,0.0,0.0,0.0,0.0,0.0,0.0,0.0,0.0,0.0,0.0,0.0,0.0,0.0,0.0,0.0,0.0,0.0,0.0,0.0,0.0,0.0,0.0,0.0,0.0,0.0,0.0,0.0,0.0,0.0,0.0,0.0,0.0,0.0,0.0,0.0,0.0,0.0,0.0,0.0,0.0,0.0,0.0,0.0,0.0,0.0,0.0,0.0,0.0,0.0,0.0,0.0,0.0,0.0,0.0,0.0,0.0,0.0,0.0,0.0,0.0,0.0,0.0,0.0,0.0,0.0,0.0,0.0,0.0,0.0,0.0,0.0,0.0,0.0,0.0,0.0,0.0,0.0,0.0,0.0,0.0,0.0,0.0,0.0,0.0,0.0,0.0,0.0,0.0,0.0,0.0,0.0,0.0,0.0,0.0,0.0,0.0,0.0,0.0,0.0,0.0,0.0,0.0,0.0,0.0,0.0,0.0,0.0,0.0,0.0,0.0,0.0,0.0,0.0,0.0,0.0,0.0,0.0,0.0,0.0,0.0,0.0,0.0,0.0,0.0,0.0,0.0,0.0,0.0,0.0,0.0,0.0,0.0,0.0,0.0,0.0,0.0,0.0,0.0,0.0,0.0,0.0,0.0,0.0,0.0,0.0,0.0,0.0,0.0,0.0,0.0,0.0,0.0,0.0,0.0,0.0,0.0,0.0,0.0,0.0,0.0,0.0,0.0,0.0,0.0,0.0,0.0,0.0,0.0,0.0,0.0,0.0,0.0,0.0,0.0,0.0,0.0,0.0,0.0,0.0,0.0,0.0,0.0,0.0,0.0,0.0,0.0,0.0,0.0,0.0,0.0,0.0,0.0,0.0,0.0,0.0,0.0,0.0,0.0,0.0,0.0,0.0,0.0,0.0,0.0,0.0,0.0,0.0,0.0,0.0,0.0,0.0,0.0,0.0,0.0,0.0,0.0,0.0,0.0,0.0,0.0,0.0,0.0,0.0,0.0,0.0,0.0,0.0,0.0,0.0,0.0,0.0,0.0,0.0,0.0,0.0,0.0,0.0,0.0,0.0,0.0,0.0,0.0,0.0,0.0,0.0,0.0,0.0,0.0,0.0,0.0,0.0,0.0,0.0,0.0,0.0,0.0,0.0,0.0,0.0,0.0,0.0,0.0,0.0,0.0,0.0,0.0,0.0,0.0,0.0,0.0,0.0,0.0,0.0,0.0,0.0,0.0,0.0,0.0,0.0,0.0,0.0,0.0,0.0,0.0,0.0,0.0,0.0,0.0,0.0,0.0,0.0,0.0,0.0,0.0,0.0,0.0,0.0,0.0,0.0,0.0,0.0,0.0,0.0,0.0,0.0,0.0,0.0,0.0,0.0,0.0,0.0,0.0,0.0,0.0,0.0,0.0,0.0,0.0,0.0,0.0,0.0,0.0,0.0,0.0,0.0,0.0,0.0,0.0,0.0,0.0,0.0,0.0,0.0,0.0,0.0,0.0,0.0,0.0,0.0,0.0,0.0,0.0,0.0,0.0,0.0,0.0,0.0,0.0,0.0,0.0,0.0,0.0,0.0,0.0,0.0,0.0,0.0,0.0,0.0,0.0,0.0,0.0,0.0,0.0,0.0,0.0,0.0,0.0,0.0,0.0,0.0,0.0,0.0,0.0,0.0,0.0,0.0,0.0,0.0,0.0,0.0,0.0,0.0,0.0,0.0,0.0,0.0,0.0,0.0,0.0,0.0,0.0,0.0,0.0,0.0,0.0,0.0,0.0,0.0,0.0,0.0,0.0,0.0,0.0,0.0,0.0,0.0,0.0,0.0,0.0,0.0,0.0,0.0,0.0,0.0,0.0,0.0,0.0,0.0,0.0,0.0,0.0,0.0,0.0,0.0,0.0,0.0,0.0,0.0,0.0,0.0,0.0,0.0,0.0,0.0,0.0,0.0,0.0,0.0,0.0,0.0,0.0,0.0,0.0,0.0,0.0,0.0,0.0,0.0,0.0,0.0,0.0,0.0,0.0,0.0,0.0,0.0,0.0,0.0,0.0,0.0,0.0,0.0,0.0,0.0,0.0,0.0,0.0,0.0,0.0,0.0,0.0,0.0,0.0,0.0,0.0,0.0,0.0,0.0,0.0,0.0,0.0,0.0,0.0,0.0,0.0,0.0,0.0,0.0,0.0,0.0,0.0,0.0,0.0,0.0,0.0,0.0,0.0,0.0,0.0,0.0,0.0,0.0,0.0,0.0,0.0,0.0,0.0,0.0,0.0,0.0,0.0,0.0,0.0,0.0,0.0,0.0,0.0,0.0,0.0,0.0,0.0,0.0,0.0,0.0,0.0,0.0,0.0,0.0,0.0,0.0,0.0,0.0,0.0,0.0,0.0,0.0,0.0,0.0,0.0,0.0,0.0,0.0,0.0,0.0,0.0,0.0,0.0,0.0,0.0,0.0,0.0,0.0,0.0,0.0,0.0,0.0,0.0,0.0,0.0,0.0,0.0,0.0,0.0,0.0,0.0,0.0,0.0,0.0,0.0,0.0,0.0,0.0,0.0,0.0,0.0,0.0,0.0,0.0,0.0,0.0,0.0,0.0,0.0,0.0,0.0,0.0,0.0,0.0,0.0,0.0,0.0,0.0,0.0,0.0,0.0,0.0,0.0,0.0,0.0,0.0,0.0,0.0,0.0,0.0,0.0,0.0,0.0,0.0,0.0,0.0,0.0,0.0,0.0,0.0,0.0,0.0,0.0,0.0,0.0,0.0,0.0,0.0,0.0,0.0,0.0,0.0,0.0,0.0,0.0,0.0,0.0,0.0,0.0,0.0,0.0,0.0,0.0,0.0,0.0,0.0,0.0,0.0,0.0,0.0,0.0,0.0,0.0,0.0,0.0,0.0,0.0,0.0,0.0,0.0,0.0,0.0,0.0,0.0,0.0,0.0,0.0,0.0,0.0,0.0,0.0,0.0,0.0,0.0,0.0,0.0,0.0,0.0,0.0,0.0,0.0,0.0,0.0,0.0,0.0,0.0,0.0,0.0,0.0,0.0,0.0,0.0,0.0,0.0,0.0,0.0,0.0,0.0,0.0,0.0,0.0,0.0,0.0,0.0,0.0,0.0,0.0,0.0,0.0,0.0,0.0,0.0,0.0,0.0,0.0,0.0,0.0,0.0,0.0,0.0,0.0,0.0,0.0,0.0,0.0,0.0,0.0,0.0,0.0,0.0,0.0,0.0,0.0,0.0,0.0,0.0,0.0,0.0,0.0,0.0,0.0,0.0,0.0,0.0,0.0,0.0,0.0,0.0,0.0,0.0,0.0,0.0,0.0,0.0,0.0,0.0,0.0,0.0,0.0,0.0,0.0,0.0,0.0,0.0,0.0,0.0,0.0,0.0,0.0,0.0,0.0,0.0,0.0,0.0,0.0,0.0,0.0,0.0,0.0,0.0,0.0,0.0,0.0,0.0,0.0,0.0,0.0,0.0,0.0,0.0,0.0,0.0,0.0,0.0,0.0,0.0,0.0,0.0,0.0,0.0,0.0,0.0,0.0,0.0,0.0,0.0,0.0,0.0,0.0,0.0,0.0,0.0,0.0,0.0,0.0,0.0,0.0,0.0,0.0,0.0,0.0,0.0,0.0,0.0,0.0,0.0,0.0,0.0,0.0,0.0,0.0,0.0,0.0,0.0,0.0,0.0,0.0,0.0,0.0,0.0,0.0,0.0,0.0,0.0,0.0,0.0,0.0,0.0,0.0,0.0,0.0,0.0,0.0,0.0,0.0,0.0,0.0,0.0,0.0,0.0,0.0,0.0,0.0,0.0,0.0,0.0,0.0,0.0,0.0,0.0,0.0,0.0,0.0,0.0,0.0,0.0,0.0,0.0,0.0,0.0,0.0,0.0,0.0,0.0,0.0,0.0,0.0,0.0,0.0,0.0,0.0,0.0,0.0,0.0,0.0,0.0,0.0,0.0,0.0,0.0,0.0,0.0,0.0,0.0,0.0,0.0,0.0,0.0,0.0,0.0,0.0,0.0,0.0,0.0,0.0,0.0,0.0,0.0,0.0,0.0,1.8455,0.0,0.0,0.0,0.0,0.0,0.0,0.0,0.0,0.0,0.0,0.0,0.0,0.0,0.0,0.0,0.0,0.0,0.0,0.0,0.0,0.0,0.0,0.0,0.0,0.0,0.0,0.0,0.0,0.0,0.0,0.0,0.0,0.0,0.0,0.0,0.0,0.0,0.0,0.0,0.0,0.0,0.0,0.0,0.0,0.0,0.0,0.0,0.0,0.0,0.0,0.0,0.0,0.0,0.0,0.0,0.0,0.0,0.0,0.0,0.0,0.0,0.0,0.0,0.0,0.0,0.0,0.0,0.0,0.0,0.0,0.0,0.0,0.0,0.0,0.0,0.0,0.0,0.0,0.0,0.0,0.0,0.0,0.0,0.0,0.0,0.0,0.0,0.0,0.0,0.0,0.0,0.0,0.0,0.0,0.0,0.0,0.0,0.0,0.0,0.0,0.0,0.0,0.0,0.0,0.0,0.0,0.0,0.0,0.0,0.0,0.0,0.0,0.0,0.0,0.0,0.0,1.9034,0.0,0.0,0.0,0.0,0.0,0.0,0.0,0.0,0.0,0.0,0.0,0.0,0.0,0.0,0.0,0.0,0.0,0.0,0.0,0.0,0.0,0.0,0.0,0.0,0.0,0.0,0.0,0.0,0.0,0.0,0.0,0.0,0.0,0.0,0.0,0.0,0.0,0.0,0.0,0.0,0.0,0.0,0.0,0.0,0.0,0.0,0.0,0.0,0.0,0.0,0.0,0.0,0.0,0.0,0.0,0.0,0.0,0.0,0.0,0.0,0.0,0.0,0.0,0.0,0.0,0.0,0.0,0.0,0.0,0.0,0.0,0.0,0.0,0.0,0.0,0.0,0.0,0.0,0.0,0.0,0.0,0.0,0.0,0.0,0.0,0.0,0.0,0.0,0.0,0.0,0.0,0.0,0.0,0.0,0.0,0.0,0.0,0.0,0.0,0.0,0.0,0.0,0.0,0.0,0.0,0.0,0.0,0.0,2.121,2.1451,2.1866,2.2357,2.2472,2.2225,2.0908,2.0261,2.013,2.0026,0.0,0.0,0.0,0.0,0.0,0.0,0.0,0.0,0.0,0.0,0.0,0.0,0.0,0.0,0.0,0.0,0.0,0.0,0.0,0.0,0.0,0.0,0.0,0.0,0.0,0.0,0.0,0.0,0.0,0.0,0.0,0.0,0.0,0.0,0.0,0.0,0.0,0.0,2.7318,2.669,2.6711,2.7158,2.4856,0.0,0.0,0.0,0.0,0.0,0.0,0.0,0.0,0.0,0.0,0.0,0.0,0.0,0.0,0.0,0.0,0.0,0.0,0.0,0.0,0.0,0.0,0.0,0.0,0.0,0.0,0.0,0.0,0.0,0.0,0.0,0.0,0.0,0.0,0.0,0.0,0.0,0.0,0.0,0.0,0.0,0.0,0.0,1.9604,1.9473,0.0,0.0,0.0,0.0,0.0,0.0,0.0,0.0,0.0,0.0,0.0,0.0,0.0,2.1776,2.2296,2.2312,2.2723,2.3534,2.4009,2.4179,2.4094,2.462,2.4788,2.4618,2.3954,0.0,2.1826,2.1366,0.0,0.0,0.0,0.0,0.0,0.0,0.0,0.0,0.0,0.0,0.0,0.0,0.0,0.0,0.0,0.0,0.0,0.0,0.0,0.0,0.0,0.0,0.0,0.0,0.0,0.0,0.0,0.0,0.0,0.0,0.0,0.0,0.0,0.0,0.0,0.0,2.6319,2.7773,2.8571,2.8561,2.8732,2.8955,2.7,2.5857,2.5394,2.5201,0.0,0.0,0.0,0.0,0.0,0.0,0.0,0.0,0.0,0.0,0.0,0.0,0.0,0.0,0.0,0.0,0.0,0.0,0.0,0.0,0.0,0.0,0.0,0.0,0.0,0.0,0.0,0.0,0.0,0.0,0.0,0.0,0.0,0.0,0.0,0.0,0.0,0.0,0.0,2.1161,2.1485,2.0787,2.1006,2.1129,0.0,0.0,0.0,0.0,0.0,0.0,0.0,0.0,0.0,2.2803,2.3228,2.3417,2.3388,2.3606,2.4208,2.5194,2.5878,2.6415,2.6809,2.6849,2.6736,2.6494,2.6172,2.5469,2.443,2.2804,2.1961,2.1612,0.0,0.0,0.0,0.0,2.084,2.1034,0.0,0.0,0.0,0.0,0.0,0.0,0.0,0.0,0.0,0.0,0.0,0.0,0.0,0.0,0.0,2.0595,0.0,0.0,0.0,0.0,0.0,0.0,0.0,0.0,0.0,0.0,0.0,2.6933,2.9597,3.0632,3.0166,3.0615,3.0752,3.0594,2.953,2.8157,2.6577,2.6309,2.5515,0.0,0.0,0.0,0.0,0.0,0.0,0.0,0.0,0.0,0.0,0.0,0.0,0.0,0.0,0.0,0.0,0.0,0.0,0.0,0.0,0.0,0.0,0.0,0.0,0.0,0.0,0.0,0.0,0.0,0.0,0.0,0.0,0.0,0.0,0.0,0.0,0.0,0.0,2.1933,2.2533,2.1469,2.1592,2.1652,0.0,0.0,0.0,0.0,0.0,0.0,2.3952,2.4672,2.5053,2.5049,2.5588,2.5641,2.5162,2.5627,2.6279,2.7138,2.7873,2.8636,2.9404,2.9004,2.8738,2.8589,2.8171,2.7524,2.659,2.4494,2.3316,2.2791,2.2249,2.1937,2.1863,2.2333,2.253,2.2743,0.0,0.0,0.0,0.0,0.0,0.0,0.0,0.0,0.0,0.0,0.0,0.0,0.0,0.0,2.1474,2.3591,2.2702,2.2273,0.0,0.0,0.0,0.0,0.0,0.0,0.0,0.0,0.0,3.0531,3.1469,3.2293,3.2986,3.3014,3.2693,3.2084,3.1825,3.0908,2.94,2.6566,2.6178,2.7228,0.0,0.0,0.0,0.0,0.0,0.0,0.0,0.0,0.0,0.0,0.0,0.0,0.0,0.0,0.0,0.0,0.0,0.0,0.0,0.0,0.0,0.0,0.0,0.0,0.0,0.0,0.0,0.0,0.0,0.0,0.0,0.0,0.0,0.0,0.0,0.0,0.0,0.0,0.0,2.0478,2.0828,0.0,0.0,0.0,0.0,2.3366,2.4365,2.5147,2.5556,2.6766,2.7406,2.7345,2.8283,2.8616,2.8288,2.9118,2.9665,2.99,3.0466,3.104,3.1621,3.1027,3.0959,3.1235,3.0087,2.8868,2.765,2.6556,2.5728,2.5078,2.4532,2.4515,2.4707,2.4115,2.4347,2.4924,0.0,0.0,0.0,0.0,0.0,0.0,0.0,0.0,0.0,0.0,0.0,0.0,0.0,2.2985,2.3952,2.5772,2.5102,2.4177,2.3256,0.0,0.0,0.0,0.0,0.0,0.0,0.0,3.0283,3.2464,3.4395,3.552,3.5836,3.5792,3.5623,3.5334,3.4776,3.3944,3.2751,2.9692,2.7952,2.7183,2.6378,2.6057,0.0,0.0,0.0,0.0,0.0,0.0,0.0,0.0,0.0,0.0,0.0,0.0,0.0,0.0,0.0,0.0,0.0,0.0,0.0,0.0,0.0,0.0,0.0,0.0,0.0,0.0,0.0,0.0,0.0,0.0,0.0,0.0,0.0,0.0,0.0,0.0,0.0,2.3338,2.4067,0.0,2.4671,2.4973,2.5528,2.6403,2.6651,2.7408,2.8899,2.9096,2.9309,2.9683,3.0501,3.0637,3.0056,3.0815,3.1339,3.1596,3.2458,3.3024,3.3251,3.2431,3.2294,3.2627,3.0986,3.0181,2.9901,2.8905,2.7023,2.4729,2.4184,2.4142,2.44,2.4609,2.486,2.518,0.0,0.0,0.0,0.0,0.0,0.0,0.0,0.0,0.0,0.0,0.0,2.1767,2.4063,2.5181,2.652,2.8357,2.71,2.5795,2.4812,0.0,0.0,0.0,0.0,0.0,0.0,3.0852,3.2792,3.5149,3.6821,3.7557,3.7362,3.7359,3.7137,3.6708,3.6298,3.5664,3.48,3.2584,3.0259,2.8015,2.7611,2.7311,2.6967,0.0,0.0,0.0,0.0,0.0,0.0,0.0,0.0,0.0,0.0,0.0,0.0,0.0,0.0,0.0,0.0,0.0,0.0,0.0,0.0,0.0,0.0,0.0,0.0,0.0,0.0,0.0,0.0,0.0,0.0,0.0,0.0,0.0,0.0,2.3998,2.5924,2.5999,2.6701,2.7166,2.7145,2.7505,2.8071,2.8885,2.9318,3.022,3.1716,3.1771,3.2015,3.2541,3.3096,3.3184,3.2753,3.3171,3.3471,3.3659,3.4367,3.4836,3.5037,3.3995,3.3872,3.4395,3.2355,3.1476,3.1394,3.056,2.8618,2.616,2.5577,2.5298,2.53,2.5819,2.6038,2.6203,0.0,0.0,0.0,0.0,0.0,0.0,0.0,0.0,0.0,0.0,2.0676,2.2852,2.5142,2.707,2.9102,3.1331,2.8513,2.6876,2.752,2.3867,0.0,0.0,0.0,0.0,3.1349,3.3614,3.602,3.8644,3.8596,3.8226,3.7597,3.7718,3.7171,3.6142,3.6306,3.6068,3.5507,3.4986,3.3034,3.0155,2.8289,2.7534,2.7489,0.0,0.0,0.0,0.0,0.0,0.0,0.0,0.0,0.0,0.0,0.0,0.0,0.0,0.0,0.0,0.0,0.0,0.0,0.0,0.0,0.0,0.0,0.0,0.0,0.0,0.0,0.0,0.0,0.0,0.0,0.0,0.0,0.0,2.3125,2.6336,2.8554,2.8192,2.8487,2.8725,2.8794,2.9511,3.0204,3.073,3.2336,3.3473,3.3902,3.4775,3.5445,3.5848,3.6057,3.6252,3.6445,3.6252,3.6158,3.6151,3.6151,3.6472,3.6969,3.5716,3.5717,3.6569,3.4259,3.28,3.2017,3.1453,3.0611,2.9571,2.8925,2.8293,2.7772,2.7792,2.789,2.802,0.0,0.0,0.0,0.0,0.0,0.0,0.0,0.0,0.0,0.0,2.2134,2.4731,2.7004,2.9289,3.1012,3.1931,2.8781,2.6729,2.6665,0.0,0.0,0.0,0.0,0.0,3.4031,3.5309,3.7186,3.977,3.9982,3.9948,3.9669,3.9505,3.9206,3.8739,3.8291,3.8288,3.847,3.6751,3.5613,3.4695,3.1663,3.0645,3.0734,0.0,0.0,0.0,0.0,0.0,0.0,0.0,0.0,0.0,0.0,0.0,0.0,0.0,0.0,0.0,0.0,0.0,0.0,0.0,0.0,0.0,0.0,0.0,0.0,0.0,0.0,0.0,0.0,0.0,0.0,0.0,2.5536,2.7219,2.6064,2.862,3.0799,3.128,3.254,3.3269,3.304,3.3748,3.423,3.4285,3.4922,3.5708,3.6649,3.6581,3.6756,3.7316,3.7531,3.7587,3.748,3.7587,3.755,3.7401,3.755,3.7558,3.7415,3.6626,3.6424,3.6631,3.5097,3.4027,3.3303,3.2425,3.1548,3.0704,3.0181,2.9618,2.9006,2.845,2.795,2.7509,0.0,0.0,0.0,0.0,0.0,0.0,0.0,0.0,0.0,0.0,2.3059,2.5883,2.7646,2.9755,3.1169,3.1451,2.8299,2.6236,2.6096,0.0,0.0,0.0,0.0,3.1954,3.6232,3.7085,3.865,4.103,4.0744,4.073,4.0946,4.0684,4.0441,4.0248,3.9996,3.9643,3.92,3.8323,3.7635,3.695,3.5183,3.3688,3.2327,3.071,2.9892,2.9505,2.8625,2.7812,2.7012,2.61,0.0,0.0,0.0,0.0,0.0,0.0,0.0,0.0,0.0,0.0,0.0,0.0,0.0,0.0,0.0,0.0,0.0,0.0,0.0,0.0,0.0,0.0,0.0,0.0,2.9112,3.1324,3.1901,3.2736,3.353,3.4194,3.5631,3.6452,3.6182,3.7144,3.7759,3.7674,3.8064,3.8458,3.8744,3.8558,3.8417,3.8393,3.8876,3.8928,3.8538,3.8928,3.8891,3.8393,3.8519,3.8315,3.7825,3.7229,3.6949,0.0,3.5457,3.4618,3.4129,3.3349,3.2752,0.0,0.0,0.0,0.0,0.0,2.9097,2.8846,0.0,0.0,0.0,0.0,0.0,0.0,0.0,0.0,0.0,0.0,0.0,2.63,2.7158,2.8955,3.0127,3.0213,2.7473,2.5811,0.0,0.0,0.0,2.9033,3.182,3.4844,3.8063,3.8892,4.0285,4.233,4.1246,4.1071,4.1724,4.1426,4.1227,4.1092,4.1255,4.0471,3.9009,3.9764,3.9225,3.7923,3.8494,3.6539,3.3201,3.2836,3.2143,3.1291,3.0591,2.9555,2.8368,2.7312,0.0,0.0,0.0,0.0,0.0,0.0,0.0,0.0,0.0,0.0,0.0,0.0,0.0,0.0,0.0,0.0,0.0,0.0,0.0,0.0,0.0,0.0,0.0,0.0,3.3019,3.5241,3.855,3.7553,3.6642,3.7069,3.8059,3.8701,3.8573,3.974,4.0502,4.0502,4.1074,4.1029,4.017,0.0,0.0,0.0,0.0,4.0232,3.9631,4.018,4.0088,3.9327,3.9235,3.8859,3.8247,3.7658,3.7303,3.712,3.5627,3.485,3.4594,3.4175,3.3962,3.3755,3.2208,3.1209,3.0656,3.0592,3.0887,3.1108,0.0,0.0,0.0,0.0,0.0,0.0,0.0,0.0,0.0,2.0514,2.3301,2.5194,2.5176,2.7382,2.8765,2.8576,2.7337,2.6793,0.0,0.0,2.8681,3.2009,3.3501,3.5902,3.9434,4.056,4.1758,4.3091,4.2424,4.2236,4.2475,4.2113,4.2027,4.2154,4.1356,4.1299,4.1752,4.0849,4.0357,4.0166,4.0181,3.8496,3.589,3.5261,3.3976,3.2441,3.1959,3.122,3.0323,2.9467,2.9243,2.9079,2.7566,2.682,0.0,0.0,0.0,0.0,0.0,0.0,0.0,0.0,0.0,0.0,0.0,0.0,0.0,0.0,0.0,0.0,0.0,0.0,0.0,3.284,3.5675,3.808,3.9431,3.9909,4.0132,4.0228,4.0576,4.0801,4.0782,4.104,4.1209,4.1209,4.1328,4.1085,4.0371,4.0887,4.0891,4.0177,4.0827,4.1149,4.1014,4.0994,4.088,4.0708,0.0,0.0,3.8741,3.8074,3.7327,3.6569,3.6227,3.5578,3.4749,3.4665,3.4341,3.3915,3.4049,3.3641,3.2894,3.2417,3.2175,3.1986,0.0,0.0,0.0,0.0,0.0,0.0,0.0,0.0,0.0,0.0,2.3383,2.5031,2.5683,2.7163,2.7932,2.7531,2.6841,0.0,0.0,2.9053,3.1424,3.5182,3.6059,3.8054,4.1481,4.1579,4.2188,4.3402,4.2971,4.3031,4.3589,4.3119,4.3034,4.3219,4.274,4.2435,4.2265,4.1802,4.1228,4.0697,4.1087,4.0103,3.8277,3.7141,3.6099,3.5177,3.4638,3.375,3.2738,3.2036,3.1227,3.0308,2.889,2.8163,2.7724,0.0,0.0,0.0,0.0,0.0,0.0,0.0,0.0,0.0,0.0,0.0,0.0,0.0,0.0,2.7786,2.873,0.0,3.4401,3.6374,3.8766,4.0617,4.1451,4.1934,4.1939,4.1188,4.1569,4.1897,4.1897,4.2162,4.2357,4.2357,4.2357,4.2073,4.1433,4.2047,4.2092,4.1418,4.2047,4.2183,4.1694,4.1729,4.1522,4.1095,4.0673,4.0017,3.9174,3.8397,3.7473,3.6483,3.6182,3.5564,3.4788,3.4788,3.4612,3.4409,3.5012,3.4814,3.414,3.352,3.3403,3.341,0.0,0.0,0.0,0.0,0.0,0.0,0.0,0.0,0.0,0.0,2.3101,2.4517,2.5542,2.6167,2.6503,0.0,0.0,0.0,0.0,3.1309,3.426,3.8,3.869,4.0366,4.3274,4.2675,4.2926,4.4103,4.3769,4.4019,4.4798,4.4202,4.3975,4.4102,4.4246,4.367,4.2576,4.2854,4.2245,4.1177,4.1821,4.1454,4.0319,3.8717,3.8018,3.781,3.7147,3.5919,3.4545,3.4113,3.2658,3.0944,3.0263,2.9594,2.8917,2.8195,2.7079,0.0,0.0,0.0,0.0,0.0,0.0,0.0,0.0,2.5087,2.5812,2.622,2.8318,3.0543,3.2084,3.492,3.7696,3.9715,4.1261,4.2431,4.3076,4.321,4.2802,4.1604,4.2121,4.2631,4.277,4.321,4.3484,4.3484,4.3484,4.322,4.2601,4.3075,4.3075,4.2333,4.2995,4.2986,4.2149,4.2341,4.2103,4.1364,4.1192,4.05,3.9353,3.8519,3.7507,3.6402,3.5906,3.5418,3.4984,3.4984,3.4984,3.5025,3.5513,3.5405,3.491,3.4423,3.4558,3.4804,0.0,0.0,0.0,0.0,0.0,0.0,0.0,0.0,0.0,0.0,0.0,0.0,0.0,0.0,0.0,0.0,0.0,0.0,3.2544,3.3378,3.5556,3.9652,4.0688,4.1993,4.3772,4.459,4.5397,4.6257,4.5922,4.5802,4.5898,4.5073,4.4591,4.4466,4.4882,4.4881,4.456,4.4366,4.3913,4.3314,4.2941,4.241,4.171,4.0165,3.9188,3.8593,3.7857,3.619,3.4356,3.4468,3.3056,3.1391,3.2115,3.1128,2.9595,2.9095,2.7598,2.6121,2.6213,2.5108,2.4179,2.5378,2.507,2.5043,0.0,2.8738,2.9627,2.9508,3.2424,3.5027,3.5053,3.7777,4.0207,4.085,4.1903,4.2675,4.2734,4.2915,4.2976,4.2808,4.3026,4.3429,4.4032,4.4147,4.4192,4.4192,4.4192,4.3893,4.3235,4.328,4.2931,4.2084,4.2867,4.3081,4.2625,4.2645,4.2535,4.2254,4.1467,4.0349,3.8948,3.8253,3.7158,3.5798,3.573,3.5662,3.5595,3.5595,3.5595,3.5608,3.5662,3.5662,3.5581,3.5513,3.554,3.5581,0.0,0.0,0.0,0.0,0.0,0.0,0.0,0.0,0.0,0.0,0.0,0.0,0.0,0.0,0.0,0.0,0.0,0.0,3.2309,3.3734,3.6541,4.1286,4.1869,4.2958,4.4837,4.4807,4.5433,4.6824,4.6538,4.6649,4.7145,4.6601,4.6026,4.5447,4.554,4.5522,4.5335,4.4909,4.4732,4.4687,4.4073,4.3572,4.2976,4.1431,4.0155,3.9005,3.7483,3.6306,0.0,0.0,3.2976,3.1645,3.162,3.0772,2.9654,2.8912,2.7895,2.6959,2.6666,2.6374,2.64,2.7397,2.7573,2.7996,2.9804,3.1433,3.2647,3.2965,3.5353,3.7615,3.8381,3.989,4.1233,4.1932,4.2515,4.2875,4.2875,4.3036,4.3155,4.3155,4.2941,4.318,4.4192,4.3953,4.4042,4.4825,4.4162,4.3713,4.3711,4.3832,4.3658,4.3189,4.3643,4.3676,4.3289,4.3007,4.2708,4.2392,4.2033,4.105,3.9572,3.8808,3.745,3.569,3.569,3.569,3.569,3.569,3.569,3.569,3.569,3.569,3.569,3.569,3.569,3.5743,0.0,0.0,0.0,0.0,0.0,0.0,0.0,0.0,0.0,0.0,0.0,0.0,0.0,0.0,0.0,0.0,0.0,2.7367,3.1295,3.3795,3.7112,4.1583,4.2569,4.3632,4.5,4.5001,4.5615,4.6925,4.6951,4.7368,4.8135,4.7527,4.6862,4.6154,4.6046,4.6028,4.6036,4.5701,4.562,4.5669,4.5032,4.406,4.2805,4.13,3.9813,3.8369,3.6923,3.5886,0.0,0.0,3.2615,3.1515,3.1069,3.0502,2.9796,2.88,2.8188,2.7748,2.7441,2.7811,2.8577,2.988,3.0483,3.1193,3.2939,3.4465,3.5678,3.6336,3.7846,3.9383,4.0518,4.1096,4.1604,4.2234,4.2631,4.283,4.2769,4.2782,4.2709,4.2545,4.2177,4.2325,4.326,4.325,4.3787,4.5185,4.412,4.3696,4.4311,4.4039,4.3825,4.3723,4.3805,4.3703,4.3334,4.2991,4.2648,4.2325,4.2325,4.1408,3.972,3.8542,3.7261,3.5934,3.5771,3.569,3.569,3.569,3.569,3.569,3.569,3.569,3.5737,3.6041,3.6177,3.6257,0.0,0.0,0.0,0.0,0.0,0.0,0.0,0.0,0.0,0.0,0.0,0.0,0.0,0.0,0.0,0.0,2.429,2.6706,3.0211,3.3902,3.7173,3.987,4.2726,4.402,4.3569,4.5649,4.6715,4.6715,4.7476,4.8173,4.8738,4.7307,4.6515,4.6292,4.6282,4.6543,4.6976,4.7145,4.6862,4.6229,4.5701,4.3554,4.0549,3.9058,3.7533,3.6225,3.6356,0.0,0.0,0.0,3.1886,3.088,3.12,3.0911,3.0261,2.9114,2.8463,2.8229,2.8871,2.923,3.0141,3.303,3.3556,3.4149,3.7048,3.825,3.8924,3.9528,4.0074,4.051,4.0738,4.1131,4.1417,4.1432,4.1988,4.2366,4.2154,4.1735,4.1232,4.0647,4.0739,4.0874,4.0904,4.2189,4.3652,4.5185,4.4291,4.4161,4.5209,4.3662,4.2839,4.3025,4.2859,4.2651,4.2442,4.2427,4.231,4.2113,4.2113,4.0986,3.8866,3.6775,3.6083,3.6537,3.5947,3.569,3.569,3.569,3.569,3.569,3.569,3.569,3.5832,3.6871,3.7362,3.7523,0.0,0.0,0.0,0.0,0.0,0.0,0.0,0.0,0.0,0.0,0.0,0.0,0.0,0.0,0.0,0.0,2.3193,2.5371,2.9222,3.2029,3.4781,3.7521,4.0294,4.1803,4.1839,4.2817,4.3885,4.4979,4.5736,4.6498,4.7213,4.72,4.6824,4.6168,4.6074,4.6059,4.6133,4.621,4.5908,4.529,4.4397,4.2732,4.0526,3.8073,3.6238,3.483,0.0,0.0,0.0,0.0,2.999,2.9716,2.9912,2.9595,2.903,2.8287,2.8881,2.974,2.9595,3.1117,3.322,3.5206,3.6283,3.7397,3.937,4.0313,4.07,4.0487,4.0552,4.0562,4.0379,4.0219,4.0305,4.0852,4.1389,4.186,4.2246,4.2268,4.1704,4.0219,4.0487,4.0456,3.9552,4.11,4.2726,4.4131,4.3897,4.3862,4.422,4.3799,4.339,4.301,4.2935,4.2795,4.2602,4.2474,4.2304,4.2092,4.1065,3.9815,3.8401,3.6948,3.6198,3.5974,3.5784,3.569,3.569,3.569,3.569,3.5771,3.6489,3.6762,3.6905,3.7967,3.8858,3.9448,0.0,0.0,0.0,0.0,0.0,0.0,0.0,0.0,0.0,0.0,0.0,0.0,0.0,0.0,0.0,0.0,0.0,2.4273,2.7207,2.978,3.2159,3.4323,3.7034,3.8517,3.8583,3.9324,4.0352,4.1707,4.2446,4.3464,4.4734,4.4931,4.4843,4.4526,4.4415,4.4296,4.4199,4.4741,4.4358,4.331,4.2646,4.0951,3.8569,3.5957,3.4178,0.0,0.0,0.0,0.0,2.956,2.906,2.8975,2.8844,2.8441,2.8067,2.8164,2.9243,3.0572,3.1393,3.3394,3.567,3.7318,3.8678,3.9884,4.0977,4.1479,4.1558,4.1117,4.0349,3.9686,3.9435,3.8683,3.8538,3.9812,4.0001,4.0471,4.1851,4.1561,4.0798,3.9708,3.9957,3.98,3.8682,4.0334,4.2012,4.3254,4.3398,4.3551,4.3785,4.3779,4.351,4.301,4.2935,4.2809,4.2602,4.2459,4.2207,4.1829,4.0462,3.9355,3.8484,3.7201,3.6388,3.6001,3.5784,3.569,3.569,3.569,3.5804,3.6053,3.6966,3.7389,3.7641,3.8716,3.9713,4.0451,0.0,0.0,0.0,0.0,0.0,0.0,0.0,0.0,0.0,0.0,0.0,0.0,0.0,0.0,0.0,0.0,0.0,0.0,2.4366,2.7292,2.9443,3.0464,3.3159,3.4456,3.4061,3.5394,3.6457,3.7199,3.7937,3.9358,4.1329,4.0661,4.0734,4.1394,4.133,4.1243,4.1257,4.2685,4.2169,4.0391,4.0368,3.8229,3.4834,3.2849,0.0,0.0,0.0,0.0,2.9164,2.918,2.9059,2.8755,2.8132,2.7711,2.7699,2.8892,2.9733,3.097,3.4134,3.5974,3.7461,3.9412,4.0695,4.1586,4.1952,4.1814,4.1568,4.1338,3.953,3.7985,3.7985,3.6707,3.6339,3.8443,3.815,3.8514,4.1074,3.9852,3.8831,3.9208,3.9305,3.9073,3.8376,4.006,4.1622,4.2642,0.0,4.3316,4.3899,4.3566,4.3251,4.303,4.2809,4.2602,4.2412,4.2392,4.2042,4.1339,4.0322,3.9557,3.8972,3.7364,3.6619,3.6524,3.5947,3.569,3.569,3.571,3.5998,3.646,3.7087,3.7591,3.8076,3.9139,3.9942,4.0472,0.0,0.0,0.0,0.0,0.0,0.0,0.0,0.0,0.0,0.0,0.0,0.0,0.0,0.0,0.0,0.0,0.0,0.0,2.3418,2.5195,2.6733,2.7901,2.992,3.1382,3.2177,3.2926,0.0,3.4413,3.5262,3.5954,3.6501,3.6916,3.7195,3.7382,3.7302,3.7557,3.8032,3.7726,3.7619,3.7569,0.0,3.4648,3.3004,0.0,0.0,0.0,0.0,2.7466,2.7207,2.7593,2.8606,2.9549,2.8748,2.9724,3.1139,3.1129,3.2487,3.4349,3.5768,3.7842,3.9811,4.0935,4.1912,4.2545,4.2345,4.1494,4.058,4.0016,3.8189,3.6684,3.6684,3.6507,3.6833,3.8318,3.906,4.0017,4.1695,4.1491,4.086,3.9973,4.0742,4.0902,3.9726,4.1366,4.2634,4.2898,4.3419,4.3544,4.3059,4.368,4.3784,4.324,4.2743,4.252,4.2607,4.2325,4.1731,4.0873,4.0611,3.9583,3.7894,3.7454,3.6774,3.5906,3.5771,3.569,3.5723,3.5918,3.6152,3.652,3.7596,3.8198,3.8546,3.9576,4.0061,4.0191,0.0,0.0,0.0,0.0,0.0,0.0,0.0,0.0,0.0,0.0,0.0,0.0,0.0,0.0,0.0,0.0,0.0,0.0,0.0,2.3605,2.4575,2.5422,2.6823,2.8021,2.8935,2.9107,0.0,0.0,0.0,0.0,3.2465,3.2879,3.3305,3.3657,3.3903,3.411,3.4276,3.4516,0.0,0.0,0.0,0.0,0.0,0.0,0.0,0.0,2.7897,2.7636,2.7569,2.8419,2.929,2.9984,2.9638,3.0963,3.2743,3.3337,3.4664,3.6313,3.809,3.9854,4.1362,4.208,4.2426,4.2441,4.1952,4.0342,3.8791,3.8255,3.6229,3.4672,3.4955,3.5083,3.5682,3.724,3.8165,3.9313,4.11,4.1124,4.0959,4.098,4.1642,4.1903,4.141,4.2629,4.3449,4.3449,4.3776,4.3693,4.299,4.3531,4.3562,4.2934,4.2662,4.2541,4.2561,4.2263,4.1641,4.0702,4.0702,3.9588,3.7485,3.7485,3.6842,3.5703,0.0,3.5878,3.5898,3.6132,3.6451,3.6901,3.7907,3.864,3.9165,3.9551,4.0001,4.0347,0.0,0.0,0.0,0.0,0.0,0.0,0.0,0.0,0.0,0.0,0.0,0.0,0.0,0.0,0.0,0.0,0.0,0.0,0.0,0.0,0.0,0.0,2.4148,2.4846,2.5455,2.5263,2.5804,2.7121,2.6557,0.0,0.0,0.0,0.0,0.0,0.0,0.0,0.0,0.0,0.0,0.0,0.0,0.0,0.0,0.0,0.0,0.0,2.7435,2.7862,2.8752,3.0173,3.0672,3.0744,3.0954,3.2189,3.3876,3.5538,3.6552,3.7732,4.0463,4.1713,4.2347,4.2867,4.2451,4.1742,4.1029,3.8751,3.6646,3.6222,3.4038,3.2482,3.332,3.3405,3.4022,3.6086,3.682,3.7904,4.0212,4.0071,4.0349,4.1909,4.2237,4.2557,4.3065,4.3805,4.4233,4.4146,4.4059,4.3789,4.3345,4.3259,4.2988,4.238,4.2561,4.2561,4.2351,4.2133,4.1578,4.0702,4.0637,3.9566,3.7629,3.7526,3.6958,3.5995,3.6142,0.0,3.6426,3.6543,3.6999,3.7639,3.818,3.893,3.9688,3.9329,3.9739,4.0322,0.0,0.0,0.0,0.0,0.0,0.0,0.0,0.0,0.0,0.0,2.0371,2.0325,0.0,0.0,0.0,0.0,0.0,0.0,0.0,0.0,0.0,0.0,2.2842,2.3243,2.4272,2.467,2.4793,2.4622,2.5318,2.5764,0.0,0.0,0.0,0.0,0.0,0.0,0.0,0.0,0.0,0.0,0.0,0.0,0.0,0.0,0.0,0.0,2.5884,2.6507,2.7536,3.0075,3.2251,3.3818,3.3381,3.5214,3.7549,3.7722,3.8776,4.0194,4.1479,4.2327,4.2867,4.2966,4.2241,4.1197,3.9964,3.7233,3.4816,3.4282,3.2318,3.1232,3.3079,3.3525,3.4477,3.7102,3.7918,3.8929,4.0953,4.1138,4.1341,4.2011,4.3021,4.3703,4.3826,4.4864,4.5351,4.4799,4.4269,4.3789,4.3345,4.3154,4.2779,4.2169,4.2366,4.2366,4.2154,4.1724,4.1248,4.0702,4.03,3.9463,3.8225,3.7737,3.7504,3.7502,3.703,0.0,3.8129,3.7782,3.8226,3.9105,3.8882,3.901,3.9291,3.9228,3.8981,3.8624,0.0,0.0,0.0,0.0,0.0,0.0,0.0,1.8815,1.9504,1.9521,2.0064,2.0502,2.0615,2.095,2.1206,0.0,0.0,0.0,0.0,0.0,0.0,0.0,0.0,0.0,0.0,2.3415,2.3756,2.4052,0.0,2.4792,2.5152,2.5242,2.539,2.5523,2.5469,2.5637,0.0,0.0,0.0,0.0,0.0,0.0,0.0,0.0,0.0,0.0,0.0,2.7312,2.8738,3.0893,3.3157,3.5169,3.5747,3.7896,4.0274,4.0514,4.1195,4.2108,4.3322,4.3428,4.3155,4.3155,4.1756,3.9933,3.8272,3.5594,3.329,3.2676,3.1406,3.0855,3.2302,3.3466,3.4722,3.6293,3.7336,3.8711,4.0924,4.072,4.0992,4.2685,4.3241,4.3616,4.3964,4.4567,4.4763,4.4465,4.3855,4.3368,4.3169,4.275,4.2397,4.2107,4.2195,4.2195,4.2092,4.1641,4.1163,4.0702,4.0213,3.9453,3.8374,3.7892,3.7632,3.7579,3.7183,0.0,3.8402,3.7932,3.8506,3.9604,3.9105,3.947,4.0199,3.9469,3.9266,3.9249,0.0,0.0,0.0,0.0,0.0,0.0,0.0,1.8539,1.9119,1.9081,1.9875,2.0603,2.1006,2.1127,2.1134,0.0,0.0,0.0,0.0,0.0,0.0,0.0,0.0,0.0,0.0,0.0,0.0,2.3372,2.3403,0.0,0.0,0.0,0.0,0.0,2.4815,2.4835,2.4966,2.515,0.0,0.0,0.0,2.5185,0.0,0.0,0.0,0.0,0.0,2.826,2.9819,3.1657,3.344,3.5176,3.6865,3.9314,4.1674,4.2206,4.2648,4.33,4.4629,4.416,4.326,4.3145,4.1126,3.8703,3.6862,3.4322,3.2152,3.1436,3.079,3.0636,3.159,3.3005,3.4329,3.5313,3.643,3.8038,4.0427,4.0237,4.0705,4.3029,4.3215,4.3343,4.3868,4.3971,4.3935,4.379,4.3251,4.2894,4.2824,4.2353,4.2092,4.2092,4.2092,4.2113,4.2175,4.1557,4.1086,4.0752,4.0205,3.9522,3.8738,3.8346,3.8131,3.8088,3.779,0.0,0.0,3.8403,3.8928,3.994,3.9326,3.9802,4.065,3.9545,3.9441,3.9699,0.0,0.0,0.0,0.0,0.0,0.0,0.0,1.859,1.9179,1.9897,2.018,2.039,2.0553,2.0677,2.0533,0.0,0.0,0.0,0.0,0.0,0.0,0.0,0.0,0.0,0.0,0.0,0.0,2.1009,2.1846,0.0,0.0,0.0,0.0,0.0,0.0,2.4436,2.4119,2.4259,0.0,0.0,0.0,0.0,0.0,0.0,0.0,0.0,0.0,2.7892,2.8797,3.1619,3.2861,3.3522,3.5254,3.8105,4.0802,4.0872,4.1887,4.3182,4.4059,4.3797,4.3175,4.2616,4.0475,3.8088,3.6573,3.3963,3.1607,3.0777,3.0199,3.0247,3.147,3.1761,3.2646,3.5248,3.6125,3.7257,3.9418,4.0598,4.1517,4.2315,4.3081,4.3572,4.3631,4.3866,4.3754,4.3144,4.2857,4.2567,4.22,4.2121,4.2092,4.2092,4.2092,4.2195,4.2372,4.1297,4.0837,4.0958,4.0132,3.9755,3.9834,3.9505,3.983,4.0633,4.0073,0.0,0.0,4.0404,4.0376,4.0651,3.9989,3.9465,3.9091,3.8991,3.8592,3.8079,0.0,0.0,0.0,0.0,0.0,0.0,1.8352,1.8571,1.8861,1.9799,2.0213,2.0332,2.0107,2.0347,2.0434,2.0236,0.0,0.0,0.0,0.0,0.0,0.0,0.0,0.0,0.0,0.0,2.1043,2.1351,2.1701,0.0,0.0,0.0,0.0,0.0,0.0,2.3909,2.375,2.3679,0.0,0.0,0.0,0.0,0.0,0.0,0.0,0.0,0.0,0.0,2.7716,3.0057,3.1004,3.1382,3.244,3.4545,3.713,3.981,4.0992,4.1915,4.4143,4.3297,4.1862,4.2147,3.9531,3.6526,3.5187,3.3059,3.1216,3.0615,3.0614,3.0953,3.1749,3.2101,3.293,3.4954,3.5104,3.598,3.8948,3.9146,3.9748,4.1803,4.2395,4.2831,4.3372,4.3527,4.3469,4.3188,4.3119,4.2824,4.2304,4.2616,4.2657,4.2284,4.2284,4.214,4.1793,4.1064,4.073,4.0802,4.0184,3.9922,3.9982,3.961,3.9718,4.0196,3.9749,0.0,0.0,3.9533,3.9565,3.9952,3.9306,3.9299,3.955,3.8937,3.8698,3.8574,0.0,0.0,0.0,0.0,0.0,1.6263,1.8195,1.8353,1.8591,1.9479,2.004,2.0237,1.9842,2.0113,2.0339,2.0383,2.0417,0.0,0.0,0.0,0.0,0.0,0.0,0.0,0.0,0.0,2.0538,2.1263,2.1048,2.1779,0.0,0.0,2.3019,2.3871,0.0,0.0,0.0,0.0,0.0,0.0,0.0,0.0,0.0,0.0,0.0,0.0,0.0,0.0,0.0,0.0,0.0,2.9626,3.0005,3.125,3.3422,3.7921,3.9721,4.083,4.3321,4.2668,4.1274,4.1303,3.8695,3.5755,3.4336,3.2509,3.1037,3.0667,3.0845,3.117,3.1523,3.1928,3.2721,3.4303,3.4318,3.5259,3.8453,3.8332,3.8797,4.1155,4.1566,4.1978,4.2807,4.3144,4.3349,4.3503,4.3309,4.309,4.2764,4.297,4.2789,4.2125,4.2104,4.2005,4.1759,4.1162,4.0925,4.1041,4.0586,4.0306,4.0199,4.0061,4.0062,4.0174,3.9746,0.0,0.0,3.8976,3.8862,3.9073,3.8646,3.8803,3.9187,3.8473,3.839,3.8527,0.0,0.0,0.0,0.0,0.0,0.0,1.7355,1.7912,1.8415,1.9023,1.9687,2.0037,1.9815,1.9984,2.0091,2.01,2.022,0.0,0.0,0.0,0.0,0.0,0.0,0.0,0.0,0.0,1.9611,2.0021,1.9413,2.0129,2.2009,2.1669,2.2256,2.3595,0.0,0.0,0.0,0.0,0.0,0.0,0.0,0.0,0.0,0.0,0.0,0.0,0.0,0.0,0.0,0.0,0.0,0.0,0.0,2.8805,3.0263,3.4895,3.8033,4.0208,4.1177,4.1899,4.1918,3.9908,3.8052,3.6233,3.4417,3.2556,3.112,3.0852,3.0628,3.0533,3.0601,3.0732,3.1411,3.323,3.407,3.5353,3.7872,3.8762,3.9449,4.0233,4.0662,4.117,4.1856,4.2745,4.3488,4.3968,4.3374,0.0,4.3571,4.2966,4.2252,4.1438,4.1417,4.1787,4.2567,4.1652,4.1433,4.1886,4.1411,4.1016,4.0723,4.117,4.1381,4.1353,0.0,0.0,0.0,3.9442,3.8819,3.8204,3.8204,3.7836,3.7331,3.7317,3.7317,3.7278,0.0,0.0,0.0,0.0,0.0,0.0,0.0,1.8453,1.9023,1.9647,1.9574,1.9572,1.9779,1.961,1.9447,1.9362,1.9471,0.0,0.0,0.0,0.0,0.0,0.0,0.0,0.0,0.0,1.9727,2.0138,1.9442,1.9841,2.1234,2.0619,2.0891,2.188,2.1823,2.1977,0.0,0.0,0.0,0.0,0.0,0.0,0.0,0.0,0.0,0.0,0.0,0.0,0.0,0.0,0.0,0.0,0.0,0.0,0.0,3.0942,3.3259,3.5537,3.7944,3.7621,3.6696,3.7118,3.5335,3.3395,3.3043,3.1175,2.9716,3.0498,2.9842,2.9462,3.0543,3.0688,3.1201,3.2893,3.3526,3.4495,3.6416,3.775,3.8981,4.0282,4.2211,4.3211,4.2701,4.3575,4.433,4.4664,4.3901,4.3409,4.3395,4.2485,4.1875,4.1598,4.1612,4.1509,4.1291,4.0867,4.0938,4.1483,4.047,4.0134,4.0416,4.0351,4.0075,0.0,0.0,0.0,0.0,3.8885,3.8603,3.7986,3.7986,3.7879,3.7653,3.7245,3.7357,3.769,0.0,0.0,0.0,0.0,0.0,0.0,0.0,1.779,1.8349,1.8765,1.8668,1.8656,1.8905,1.8746,1.8587,1.8447,1.8368,0.0,0.0,0.0,0.0,0.0,0.0,0.0,1.832,1.8618,1.9182,2.0012,1.9123,1.9429,2.0856,2.055,2.0741,2.1338,2.1414,2.1619,0.0,0.0,0.0,0.0,0.0,0.0,2.4626,0.0,0.0,0.0,0.0,0.0,0.0,0.0,0.0,0.0,0.0,0.0,0.0,0.0,3.0065,3.167,3.4727,3.4683,3.3965,3.4708,3.3197,3.156,3.1596,3.0075,2.8858,2.9537,2.903,2.8771,2.9824,3.0138,3.0688,3.2135,3.2891,3.3903,3.557,3.7259,3.8976,4.0793,4.2814,4.3883,4.3394,4.424,4.4718,4.449,4.3777,4.3144,4.2732,4.1904,4.1437,4.1437,4.1283,4.0944,4.043,4.0233,4.0251,4.0463,3.975,3.9486,3.9611,3.9585,3.933,0.0,0.0,0.0,0.0,3.8247,3.812,3.8011,3.7692,3.7695,3.785,3.747,3.7743,3.8291,0.0,0.0,0.0,0.0,0.0,0.0,0.0,1.633,1.6786,1.6916,1.7223,1.7443,1.7487,1.7556,1.7551,1.7436,0.0,0.0,0.0,0.0,0.0,0.0,0.0,0.0,1.7674,1.7574,1.8218,1.9663,1.8564,1.8945,2.0655,2.1015,2.1321,2.157,2.1838,2.199,0.0,0.0,0.0,0.0,0.0,0.0,0.0,0.0,0.0,0.0,0.0,0.0,0.0,0.0,0.0,0.0,0.0,0.0,0.0,0.0,0.0,0.0,0.0,3.2704,3.3049,3.2536,3.1487,3.0458,3.004,2.9146,0.0,2.8139,2.8183,2.8354,2.8582,2.9167,2.9985,3.1141,3.2252,3.356,3.5249,3.7301,3.942,4.1502,4.2641,4.3391,4.37,4.4542,4.4659,4.371,4.316,4.2543,4.1843,4.1304,4.1022,4.1001,4.0637,4.0342,4.0105,3.9892,3.9644,3.9308,3.9395,3.9166,3.8698,3.9095,3.9148,0.0,0.0,0.0,0.0,3.7791,3.7718,3.8357,3.749,3.751,3.7982,3.7864,3.8263,3.8825,0.0,0.0,0.0,0.0,0.0,0.0,0.0,0.0,0.0,0.0,1.6896,1.686,1.7362,1.6988,1.6693,0.0,0.0,0.0,0.0,0.0,0.0,0.0,0.0,0.0,1.7548,1.8243,1.882,1.9241,1.8726,1.8684,1.9114,1.915,1.9502,2.0091,1.9741,2.0335,0.0,0.0,0.0,0.0,0.0,0.0,0.0,0.0,0.0,0.0,2.3865,2.3866,0.0,0.0,0.0,0.0,0.0,0.0,0.0,0.0,2.6155,0.0,2.7531,0.0,2.9155,2.9417,2.8879,2.8301,0.0,2.751,2.6793,2.6947,2.6989,2.7228,2.7889,2.8872,3.0032,3.1391,3.2176,3.3242,3.5023,3.8026,4.0328,4.111,4.2746,4.3396,4.2325,4.3125,4.3856,4.4128,4.3131,4.2582,4.2703,4.1808,4.122,4.1001,4.0908,4.0923,4.1064,4.0837,4.0885,4.1244,4.0358,4.0097,4.0407,4.0267,3.9886,0.0,0.0,0.0,3.945,3.9609,3.98,3.9906,3.9009,3.8773,3.8746,3.7634,3.7616,3.8151,0.0,0.0,0.0,0.0,0.0,0.0,0.0,0.0,0.0,0.0,0.0,1.6017,1.6231,1.5964,0.0,0.0,0.0,0.0,0.0,0.0,0.0,0.0,0.0,1.742,1.7907,1.808,1.8457,1.905,1.8936,1.9027,1.9343,1.9675,1.9877,1.995,1.9497,1.9811,0.0,0.0,0.0,0.0,2.1094,0.0,0.0,0.0,0.0,0.0,2.3496,2.3465,0.0,2.3045,2.3015,2.3094,0.0,0.0,0.0,0.0,2.528,0.0,2.5933,2.6506,2.7167,2.7838,2.7449,2.6996,2.7348,2.6811,2.625,2.6273,2.6399,2.6731,2.743,2.816,2.9205,3.0928,3.1701,3.3029,3.5731,3.8015,3.9847,4.1039,4.2505,4.3166,4.2624,4.3169,4.3524,4.3449,4.2839,4.2427,4.2269,4.1729,4.1381,4.1318,4.1318,4.1119,4.0674,4.052,4.0471,4.0513,3.996,3.9859,4.0165,4.0085,3.9845,0.0,0.0,0.0,4.0086,4.0057,4.0277,4.0545,3.9672,3.9534,3.9705,3.8887,3.8989,3.9507,0.0,0.0,0.0,0.0,0.0,0.0,0.0,0.0,0.0,0.0,0.0,0.0,0.0,0.0,0.0,0.0,0.0,0.0,0.0,0.0,0.0,0.0,1.6693,1.7198,1.8156,1.7574,1.7823,1.8974,1.9136,1.955,2.0172,2.0949,2.0876,2.0133,1.9932,1.9831,0.0,0.0,0.0,0.0,2.0065,0.0,0.0,0.0,0.0,0.0,0.0,0.0,0.0,2.2947,2.2888,2.3001,2.3572,0.0,0.0,0.0,0.0,0.0,2.5392,2.5835,2.6308,2.6968,2.6639,2.6276,2.6698,2.6484,2.6108,2.578,2.6078,2.653,2.6945,2.7398,2.8315,3.0235,3.1435,3.3391,3.7028,3.802,3.9103,4.1163,4.2139,4.2816,4.3218,4.3491,4.3275,4.2398,4.2415,4.2149,4.1438,4.1396,4.148,4.164,4.166,4.1088,3.9914,4.004,3.9856,3.9401,3.9483,3.9544,3.9605,3.9767,3.9828,3.9828,0.0,0.0,4.0949,4.0199,4.0319,4.0914,4.0043,4.0048,4.0535,4.0394,4.0674,4.111,0.0,0.0,0.0,0.0,0.0,0.0,0.0,0.0,0.0,0.0,0.0,0.0,0.0,0.0,0.0,0.0,0.0,0.0,0.0,0.0,0.0,1.6069,1.6707,1.7066,1.7139,1.7404,1.7963,1.8822,1.9194,1.9562,1.996,2.0543,2.0155,1.8974,1.9447,1.9695,1.9741,1.8782,1.8727,1.9322,1.9505,0.0,0.0,0.0,0.0,0.0,0.0,0.0,0.0,2.2914,2.2888,2.2928,2.3015,0.0,0.0,0.0,0.0,0.0,2.4373,2.515,2.5879,2.5941,2.5945,2.5943,2.5906,2.5838,2.5616,2.5018,2.5689,2.6268,2.5854,2.7277,2.8909,3.0145,3.2665,3.556,3.8703,3.9312,3.9942,4.1239,4.2023,4.2243,4.1773,4.2116,4.2295,4.2087,4.1922,4.1702,4.1417,4.1396,4.1417,4.1459,4.1459,4.1117,4.0405,4.1071,4.1473,4.1602,4.1235,4.1158,4.1317,4.1338,4.1358,4.1358,0.0,4.1784,4.1891,4.1749,4.1784,4.1813,4.0928,4.0645,4.0653,3.994,3.9716,3.9802,0.0,0.0,0.0,0.0,0.0,0.0,0.0,0.0,0.0,0.0,0.0,0.0,0.0,0.0,0.0,0.0,0.0,0.0,0.0,0.0,1.5118,1.5342,1.6264,1.7095,1.7803,1.8021,1.8619,1.9558,2.0535,2.0933,2.0751,2.0723,1.9945,1.86,1.8773,1.898,1.9169,1.8417,1.8401,1.8886,0.0,0.0,0.0,0.0,0.0,0.0,0.0,0.0,0.0,0.0,2.2849,2.2849,2.2849,0.0,0.0,0.0,0.0,0.0,2.3859,2.4336,2.4898,2.5492,2.5883,2.6097,2.6029,2.5961,2.588,2.5758,2.6063,2.6474,2.6889,2.7591,2.8797,3.094,3.349,3.5829,3.7589,3.8078,3.8735,4.0049,4.0783,4.1227,4.1394,4.16,4.171,4.1681,4.1591,4.1486,4.1396,4.1262,4.1084,4.0931,4.0756,4.0457,3.9959,4.0224,4.047,4.0688,4.0592,4.0531,4.0523,4.0747,4.0787,4.0709,0.0,4.1352,4.1047,4.141,4.1337,4.0998,4.0868,4.0862,4.0964,4.092,4.0893,4.085,0.0,0.0,0.0,0.0,0.0,0.0,0.0,0.0,0.0,0.0,0.0,0.0,0.0,0.0,0.0,0.0,0.0,0.0,0.0,1.4666,1.4845,1.473,1.5742,1.6955,1.8332,1.8492,1.9164,2.0402,2.1733,2.2084,2.1494,2.0955,1.9914,1.8488,1.8208,1.8331,1.8721,1.8279,1.8332,1.874,0.0,0.0,0.0,0.0,0.0,0.0,0.0,0.0,0.0,0.0,0.0,0.0,0.0,0.0,0.0,2.2792,2.2902,2.3091,2.3505,2.3751,2.4114,2.4976,2.567,2.6211,2.6469,2.6392,2.637,2.6777,2.6687,2.6874,2.798,2.8455,2.9558,3.2221,3.4405,3.6024,3.6722,3.7298,3.8084,3.9219,3.9911,4.0561,4.117,4.1204,4.1125,4.102,4.1077,4.1005,4.0821,4.0752,4.054,4.0144,4.0072,3.974,3.9127,3.9137,3.9248,3.9502,3.9556,3.9556,3.9502,3.9807,3.9901,3.9845,4.0555,4.0568,4.0133,4.0655,4.0554,4.0127,4.0504,4.0732,4.0945,4.1613,4.186,4.1796,0.0,0.0,0.0,0.0,0.0,0.0,0.0,0.0,0.0,0.0,0.0,0.0,0.0,0.0,0.0,0.0,0.0,0.0,0.0,1.3964,1.4148,1.4515,1.5315,1.6365,1.7641,1.8165,1.929,2.1044,2.1889,2.2032,2.1489,2.0944,1.9914,1.8478,1.7952,1.816,1.8838,1.805,1.819,1.8858,1.8401,0.0,0.0,0.0,0.0,0.0,0.0,0.0,0.0,0.0,0.0,0.0,0.0,0.0,2.2486,2.2802,2.2811,2.2825,2.322,2.361,2.3917,2.4007,2.4842,2.5927,2.6995,2.6975,2.6919,2.7494,2.7399,2.7429,2.8081,3.0218,3.2398,3.4059,3.5761,3.716,3.7958,3.8941,3.9641,3.9746,4.0449,4.0894,4.0752,4.0638,4.038,3.9949,4.0089,3.9876,3.9112,3.9598,3.9626,3.9027,3.9535,3.924,3.8016,3.8627,3.9126,3.9502,3.9147,3.9153,3.9502,3.9522,3.9642,3.9816,4.0063,4.0133,4.0104,4.0147,4.0133,4.0104,4.0127,4.0176,4.0249,4.0916,4.1163,4.125,0.0,0.0,0.0,0.0,0.0,0.0,0.0,0.0,0.0,0.0,0.0,0.0,0.0,0.0,0.0,0.0,0.0,0.0,0.0,1.3912,1.4264,1.4367,1.4951,1.5998,1.7567,1.8983,2.059,2.2414,2.2259,2.1566,2.0365,1.98,1.8862,1.769,1.761,1.7583,1.7594,1.754,1.7661,1.7906,1.8024,1.8594,0.0,0.0,0.0,0.0,0.0,0.0,0.0,0.0,2.2632,2.1983,0.0,0.0,2.2483,0.0,2.2496,2.2844,2.2912,2.3348,2.3872,2.4238,2.4918,2.5766,2.6859,2.7698,2.8304,2.8516,2.9239,2.9963,3.0364,3.154,3.2939,3.4437,3.5667,3.6806,3.7865,3.8725,3.9374,3.9767,4.0411,4.0778,4.0702,4.0644,4.0397,3.9851,3.9872,3.9625,3.8944,3.9106,3.8938,3.8305,3.8496,3.8201,3.7344,3.7588,3.7794,3.7938,3.7913,3.7913,3.7958,3.8325,3.848,3.847,3.9208,3.9305,3.8942,3.9363,3.9291,3.8957,3.9378,3.9613,3.9893,4.1188,4.1582,4.163,0.0,0.0,0.0,0.0,0.0,0.0,0.0,0.0,0.0,0.0,0.0,0.0,0.0,0.0,0.0,0.0,0.0,0.0,1.3536,1.4187,1.4664,1.489,1.5296,1.6357,1.8162,1.9743,2.1328,2.2881,2.2326,2.1061,1.9194,1.888,1.8139,1.7074,1.7143,1.7192,1.7213,1.7145,1.7328,1.7678,1.7929,1.8547,0.0,0.0,0.0,0.0,0.0,0.0,0.0,0.0,2.2246,0.0,0.0,0.0,0.0,0.0,2.2477,2.2851,2.278,2.3077,2.3558,2.4165,2.4857,2.5788,2.7272,2.8482,2.9381,2.9698,3.0794,3.1834,3.2194,3.2733,3.3494,3.4738,3.5905,3.6885,3.7526,3.8361,3.8966,3.9191,3.9745,4.0146,4.0126,3.9929,3.9642,3.9226,3.9205,3.8853,3.8072,3.8376,3.8207,3.7358,3.757,3.7308,3.6445,3.6489,3.6392,3.6152,3.6158,3.6503,3.7109,3.7605,3.7758,3.7749,3.8467,3.8735,3.8645,3.9053,3.9097,3.9003,3.9712,3.9955,4.0072,4.1406,4.1942,4.2153,0.0,0.0,0.0,0.0,0.0,0.0,0.0,0.0,0.0,0.0,0.0,0.0,0.0,0.0,0.0,0.0,0.0,0.0,1.4474,1.4743,1.5277,1.614,1.6437,1.7483,1.9421,2.0262,2.1164,2.2182,2.1975,2.0575,1.8092,1.8438,1.7942,1.6794,1.6586,1.7086,1.8011,1.6953,1.7225,1.8367,1.8178,1.8424,1.8974,0.0,0.0,0.0,0.0,0.0,0.0,0.0,2.1805,0.0,0.0,0.0,0.0,2.2732,2.2795,2.2806,2.288,2.2849,2.2953,2.3556,2.4556,2.603,2.8349,2.9317,2.9998,3.1014,3.1845,3.2578,3.3196,3.3796,3.4417,3.5091,3.6703,3.7667,3.7049,3.8066,3.8629,3.7962,3.8474,3.8888,3.8902,3.8291,3.7906,3.7906,3.7892,3.7358,3.6155,3.7217,3.7316,3.6112,3.6845,3.6601,3.52,3.5378,3.5093,3.4289,3.39,3.4956,3.7289,3.7495,3.7687,3.7891,3.7906,3.8518,3.9481,3.93,3.9731,4.0593,4.1396,4.1339,4.0884,4.1514,4.2098,4.2695,0.0,0.0,0.0,0.0,0.0,0.0,0.0,0.0,0.0,0.0,0.0,0.0,0.0,0.0,0.0,0.0,0.0,0.0,1.3791,1.4189,1.4631,1.5119,1.5134,1.5697,1.6937,1.8025,1.9236,2.0581,2.0381,1.9355,1.7594,1.7476,1.7052,1.646,1.6669,1.6583,1.6267,1.6277,1.6348,1.6499,1.7289,1.8011,1.8746,0.0,0.0,0.0,0.0,0.0,0.0,0.0,0.0,0.0,0.0,0.0,0.0,2.1528,2.1964,2.2615,2.3053,2.3103,2.3238,2.4163,2.5085,2.6215,2.793,2.9413,3.0853,3.2353,3.2415,3.259,3.3899,3.3932,3.4052,3.4869,3.5281,3.5459,3.5317,3.6254,3.6863,3.6661,3.7555,3.8188,3.8205,3.8402,3.8367,3.7932,3.7498,3.6811,3.5725,3.5614,3.5285,3.464,3.4848,3.4784,3.4358,3.4269,3.4103,3.388,3.3905,3.487,3.667,3.6585,3.6959,3.773,3.8481,3.8919,3.9122,3.9819,4.0518,4.1164,4.1396,4.1629,4.1984,4.3063,4.3491,4.3676,0.0,0.0,0.0,0.0,0.0,0.0,0.0,0.0,0.0,0.0,1.2553,1.2446,0.0,0.0,0.0,0.0,0.0,0.0,0.0,1.4489,1.5014,1.5203,1.5322,1.5652,1.6236,1.7151,1.7893,1.8426,1.8559,1.7955,1.6721,1.6635,1.6465,1.6269,1.6574,1.6537,1.625,1.6224,1.6256,1.6453,1.7516,1.8292,1.8923,0.0,0.0,0.0,0.0,0.0,0.0,0.0,0.0,0.0,1.9979,2.0949,2.2014,2.1986,2.2342,2.2873,2.3359,2.3265,2.3301,2.4485,2.5279,2.6267,2.8152,3.0299,3.2384,3.4101,3.3508,3.2994,3.3962,3.3654,3.3459,3.4066,3.437,3.4498,3.4384,3.5024,3.5492,3.5492,3.65,3.7077,3.6854,3.737,3.749,3.6863,3.6343,3.5772,3.5152,3.4628,3.435,3.4307,3.3925,3.3676,3.359,3.3239,3.2919,3.2627,3.2719,3.3576,3.5111,3.5282,3.5895,3.6829,3.816,3.8606,3.8563,4.0259,4.0993,4.1118,4.1776,4.2108,4.2375,4.3719,4.4226,4.4349,0.0,0.0,0.0,0.0,0.0,0.0,0.0,0.0,0.0,0.0,1.2183,1.2061,0.0,0.0,0.0,0.0,0.0,0.0,0.0,1.5316,1.5946,1.5941,1.6368,1.6637,1.6721,1.7108,1.6931,1.6117,1.6755,1.6622,1.5806,1.6072,1.6222,1.6284,1.637,1.6768,1.7264,1.6519,1.6657,1.7479,1.8359,1.8857,1.9228,2.0661,0.0,0.0,0.0,0.0,0.0,0.0,0.0,0.0,2.0353,2.1426,2.2619,2.315,2.3204,2.3165,2.3562,2.3242,2.317,2.4585,2.5445,2.6587,2.8945,3.1706,3.4144,3.5525,3.4616,3.3565,3.3565,3.311,3.2768,3.292,3.3717,3.4159,3.3677,3.3947,3.4223,3.4223,3.5068,3.5461,3.49,3.5447,3.5587,3.497,3.4636,3.4395,3.4237,3.3954,3.4014,3.4509,3.3584,3.3053,3.2962,3.2352,3.1727,3.1102,3.1048,3.1746,3.3111,3.3829,3.4697,3.5717,3.7173,3.7772,3.7916,4.0404,4.1039,4.0588,4.2209,4.2595,4.24,4.3613,4.4341,4.4623,0.0,0.0,0.0,0.0,0.0,0.0,0.0,0.0,0.0,0.0,0.0,0.0,0.0,0.0,0.0,0.0,0.0,0.0,0.0,1.5131,1.5505,1.5602,1.5804,1.5952,1.601,1.6002,1.5846,1.5493,1.6309,1.6651,1.6564,1.6842,1.691,1.6824,1.6691,1.6638,1.6599,1.6326,1.6369,1.6726,1.7635,1.8057,1.8211,1.9322,1.9738,0.0,0.0,0.0,0.0,0.0,0.0,0.0,1.8934,1.9607,2.0445,2.0884,2.124,2.1665,2.2429,2.2452,2.2733,2.4665,2.6996,2.9186,3.0622,3.2616,3.3905,3.3011,3.3101,3.3362,3.3362,3.3125,3.2661,3.1811,3.2003,3.1885,3.0842,3.1053,3.1299,3.1299,3.192,3.2288,3.2151,3.3111,3.3527,3.2969,3.3224,3.3076,3.2281,3.2159,3.2228,3.2441,3.1838,3.1899,3.2757,3.2003,3.1702,0.0,3.2007,3.2378,3.2949,3.307,3.4423,3.6671,3.6383,3.6907,3.8017,3.9002,3.9624,4.0068,4.1158,4.2302,4.3319,4.3058,4.3373,4.3857,0.0,0.0,0.0,0.0,0.0,0.0,0.0,0.0,0.0,0.0,0.0,0.0,0.0,0.0,0.0,0.0,0.0,0.0,0.0,0.0,1.5721,1.6327,1.612,1.5847,1.5563,1.5496,1.5257,1.4828,1.5792,1.6313,1.6425,1.6718,1.6914,1.6993,1.671,1.664,1.6679,1.6519,1.6631,1.698,1.7604,1.7886,1.805,1.8878,1.909,1.8943,1.9029,0.0,0.0,0.0,0.0,0.0,0.0,0.0,2.0278,2.1006,2.1406,2.1785,2.253,2.2696,2.3127,2.5058,2.7416,2.9521,3.0558,3.1688,3.2469,3.2272,3.2959,3.3486,3.321,3.2981,3.2473,3.1336,3.1676,3.1488,2.9808,3.0092,3.0402,3.0131,3.0827,3.119,3.0905,3.1711,3.1996,3.1429,3.1478,3.1415,3.1176,3.0996,3.1166,3.1787,3.128,3.1421,3.2255,3.1766,3.1606,3.1808,3.1832,3.1896,3.2025,3.2914,3.3792,3.458,3.4905,3.5376,3.6002,3.6752,3.7429,3.8047,3.8697,3.9646,4.0708,4.1436,4.1989,4.2346,0.0,0.0,0.0,0.0,0.0,0.0,0.0,0.0,0.0,0.0,0.0,0.0,0.0,0.0,0.0,0.0,0.0,0.0,0.0,0.0,0.0,1.7178,1.6674,1.6108,1.5581,1.559,1.5301,1.4703,1.5613,1.6074,1.6115,1.6495,1.6799,1.7026,1.6723,1.6696,1.6884,1.6769,1.6939,1.7332,1.7588,1.7776,1.7946,1.8483,1.8469,1.8171,1.8329,1.8008,1.7506,1.7547,0.0,0.0,0.0,0.0,2.0473,2.1415,2.1745,2.1967,2.2597,2.3195,2.4027,2.5592,2.7487,2.9133,2.975,3.031,3.0933,3.1781,3.27,3.3216,3.2719,3.2496,3.1968,3.0725,3.1423,3.1437,2.9441,2.9762,3.0055,2.9671,3.0265,3.0508,2.9991,3.0508,3.0603,2.9991,2.9799,2.99,3.0334,3.0113,3.0494,3.1626,3.105,3.1111,3.1946,3.1598,3.1505,3.1657,3.1487,3.1332,3.1258,3.2962,3.3143,3.2129,3.3321,3.3807,3.3854,3.4683,3.5381,3.5956,3.6377,3.6907,3.7618,3.9346,4.0169,4.0375,0.0,0.0,0.0,0.0,0.0,0.0,0.0,0.0,0.0,0.0,1.2753,1.3111,0.0,0.0,0.0,0.0,0.0,0.0,0.0,0.0,0.0,1.689,1.6696,1.6596,1.6677,1.6742,1.6617,1.6294,1.6546,1.6617,1.6538,1.71,1.7306,1.7178,1.7,1.6765,1.6494,1.6636,1.6649,1.657,1.6789,1.6937,1.7068,1.7027,1.7228,1.7523,1.7554,1.7527,1.7537,1.7767,1.7855,0.0,0.0,0.0,1.9109,1.9489,1.9779,2.0123,2.0848,2.2988,2.5242,2.6122,2.7973,2.9484,2.9145,3.0128,3.0788,2.9637,3.036,3.1192,3.1106,3.1125,3.0562,2.8786,2.9487,2.9868,2.8757,2.8611,2.8693,2.8906,2.8547,2.8239,2.816,2.8703,2.8796,2.8186,2.8894,2.9245,2.8972,2.9254,2.9936,3.106,3.0082,3.0508,3.2565,3.1568,3.1474,3.2277,3.2248,3.2143,3.1994,3.2757,3.2957,3.2667,3.2525,3.3074,3.4076,3.4315,3.4905,3.5719,3.6418,3.7179,3.7843,3.7348,3.757,3.8028,0.0,0.0,0.0,0.0,0.0,0.0,0.0,0.0,0.0,0.0,0.0,1.3461,0.0,0.0,0.0,0.0,0.0,0.0,0.0,0.0,0.0,1.6919,1.7123,1.7007,1.6562,1.679,1.6654,1.6205,1.649,1.6602,1.6556,1.7077,1.724,1.7073,1.6992,1.6757,1.6468,1.6633,1.6654,1.6588,1.678,1.6897,1.696,1.6971,1.7152,1.7404,1.744,1.745,1.7481,1.7801,1.7757,1.7604,1.7754,0.0,0.0,0.0,1.9978,2.062,2.2231,2.3569,2.4944,2.6692,2.7855,2.886,2.995,2.9903,2.9783,3.0351,3.005,2.9784,3.0172,3.0881,3.0909,2.9418,2.9688,2.9829,2.8947,2.8851,2.8819,2.8688,2.8495,2.8268,2.8,2.8206,2.8259,2.7994,2.8374,2.8496,2.8215,2.867,2.914,2.9534,2.9394,2.9777,3.0797,3.0609,3.086,3.1617,3.1925,3.1855,3.1498,3.1989,3.2227,3.2299,3.2427,3.2695,3.3058,3.3501,3.4109,3.4794,3.5186,3.5531,3.5826,3.5986,3.6123,3.6215,0.0,0.0,0.0,0.0,0.0,0.0,0.0,0.0,0.0,0.0,0.0,0.0,0.0,0.0,0.0,0.0,0.0,0.0,0.0,0.0,0.0,0.0,1.7186,1.7075,1.6488,1.6788,1.6732,1.6285,1.6576,1.6708,1.6692,1.7044,1.7147,1.7055,1.7002,1.6844,1.6607,1.6759,1.6737,1.662,1.6928,1.6989,1.695,1.7292,1.7516,1.7644,1.7649,1.7652,1.7673,1.777,1.7618,1.7425,1.7509,1.8081,0.0,0.0,0.0,2.1481,2.3435,2.4017,2.4604,2.6772,2.7415,2.8015,2.9927,2.9408,2.891,3.024,3.0036,2.9474,2.9087,3.0364,3.1085,2.9891,3.0003,2.9937,2.9061,2.9008,2.8976,2.8748,2.8656,2.8495,2.818,2.8148,2.8148,2.8148,2.8128,2.8033,2.7888,2.8245,2.8447,2.839,2.8691,2.8991,2.9292,2.9706,3.0124,3.0574,3.1098,3.1159,3.0796,3.1289,3.1633,3.1844,3.2339,3.2544,3.2485,3.3013,3.3679,3.4392,3.4495,3.4461,3.445,3.5103,3.5092,3.4813,0.0,0.0,0.0,0.0,0.0,0.0,0.0,0.0,0.0,0.0,0.0,0.0,1.3516,1.3861,1.382,1.3106,1.3298,0.0,0.0,0.0,0.0,0.0,0.0,0.0,1.6954,1.7235,1.7349,1.7322,1.7338,1.73,1.7157,1.7196,1.7199,1.7188,1.7188,1.7076,1.6886,1.7084,1.685,1.6366,1.6955,1.6997,1.6806,1.7711,1.817,1.8321,1.815,1.818,1.8259,1.7713,1.7471,1.7425,1.7628,1.8406,1.9279,0.0,0.0,0.0,2.3066,2.3949,2.4832,2.5979,2.6667,2.7214,2.7911,2.8489,2.8578,2.7548,2.9683,3.0733,2.7455,2.8892,3.0192,2.9056,2.9573,2.9742,2.8675,2.8433,2.8543,2.902,2.8506,2.818,2.8284,2.83,2.83,2.83,2.818,2.8096,2.8079,2.7931,2.8012,2.8377,2.7889,2.8133,2.9292,2.9331,2.9358,2.9397,2.9933,3.0176,3.0184,3.0948,3.1434,3.1646,3.2045,3.2584,3.3157,3.3255,3.4033,3.5152,3.5152,3.5152,3.5103,3.4773,3.4332,3.3827,0.0,0.0,0.0,0.0,0.0,0.0,0.0,0.0,0.0,0.0,0.0,0.0,0.0,1.4707,1.4621,1.4025,1.4049,0.0,0.0,0.0,0.0,0.0,0.0,0.0,1.6559,1.7154,1.7458,1.7458,1.7591,1.7499,1.7209,1.7455,1.7588,1.7567,1.7323,1.7157,1.7084,1.7073,1.6947,1.6846,1.7821,1.8036,1.7858,1.896,1.9309,1.9249,1.9404,1.9006,1.8484,1.899,1.8549,1.7871,1.8375,1.884,1.9298,1.994,2.0716,2.1672,2.3142,2.3685,2.4236,2.5902,2.6345,2.6646,2.777,2.7951,2.787,2.7932,2.8589,2.8971,2.8415,2.9815,3.0711,2.9622,2.9346,2.939,2.9734,2.9,2.8516,2.8748,2.8638,2.8479,2.832,2.8303,2.8352,2.8476,2.833,2.8232,2.8232,2.8082,2.7994,2.8009,2.7691,2.7885,2.8704,2.8717,2.8913,2.9292,2.9483,2.9784,3.01,3.0516,3.0966,3.1434,3.1835,3.2223,3.2596,3.3203,3.371,3.4158,3.4627,3.4543,3.409,3.3953,3.3262,3.2451,0.0,0.0,0.0,0.0,0.0,0.0,0.0,0.0,0.0,1.46,0.0,0.0,0.0,0.0,1.494,1.4471,1.4699,1.5044,1.5472,1.5562,0.0,0.0,0.0,0.0,1.6537,1.71,1.7427,1.7471,1.769,1.7588,1.7209,1.7669,1.7838,1.7787,1.7567,1.7526,1.7618,1.7362,1.7196,1.7207,1.8343,1.8414,1.7997,1.95,1.9757,1.9393,1.9817,1.9492,1.8989,1.9852,1.9539,1.8894,1.9449,1.9701,1.9996,2.1008,2.1394,2.1826,2.3345,2.3611,2.3865,2.555,2.5754,2.5868,2.7163,2.7319,2.7361,2.8034,2.821,2.8406,2.885,2.9922,3.0423,2.9448,2.881,2.8546,2.8884,2.8173,2.7699,2.7991,2.8069,2.812,2.8222,2.817,2.8219,2.8422,2.8298,0.0,2.8219,2.8148,2.8,2.7805,2.7606,2.7689,2.8085,2.8098,2.8294,2.8686,2.89,2.917,2.9531,2.9871,3.0387,3.1001,3.1289,3.1702,3.2241,3.2868,3.3315,3.3644,3.4073,3.3936,3.3506,3.3506,3.2671,3.1689,0.0,0.0,0.0,0.0,0.0,0.0,0.0,0.0,1.4947,1.4558,0.0,0.0,0.0,0.0,0.0,1.4387,1.5117,1.541,1.4961,1.535,1.5745,1.6081,1.6224,1.6527,1.6993,1.7134,1.7264,1.7404,1.7683,1.7608,1.723,1.7767,1.7958,1.7838,1.7968,1.8216,1.85,1.8018,1.7602,1.7385,1.844,1.8107,1.7191,1.9282,1.9489,1.8755,1.9353,1.97,1.9883,2.0158,2.0312,2.0454,2.0771,2.1031,2.1415,2.2383,2.248,2.252,0.0,0.0,0.0,2.4835,2.4835,2.4888,2.5938,2.6541,2.7008,2.7547,2.8637,2.927,2.8513,2.8904,2.9103,2.8394,2.7954,2.7281,2.6032,2.5842,2.6096,2.6778,2.6773,2.7058,2.7983,2.7891,2.7888,2.8052,2.8052,2.8039,2.8042,2.8039,2.797,2.7779,2.7593,2.749,2.749,2.749,2.749,2.7503,2.8085,2.8377,2.8416,2.9004,2.9669,3.037,3.037,3.1046,3.2173,3.2341,3.2938,3.3728,3.3541,3.3454,3.3454,3.3454,3.2605,3.1574,0.0,0.0,0.0,0.0,0.0,0.0,1.3934,1.4317,1.4654,0.0,0.0,0.0,1.5477,1.5456,1.5511,1.566,1.5579,1.5576,1.5683,1.5585,1.5635,1.5864,1.616,1.6527,1.6993,1.7134,1.7292,1.7468,1.8032,1.8078,1.7659,1.8326,1.8679,1.8745,1.8679,1.8917,1.9319,1.8496,1.7797,1.741,1.9478,1.9576,1.8724,2.0957,2.1209,2.0423,2.1066,2.0997,2.0681,2.1239,2.0873,2.0176,2.0121,2.0807,2.1684,2.1979,2.2073,2.2307,2.3271,0.0,0.0,0.0,0.0,0.0,2.5696,2.5894,2.6121,2.6712,2.7044,2.7315,2.769,2.7731,2.773,2.7719,2.7916,2.7924,2.7532,2.6877,2.6361,2.6128,2.6457,2.6836,2.7204,2.7571,2.7703,0.0,2.7217,2.6952,2.6656,2.6928,2.7007,2.6801,2.7251,2.749,2.749,2.749,2.749,2.749,2.7676,2.7981,2.8403,2.8573,2.9,2.9599,2.9759,3.0308,3.1168,3.1942,3.2318,3.2431,3.2521,3.2467,3.2336,3.2173,3.1717,3.1176,0.0,0.0,0.0,0.0,0.0,1.4812,1.4406,1.4485,1.463,0.0,0.0,0.0,1.6335,1.6022,1.5951,1.638,1.6109,1.5998,1.6196,1.6033,1.601,1.6204,1.657,1.6898,1.7204,1.7344,1.7419,1.7461,1.825,1.8334,1.7818,1.8636,1.902,1.9016,1.8997,1.9109,1.9301,1.8983,1.8557,1.8237,1.9961,2.0032,1.9298,2.1123,2.1197,2.0401,2.1115,0.0,2.0776,2.1651,2.1737,2.1473,2.1396,2.1665,2.2062,2.2339,2.22,2.2202,2.333,2.3809,2.4042,2.4256,0.0,0.0,2.5803,2.5891,2.6169,2.7411,2.7118,2.6919,2.7833,2.7381,2.6995,2.7434,2.7684,2.7586,2.6859,2.5854,2.5199,2.5205,2.5341,2.5631,2.6179,2.6497,2.67,2.677,2.6371,2.6157,2.6227,2.6446,2.6668,2.6853,2.722,2.7436,2.749,2.749,2.749,2.749,2.749,2.7676,2.802,2.802,2.8347,2.8926,2.9053,2.9654,3.0627,3.1298,3.1739,3.2005,3.2055,3.195,3.1767,3.1633,3.1254,3.0788,0.0,0.0,0.0,1.5163,1.5278,1.5221,1.4869,1.4804,1.4862,0.0,1.5505,1.6114,1.6771,1.6332,1.6196,1.6693,1.6623,1.6559,1.6595,1.6565,1.6637,1.6858,1.7186,1.7413,1.7537,1.7614,1.7597,1.7494,1.8358,1.849,1.7978,1.8841,1.9151,1.8977,1.9087,1.9074,1.9018,1.9433,1.9609,1.9638,2.0214,1.9962,1.941,2.0655,2.0468,1.9645,2.0342,2.0531,2.0587,2.158,2.2572,0.0,2.3354,2.2959,2.2631,2.3163,2.2751,2.2399,2.369,2.4062,2.4162,2.4487,2.4544,0.0,2.6024,2.6116,2.652,2.8501,2.7823,2.7195,2.828,2.7345,2.6665,2.7377,2.7331,2.667,2.5204,2.407,2.363,2.4229,2.3899,2.4014,2.5041,2.5094,2.5301,2.589,2.5473,2.5454,2.6104,2.621,2.6589,2.7335,2.7248,2.7304,2.749,2.749,2.749,2.749,2.749,2.749,2.749,2.749,2.7781,2.8298,2.8298,2.9013,3.0199,3.0498,3.1168,3.2032,3.1913,3.1748,3.1556,3.154,3.1098,3.0499,0.0,0.0,1.565,1.5657,1.5691,1.5634,1.5449,1.5515,1.5568,1.5477,1.5934,1.6345,1.6477,1.6538,1.6659,1.693,1.6871,1.6937,1.7206,1.6968,1.6958,1.7269,1.7152,1.7307,1.7808,1.7481,1.757,1.8121,1.8475,1.8741,1.8945,1.9343,1.9496,1.9459,1.9376,1.9656,2.0149,1.9823,2.0352,2.1391,2.1297,2.0909,2.0539,2.1974,2.1938,2.1155,2.1206,2.1283,2.1336,2.1292,2.2261,2.3285,0.0,0.0,0.0,2.3488,2.3484,2.369,2.4126,2.4125,2.4062,0.0,2.4467,0.0,2.551,2.5351,2.5332,2.6284,2.5905,2.5754,2.688,2.6461,2.6271,2.733,2.6938,2.6268,2.5638,2.534,2.4819,2.3797,2.373,2.3843,2.406,2.4508,2.4655,2.4363,2.4387,2.4427,2.4479,2.504,2.5681,2.6435,2.652,2.6859,2.749,2.749,2.749,2.749,2.749,2.749,2.749,2.749,2.7555,2.7676,2.7676,2.8102,2.8869,2.9697,3.0713,3.1688,3.1683,3.1527,3.1347,3.1174,3.1113,3.1006,0.0,1.5366,1.5675,1.5434,1.5732,1.5914,1.568,1.5567,1.5544,1.5686,1.628,1.6765,1.6924,1.7193,1.7318,1.7214,1.7261,1.7347,1.7434,1.7357,1.7326,1.7399,1.7365,1.7519,1.7892,1.7804,1.7978,1.8442,1.8912,1.9203,1.929,1.9545,1.9638,1.9608,1.9814,2.0076,2.0366,2.0592,2.1183,2.1917,2.1486,2.1384,2.1592,2.2383,2.2284,2.17,2.1628,2.1604,2.1609,2.1678,2.2405,0.0,2.2859,2.3436,2.418,0.0,2.3798,2.395,0.0,0.0,0.0,2.4374,0.0,0.0,0.0,2.5765,2.5865,2.6798,2.6361,2.5957,2.6547,2.6181,2.5989,2.6562,2.6517,2.6187,2.5535,2.5069,2.4644,2.42,2.3538,2.323,2.3567,2.3597,2.3497,2.322,2.3758,2.4195,2.4393,2.4501,2.5023,2.6025,2.6202,2.6511,2.6947,2.7313,2.749,2.749,2.749,2.749,2.749,2.749,2.749,2.7506,2.7606,2.7985,2.8614,2.9196,3.0112,3.1183,3.1489,3.1485,3.1251,3.0845,3.0887,3.1,1.5333,1.5666,1.5792,1.5346,1.5893,1.6275,1.5936,1.5732,1.5745,1.6125,1.671,1.7193,1.7431,1.7767,1.7841,1.7485,1.7672,1.7747,1.7591,1.7696,1.7615,1.7294,1.7581,1.7777,1.7775,1.8165,1.8481,1.875,1.935,1.9603,1.9479,1.9639,1.9728,1.9788,2.0331,2.0588,2.0665,2.147,2.1986,2.2207,2.1578,2.1784,2.2466,2.2523,2.227,2.1876,2.1712,2.1698,2.1829,2.2121,2.2592,2.3193,2.3671,2.3933,0.0,0.0,0.0,0.0,0.0,0.0,0.0,0.0,0.0,2.4808,0.0,0.0,0.0,2.7365,2.6891,2.633,2.6422,2.6004,2.5633,2.5582,2.6011,2.6033,2.5127,2.4489,2.4227,2.4533,2.332,2.2668,2.3201,2.2721,2.2411,2.2561,2.3371,2.4126,2.4664,2.4359,2.4687,2.5851,2.6067,2.627,2.656,2.7155,2.7469,2.749,2.749,2.749,2.749,2.749,2.749,2.7506,2.7673,2.8033,2.8494,2.8803,2.9487,3.0401,3.1101,3.1341,3.1238,3.0721,3.0682,3.0737,1.5574,1.617,1.6648,1.6296,1.6706,1.6968,1.6643,1.6911,1.7229,1.7452,1.7452,1.741,1.7335,1.7669,1.7848,1.769,1.8008,1.8111,1.7868,1.7925,1.764,1.6897,1.7566,1.7789,1.7377,1.816,1.8808,1.9314,1.9442,1.9603,1.9762,1.978,1.9967,2.0336,2.0926,2.152,2.2064,2.2178,2.2586,2.3091,2.2428,2.2508,2.2979,2.2765,2.25,2.2142,2.1373,2.1648,2.2339,0.0,2.24,2.3027,0.0,2.2952,2.3454,2.3327,0.0,0.0,0.0,0.0,0.0,0.0,2.4421,0.0,0.0,0.0,2.4921,2.5297,0.0,2.5332,2.579,0.0,0.0,2.4775,2.5342,2.5423,2.438,2.4605,2.4595,2.3824,2.3102,2.2701,2.2758,2.2233,2.2128,2.2721,2.3196,2.37,2.4241,2.4557,2.509,2.5864,2.5922,2.6346,2.7198,2.7276,2.7386,2.749,2.749,2.749,2.749,2.749,2.749,2.749,2.7523,2.7562,2.7684,2.8428,2.8817,2.9024,3.0103,3.0842,3.1259,3.102,3.0737,3.0397,1.5653,1.6126,1.6528,1.6063,1.6561,1.6981,1.6846,1.718,1.756,1.7841,1.8126,1.8364,1.8501,1.8945,1.9038,1.8542,1.8604,1.8453,0.0,1.7889,1.7786,1.7667,1.7871,1.8076,1.8224,1.8693,1.9175,1.963,1.9782,2.0086,2.0552,2.0433,2.0617,2.105,2.1391,2.1856,2.2437,2.2869,2.3451,2.4023,2.3663,2.364,0.0,2.2986,2.2363,2.194,2.2311,2.252,2.2678,0.0,2.3465,0.0,0.0,0.0,0.0,2.3818,0.0,0.0,0.0,0.0,0.0,0.0,0.0,0.0,2.4742,0.0,2.4746,0.0,0.0,0.0,0.0,0.0,0.0,0.0,2.4746,2.4599,2.4112,2.3897,2.3826,2.3929,0.0,0.0,2.2226,2.1702,2.1549,2.1907,2.2153,2.2719,2.3692,2.349,2.3947,2.5219,2.5375,2.5833,2.6657,2.6813,2.7101,2.749,2.715,2.7117,2.7386,2.7251,2.7214,2.7231,2.7335,2.7319,2.7244,2.7709,2.803,2.8278,2.8759,2.9698,3.0731,3.042,3.0354,3.0284,1.5967,1.6288,1.6534,1.6015,1.6458,1.6939,1.7055,1.7383,1.7815,1.8325,1.8776,1.9204,1.9632,2.0017,1.9981,1.9249,1.9138,1.88,0.0,0.0,1.8192,1.8029,1.8404,1.8643,1.8718,1.9322,1.9712,1.9878,2.0375,2.0773,2.1078,2.1037,2.1315,2.1843,2.2072,2.2446,2.2945,2.3607,2.4088,2.4425,2.4287,2.4182,2.4052,2.3389,2.2665,2.2159,2.3315,2.3601,2.3528,2.4162,2.4354,0.0,2.4279,0.0,2.4581,0.0,0.0,0.0,2.4151,0.0,0.0,0.0,0.0,0.0,0.0,0.0,0.0,0.0,0.0,0.0,0.0,0.0,2.4839,2.4501,0.0,2.408,2.3714,2.3306,2.3221,2.3723,0.0,0.0,0.0,2.1268,2.1121,2.1237,2.1341,2.1836,2.2883,2.2671,2.316,2.454,2.5015,2.5592,2.633,2.643,2.6771,2.7369,2.6821,2.6781,2.7214,2.7062,2.7007,2.7007,2.7146,2.713,2.7007,2.7163,2.7391,2.7674,2.7828,2.8731,2.9909,2.9671,2.972,2.9808,1.6703,1.6937,1.7031,1.6561,1.6714,1.7034,1.7413,1.7767,1.8308,1.9237,1.9365,1.9638,2.0302,2.0386,2.0122,1.9446,0.0,1.9174,1.825,0.0,1.9014,1.7398,1.9128,1.9534,1.826,1.9879,2.0536,2.0083,2.1327,2.1624,2.1007,2.1398,2.1959,2.2677,2.3146,2.3569,2.3987,2.4391,2.436,2.4013,2.387,2.3661,2.3499,0.0,2.3751,2.3158,2.3976,0.0,0.0,2.4893,2.4617,0.0,0.0,0.0,0.0,0.0,0.0,0.0,0.0,0.0,0.0,2.4341,0.0,0.0,0.0,0.0,2.468,0.0,0.0,0.0,0.0,2.4802,2.4523,2.3674,2.4064,0.0,0.0,2.3148,2.3235,2.2791,0.0,0.0,0.0,2.1006,2.1034,2.1093,2.1117,2.1305,2.173,2.2594,2.3374,2.4004,2.505,2.595,2.6671,2.6322,2.6418,2.7011,2.66,2.6609,2.7007,2.7007,2.7007,2.7007,2.7007,2.7007,2.7007,2.7007,2.702,2.7084,2.7674,2.8238,2.8787,2.8959,2.8922,2.8722,0.0,1.6793,1.6907,1.7003,1.7071,1.7261,1.7771,1.8269,1.8875,0.0,2.0147,0.0,0.0,2.1133,2.0987,0.0,0.0,2.0185,1.9192,1.9715,0.0,0.0,0.0,2.0455,1.9999,2.0963,2.1466,2.1494,2.1915,2.2139,2.2189,2.2555,2.293,2.3302,2.3322,2.3661,2.4193,2.4246,2.4507,2.4851,2.4711,2.4663,2.4635,0.0,2.3911,2.35,2.4583,2.4968,0.0,2.5604,2.5673,2.5474,2.5162,2.4652,2.4209,2.4247,2.4003,0.0,0.0,0.0,2.4522,2.4615,0.0,0.0,0.0,0.0,0.0,0.0,0.0,0.0,0.0,2.4802,2.4653,2.4218,2.3941,2.3616,0.0,2.206,2.1125,2.0703,2.0563,2.0604,0.0,0.0,2.0373,2.0502,2.0334,2.0674,2.164,2.2256,2.3173,2.449,2.4964,2.5548,2.6305,2.5907,2.6016,2.6596,2.6325,2.6414,2.6794,2.6722,2.6671,2.6671,2.6671,2.6671,2.6671,2.6671,2.6671,2.6683,2.689,2.7219,2.7661,2.8352,2.8773,2.8948,1.6724,1.6812,1.7008,1.7315,1.7554,1.7838,0.0,0.0,0.0,0.0,2.1138,0.0,2.1803,0.0,2.1947,0.0,2.1111,2.089,2.0175,2.0442,0.0,1.9953,2.0663,0.0,0.0,0.0,2.1799,2.1806,2.2417,2.2738,2.2807,2.3274,2.3521,2.3591,2.3563,2.3851,2.4359,2.4224,2.4564,2.5212,2.5354,2.5479,0.0,0.0,2.4967,2.4631,0.0,2.5725,2.5589,2.6329,2.6342,2.598,2.5671,2.5136,2.4632,2.4685,2.4296,2.4047,2.4908,2.4874,0.0,2.4675,2.4486,0.0,2.358,0.0,0.0,0.0,0.0,0.0,0.0,2.4554,2.4441,2.4224,2.3728,2.3268,0.0,2.1657,2.044,1.975,1.9449,1.954,2.0171,1.9925,1.9826,2.0105,1.9978,2.0318,2.136,2.1979,2.2914,2.4255,2.475,2.5331,2.6025,2.564,2.5772,2.6427,2.616,2.6235,2.6624,2.6538,2.6499,2.6499,2.6499,2.6499,2.6499,2.6499,2.6499,2.6499,2.6499,2.6883,2.7434,2.7777,2.8166,2.846,0.0,1.7073,1.7437,1.7546,1.8159,0.0,0.0,0.0,2.0419,0.0,2.2262,2.2592,2.2601,2.3098,2.2849,2.1468,2.1347,2.1288,2.1111,2.1335,0.0,0.0,2.1363,2.1093,2.0155,0.0,0.0,0.0,0.0,2.3359,2.2856,2.3532,2.376,2.3627,2.3923,2.4239,2.4498,2.44,2.4631,2.5106,2.575,2.604,2.6182,2.6825,2.679,2.6434,2.6839,2.6853,2.6741,2.6992,2.657,2.5919,2.5765,2.5257,2.4706,2.471,2.4694,2.4653,2.4599,2.467,2.4757,2.4562,0.0,0.0,0.0,0.0,2.4215,0.0,0.0,0.0,0.0,0.0,2.397,2.3674,2.3425,2.3038,2.2348,2.1858,2.1128,1.9969,1.8876,1.8477,1.9142,1.918,1.9408,1.994,2.0003,2.0269,2.0903,2.1827,2.2684,2.3428,2.4462,2.5302,2.5855,2.5483,2.5695,2.6466,2.6114,2.6122,2.6499,2.6499,2.6499,2.6499,2.6499,2.6499,2.6499,2.6516,2.6516,2.6499,2.6551,2.7207,2.8075,2.7366,2.7228,2.7358,1.6768,1.7755,1.8597,0.0,1.8957,1.9407,0.0,0.0,0.0,0.0,2.2211,2.2391,2.2652,2.2498,2.2271,2.1997,2.2061,0.0,0.0,0.0,0.0,2.0705,2.2275,2.2841,2.2093,2.2965,2.3406,2.333,0.0,2.3876,2.3413,2.4075,2.4219,2.3934,2.466,2.4821,2.4605,2.5014,2.5399,2.5756,2.593,2.6625,2.7515,0.0,2.7149,2.7536,2.675,2.6561,2.6698,2.6663,2.6579,2.6448,2.6225,2.5586,2.4914,2.4913,2.4532,2.4323,2.5282,2.5177,2.4803,2.4858,2.4642,2.4144,0.0,0.0,0.0,0.0,0.0,0.0,0.0,0.0,0.0,2.4,2.3315,2.2592,2.1874,2.1336,2.0786,2.018,1.9242,1.8748,1.9019,1.9045,1.9271,1.9812,1.9939,2.0394,2.1298,0.0,0.0,2.3984,2.4888,2.5403,2.5448,2.5355,2.554,2.6055,2.6249,2.6399,2.6499,2.6499,2.6499,2.6499,2.6499,2.6499,2.6516,2.6607,2.6589,2.6551,2.7049,2.793,2.8894,2.8704,2.8478,2.8232,1.7106,0.0,0.0,1.9879,0.0,0.0,2.0736,2.1478,0.0,2.256,2.302,0.0,2.3116,2.2933,2.2782,2.2658,2.254,0.0,2.2269,0.0,0.0,2.1668,2.2597,2.2897,2.237,2.2894,0.0,2.3707,0.0,2.3741,2.3707,2.4214,2.4409,2.4329,2.4944,2.5299,2.5466,2.5982,2.6303,2.6514,2.6799,2.7383,0.0,2.7839,2.7926,2.8093,2.7355,2.6887,2.6612,2.6592,2.6469,2.6325,2.6163,2.5788,2.5376,2.5245,2.4915,2.473,2.5328,2.5204,2.4901,2.4982,2.4792,2.4354,2.3414,2.3755,2.4237,0.0,0.0,0.0,0.0,0.0,0.0,2.3297,2.2663,2.218,2.1829,2.1456,0.0,2.0204,1.9438,1.8971,1.8994,1.9008,1.9145,1.951,1.9775,0.0,0.0,0.0,0.0,2.4184,2.5059,2.5632,2.5906,2.5746,2.5931,2.6478,2.6489,2.6499,2.6499,2.6499,2.6499,2.6516,2.6714,2.6816,2.6833,2.7142,2.7209,2.7248,2.8119,2.9023,2.9886,3.0115,2.9863,2.9356,0.0,0.0,0.0,0.0,0.0,0.0,0.0,2.2781,0.0,2.3319,0.0,2.452,2.3809,2.3809,2.3697,2.3297,0.0,2.2856,2.3362,2.2855,2.2689,2.3038,2.273,2.2399,2.2074,2.228,2.2703,0.0,0.0,2.3447,2.3839,2.4238,2.4541,2.4754,2.518,2.5786,2.6492,2.6916,2.7088,2.713,2.7826,2.8153,2.83,2.8877,2.8799,2.8376,2.8183,2.7521,2.6748,2.6766,2.646,2.6088,2.599,2.5934,2.5839,2.5592,2.5508,2.5439,2.5145,2.5033,2.5005,2.5005,2.5005,2.4842,2.43,2.4368,2.454,2.4494,2.4749,2.5077,0.0,0.0,0.0,2.2365,2.2068,0.0,0.0,0.0,2.1366,2.0335,1.9732,0.0,1.9105,1.8907,1.8906,1.9155,1.951,0.0,0.0,0.0,0.0,2.4171,2.5059,2.5914,2.679,0.0,2.6541,2.7284,2.6901,2.6658,2.6589,2.6658,2.6692,2.6726,2.7125,2.7297,2.7347,2.7842,2.8128,2.8377,2.9419,3.0283,3.1,3.1522,3.1325,3.0753,0.0,0.0,0.0,0.0,0.0,2.3919,2.3784,2.4268,2.4635,2.4513,2.4581,2.4577,2.4444,2.3955,2.362,2.3545,2.312,0.0,0.0,0.0,0.0,2.2799,2.3473,2.3734,2.3461,2.3763,2.3979,0.0,0.0,2.4049,2.3987,2.477,2.5059,2.5007,2.6264,2.6646,2.6363,2.6889,0.0,2.699,2.7793,2.8431,2.894,2.9067,2.904,2.8897,2.8424,2.8137,2.7893,2.7312,2.7152,2.7094,2.6442,2.6083,2.5866,2.5702,2.5592,2.5481,2.5425,2.5202,2.5005,2.5005,2.5005,2.4898,2.4599,2.4723,2.4915,2.4899,2.5467,2.5925,2.5833,0.0,0.0,0.0,0.0,0.0,0.0,0.0,0.0,2.1413,2.0887,2.0251,1.9559,1.8392,1.8065,1.8969,1.9194,1.9762,0.0,0.0,0.0,0.0,2.5059,0.0,0.0,0.0,2.6987,2.7779,2.7749,2.751,2.7078,2.7543,2.7743,2.7743,2.7825,2.7861,2.7878,2.814,2.8796,2.972,3.0294,3.1166,3.2178,3.2776,3.2912,3.2608,0.0,0.0,0.0,0.0,0.0,0.0,0.0,2.5927,2.5901,2.4841,2.5148,2.5296,2.4809,2.4272,2.412,2.4498,2.414,2.3943,2.4083,2.4346,2.4199,2.3553,2.4335,2.4438,2.3707,2.4009,2.4488,2.5139,0.0,0.0,2.5407,2.5659,2.5896,2.6173,2.7026,2.7404,2.7392,0.0,0.0,2.7989,2.8433,2.8798,2.9098,2.9098,2.9098,2.9029,2.8415,2.8329,2.8407,2.7784,2.7652,2.7712,2.7383,2.6986,2.6579,2.6343,2.6302,2.6218,2.5744,2.6021,2.6367,2.602,2.5923,2.5896,2.5772,2.5605,2.5508,2.5661,2.5976,2.6083,2.5536,2.5353,0.0,0.0,0.0,0.0,0.0,0.0,2.1718,0.0,2.0689,2.0124,2.0258,1.8967,1.8616,1.9796,2.0168,2.0875,2.2091,0.0,2.3717,0.0,0.0,0.0,0.0,0.0,0.0,2.8363,2.8111,2.7861,2.7613,2.7878,2.8006,2.8039,2.8551,2.8822,2.8936,2.9657,3.0463,3.1277,3.1485,3.2123,3.2901,3.3196,3.3308,3.3182,0.0,2.4731,0.0,0.0,2.6032,2.6621,2.6849,2.7461,2.73,2.5609,2.6033,2.6205,2.5476,2.4841,2.4792,2.5534,2.5168,2.507,2.5505,2.5526,2.5232,2.4606,2.4971,2.4809,2.3982,2.4118,2.4707,0.0,0.0,0.0,0.0,2.6398,2.6807,0.0,0.0,0.0,0.0,0.0,2.8305,2.8665,2.8954,2.9064,2.9098,2.9098,2.9098,2.9029,2.8503,2.8481,2.8649,2.8203,2.806,2.8053,2.8168,2.7868,2.7412,2.7018,2.7088,2.7116,2.6272,2.6905,2.7666,2.7144,2.7003,2.699,2.6933,2.6483,2.6116,2.6192,2.6163,2.5941,2.5341,2.5412,0.0,0.0,0.0,0.0,0.0,0.0,2.2034,0.0,2.063,2.022,2.0841,0.0,0.0,0.0,2.1342,2.1889,2.3004,2.3355,2.3971,0.0,0.0,2.6722,2.8005,0.0,2.8484,2.9093,2.883,2.8622,2.8484,2.8735,2.8768,2.8693,2.9627,3.0098,3.0305,3.1145,3.185,3.2412,3.2412,3.276,3.3308,3.3308,3.3326,3.3361,0.0,0.0,0.0,0.0,0.0,0.0,2.7592,2.8595,2.8917,2.8051,2.7462,2.7079,2.6983,2.5867,2.5421,2.6152,2.5633,2.5455,2.5914,2.5948,2.5795,2.549,2.507,2.4947,2.5139,2.4746,2.4759,0.0,0.0,2.5383,0.0,0.0,0.0,0.0,0.0,0.0,0.0,2.8369,2.8369,2.7881,2.8618,2.899,2.9098,2.9098,2.9098,2.9087,2.9029,2.8866,2.8692,2.864,2.843,2.8183,2.8211,2.8154,2.7997,2.7426,2.757,2.7797,2.7299,2.7471,2.7779,2.7708,2.7708,2.7625,2.7313,2.6961,2.6568,2.6047,2.5743,2.5661,2.5932,2.6396,2.6231,0.0,0.0,0.0,0.0,0.0,2.2269,2.1983,0.0,2.1607,2.0957,2.1208,0.0,0.0,2.1993,2.1481,2.1684,2.2839,2.3758,2.4281,0.0,2.6742,2.808,2.8515,2.9174,3.0074,3.0689,3.0645,3.0027,3.112,3.1288,3.0762,3.1452,3.1836,3.1935,3.1625,3.185,3.2412,3.2412,3.276,3.3308,3.3308,3.3431,3.357,0.0,0.0,0.0,0.0,0.0,0.0,0.0,2.9365,2.9591,2.9623,2.9004,2.8435,2.803,2.7359,2.7158,2.7695,2.7237,2.7114,2.7597,2.755,2.7307,2.6873,2.6849,2.67,2.6386,2.6511,2.6587,0.0,0.0,0.0,0.0,0.0,0.0,0.0,0.0,2.8097,2.8178,2.8113,2.8221,2.8447,2.8759,2.9025,2.9213,2.9133,2.9098,2.9017,2.8367,2.8071,2.7955,2.7751,2.811,2.8621,2.8621,2.8622,2.8508,2.7897,2.7911,2.8026,2.7551,2.8068,2.8698,2.8412,2.8613,2.8742,2.8252,2.8037,2.7867,2.7623,2.7113,2.6664,2.6539,2.6324,2.5876,0.0,0.0,0.0,0.0,0.0,0.0,2.1991,0.0,2.1368,2.1647,2.115,0.0,0.0,0.0,2.212,2.2665,2.3634,0.0,2.4791,0.0,2.754,2.8925,2.9644,3.0441,3.1288,3.1977,3.212,3.1778,3.2257,3.2268,3.1931,3.2474,3.2681,3.2624,3.2596,3.2718,3.2943,3.2943,3.3083,3.3308,3.3448,3.3536,3.3623,2.6863,0.0,2.8702,0.0,2.9038,2.9707,3.0212,3.0213,3.0303,3.0736,3.0379,2.9787,2.8992,2.8463,2.8362,2.8859,2.8458,2.8331,2.8736,2.8713,2.8447,2.7964,2.8007,0.0,2.7482,2.7621,2.7678,2.769,2.8249,0.0,0.0,0.0,0.0,0.0,2.8258,2.8236,2.9033,2.8186,2.8253,2.8924,2.9089,2.9225,2.9309,2.9393,2.9426,2.9273,2.8186,2.7863,2.7889,2.7506,2.7983,2.8778,2.8918,2.8961,2.8891,2.8509,2.8655,2.8785,2.8252,2.8958,2.9711,2.9348,2.9566,2.974,2.9102,2.8971,2.8913,2.8738,2.7894,2.7143,2.7032,2.6315,2.5619,2.5188,0.0,0.0,0.0,2.3133,0.0,2.1963,2.1401,2.1336,2.2064,2.1203,0.0,0.0,0.0,0.0,0.0,0.0,0.0,0.0,0.0,0.0,0.0,2.9929,3.0905,3.2092,3.2605,3.2946,3.313,3.313,3.3152,3.3246,3.342,3.3428,3.3337,3.338,3.3294,3.3108,3.2926,3.2968,3.3125,3.3083,3.3227,3.3469,2.7264,2.7636,2.8306,2.9221,2.9394,2.9815,3.0996,3.1181,3.1259,3.1469,3.1471,3.1076,3.001,2.8922,2.8585,2.933,2.89,2.8679,2.888,2.902,2.8912,0.0,0.0,2.792,2.8377,2.762,2.742,2.7897,0.0,0.0,2.7406,0.0,2.8346,3.0314,2.8576,2.8614,2.9905,2.884,2.8581,2.8944,2.9553,2.958,2.9357,2.9955,3.0188,3.0034,2.8906,2.8704,2.8907,2.8439,2.8334,2.8484,2.8955,2.9096,2.914,2.9332,2.9956,3.0437,2.9769,3.0163,3.0747,3.0613,3.0583,3.0408,2.974,2.9581,2.9421,2.8825,2.7485,2.6622,2.7352,2.6618,2.5784,2.5453,0.0,0.0,0.0,2.3281,0.0,2.2,2.1897,2.1921,2.1989,2.1695,0.0,0.0,0.0,0.0,0.0,0.0,0.0,2.5377,2.6762,0.0,2.8506,2.8919,3.0195,3.2303,3.2449,3.2978,3.3894,3.3894,3.4288,3.4941,3.4424,3.4265,3.4341,3.3808,3.3252,3.2652,3.2041,3.2179,3.2652,3.2044,3.2319,3.3058,2.7771,2.8481,2.9269,2.9671,3.0343,3.0983,3.1403,3.1433,3.1431,3.1498,3.1498,3.1386,3.1094,3.0598,3.0393,0.0,3.0197,2.9863,0.0,2.9655,2.9528,2.9393,2.9397,2.9518,2.976,2.9557,2.9187,2.8657,0.0,0.0,0.0,2.9597,3.033,3.1732,3.0988,3.0523,3.0244,2.9712,2.93,2.9045,2.9159,2.9556,3.0106,2.9926,3.0079,3.0279,2.9267,2.8973,2.9005,2.8582,2.845,2.8584,2.9247,2.9317,2.9168,2.9184,2.9013,2.8884,2.9172,2.9475,2.9722,2.9782,3.0189,3.0423,2.9755,2.9958,3.0234,3.0031,2.8909,2.8116,2.8569,2.7681,2.6688,2.6172,2.5589,0.0,0.0,0.0,2.3975,2.382,2.3848,2.4031,2.4419,2.2693,0.0,0.0,0.0,0.0,0.0,0.0,0.0,0.0,2.7032,0.0,2.9372,3.0652,3.1836,3.2927,3.4247,3.4976,3.5133,3.5133,3.5012,3.4784,3.4468,3.4085,3.3651,3.3605,3.3479,3.329,3.3093,3.3136,3.3273,3.2782,3.2785,3.3041,2.8549,2.9515,3.0396,3.0579,3.1397,3.1949,3.1706,3.1651,3.1604,3.1604,3.1604,3.1623,3.1671,3.1538,0.0,3.0847,3.0634,3.0346,2.9889,2.9998,3.006,3.006,3.0215,3.0369,3.0522,3.0485,0.0,2.9632,3.0044,3.0716,3.1552,3.1052,3.1537,3.2814,3.1964,3.1483,3.123,3.0569,3.0073,2.9748,2.9911,3.02,3.0507,3.0557,3.0597,3.0532,2.9635,2.9424,2.9479,2.9072,2.8915,2.9045,2.974,2.9824,2.9645,2.9661,2.9374,2.9115,2.9457,2.9646,2.9807,3.0143,3.0549,3.0783,3.0393,3.0451,3.0598,3.0598,2.9688,2.8947,2.9169,2.7959,2.6876,2.6593,2.5635,2.4916,2.4943,0.0,2.442,0.0,0.0,0.0,0.0,2.3262,2.2953,0.0,0.0,0.0,0.0,0.0,0.0,2.7031,2.7511,0.0,3.0265,3.1135,3.2165,3.3407,3.5031,3.5598,3.5261,3.5517,3.526,3.4627,3.4769,3.4422,3.3796,3.3929,3.3862,3.3659,3.3431,3.3353,3.3311,3.2828,3.2669,3.2735,2.9599,3.0591,3.1447,0.0,3.2378,0.0,3.1922,3.1818,3.1818,3.1818,3.1809,3.18,3.18,3.18,3.1325,3.0155,0.0,0.0,0.0,3.0063,3.0477,3.0499,3.0499,3.0578,3.0712,3.0526,3.0522,3.0661,3.0899,3.1586,3.2668,3.1712,3.2137,3.362,3.1913,3.174,3.2643,3.1451,3.0914,3.0917,3.1558,3.1342,3.076,3.1656,3.1597,3.0907,3.008,3.0028,3.027,2.9828,2.9668,2.9784,3.0452,3.0579,3.0503,3.0567,3.0672,3.0687,3.0372,3.0417,3.0727,3.1367,3.1404,3.1311,3.1422,3.1047,3.0671,3.0612,2.9939,2.9343,2.93,2.7849,2.671,2.6906,2.5738,2.4937,2.5249,0.0,2.4452,0.0,0.0,0.0,0.0,2.3621,2.4016,0.0,0.0,0.0,0.0,0.0,2.6363,2.7771,2.823,2.9285,3.1096,3.0734,3.1644,3.3841,3.4964,3.5175,3.4578,3.522,3.516,3.4592,3.5188,3.5133,3.4595,3.4595,3.431,3.3794,3.3238,3.3058,3.3027,3.2392,3.2189,3.2282,0.0,0.0,3.0938,3.1678,3.1985,3.211,3.2045,3.1939,3.1884,3.1884,3.1838,3.18,3.18,3.18,3.1453,3.0605,3.0535,3.0568,3.0672,3.0175,3.0122,3.0628,3.0651,3.0712,3.0851,3.0767,3.0576,3.0316,3.0827,3.1547,3.2487,3.2735,3.3484,3.457,3.3922,3.3408,3.2983,3.2573,3.2017,3.144,3.1807,3.2006,3.2095,3.2082,3.2059,3.1928,3.1019,3.0747,3.0793,3.0484,3.0365,3.0466,3.109,3.1277,3.1129,3.0532,3.0312,3.025,3.0173,3.0173,3.0323,3.0725,3.098,3.1115,3.0995,3.1243,3.133,3.0729,3.0707,3.0688,3.0332,2.9567,2.8832,2.8328,2.7537,2.681,2.6329,2.6033,0.0,0.0,2.5992,2.6343,2.6825,2.5847,2.5749,0.0,0.0,0.0,0.0,2.7736,2.8336,2.9051,2.9463,3.0151,3.1163,3.2321,3.3631,3.5087,3.5365,3.5429,3.5265,3.5429,3.5415,3.5249,3.4945,3.4727,3.4595,3.4595,3.4528,3.4396,3.4251,3.4213,3.4086,3.3015,3.2704,3.2755,3.2069,3.2108,3.2099,3.2385,3.2449,3.2355,3.2045,3.1993,3.1966,3.1903,3.1929,3.1946,3.1946,3.1946,3.1773,3.1357,3.0878,3.0681,3.0891,3.0344,3.0328,3.1048,3.0915,3.0895,3.1032,3.0908,3.1101,3.1628,3.1792,3.2512,3.3728,3.3917,3.4319,3.4899,3.4679,3.4247,3.3644,3.3431,3.306,3.2583,3.2793,3.2804,3.2703,3.279,3.2556,3.2118,3.1766,3.1494,3.1322,3.1323,3.1291,3.1318,3.1819,3.2179,3.2264,3.1517,3.1035,3.0656,3.0291,3.0157,3.0315,3.1154,3.1622,3.1909,3.2203,3.2071,3.185,3.1715,3.1901,3.1914,3.1347,3.0253,2.9185,2.8413,2.7216,2.6433,2.6583,2.6505,0.0,2.6898,2.7047,2.7232,2.7534,2.726,2.733,2.8043,2.8171,0.0,2.8365,2.9422,2.9956,2.9774,3.0311,3.1057,3.2002,3.3412,3.4584,3.5504,3.5504,3.534,3.504,3.5355,3.5325,3.5039,3.5032,3.5004,3.5004,3.5004,3.5004,3.4975,3.4664,3.4434,3.4165,3.3196,3.2737,3.2535,3.3235,3.3439,3.3407,3.3088,3.3001,3.2747,3.2079,3.2046,3.2073,3.1966,3.2046,3.2099,3.2099,3.2099,3.2099,3.2099,3.1271,3.0775,3.0861,3.0492,3.0621,3.1464,3.1092,3.0984,3.12,3.1113,3.1751,3.3129,3.3071,3.3729,3.5043,3.4814,3.4756,3.4839,3.4679,3.4509,3.4312,3.4063,3.3873,3.3758,3.386,3.3507,3.2991,3.3458,3.298,3.2104,3.2313,3.2153,3.1879,3.2124,3.2136,3.2144,3.2534,3.3051,3.3402,3.2817,3.225,3.1624,3.0848,3.0583,3.084,3.2079,3.2611,3.301,3.3728,3.308,3.246,3.2918,3.3096,3.2963,3.2282,3.0579,2.9076,2.8374,2.6607,2.5626,2.6474,0.0,2.6924,2.7466,2.7327,2.7307,2.7548,2.815,2.8633,2.8908,3.0174,3.0729,3.0254,3.1004,3.117,3.0549,3.1222,3.2182,3.336,3.4274,3.4988,3.5504,3.5504,3.519,3.4667,3.5235,3.519,3.4682,3.525,3.5504,3.5504,3.5504,3.5504,3.5462,3.4789,3.4346,3.3973,3.3202,3.2622,3.2256,3.1905,3.2073,3.2223,3.2336,3.2362,3.2345,3.2328,3.2249,3.2179,3.2161,3.2117,3.2099,3.2099,3.2099,3.2099,3.2099,3.135,3.1107,3.1677,3.0403,3.0201,3.1439,3.0742,3.0603,3.12,3.1672,3.2031,3.2277,3.3535,3.4052,3.3879,3.4447,3.4643,3.4546,3.43,3.43,3.446,3.43,3.4163,3.4025,3.3937,3.3758,3.3536,3.3361,3.3126,3.2866,3.2521,3.2457,3.251,3.2273,3.2292,3.2533,3.3155,3.3416,3.3474,3.3387,3.3269,3.3037,3.2349,3.235,3.2598,3.2821,3.3145,3.3391,3.3401,3.3637,3.3695,3.3111,3.3544,3.3769,3.2992,3.1654,3.0606,3.0365,2.8884,2.7496,2.6716,0.0,2.7144,2.6814,2.7559,2.8182,2.8403,2.883,2.9217,2.9548,2.9692,3.0197,3.1216,3.1195,3.1581,3.2509,3.3099,3.3965,3.5098,3.5277,3.5408,3.5504,3.5504,3.5444,3.5355,3.5459,3.5444,3.5355,3.5459,3.5504,3.5504,3.5504,3.557,3.5595,3.4931,3.4723,3.4681,3.3441,3.2976,3.2946,3.3286,3.307,3.2879,3.3081,3.272,3.2447,3.2498,3.2489,3.2395,3.2223,3.224,3.2249,3.2249,3.2616,3.2722,3.2388,3.2353,3.2494,3.2809,3.1141,3.0745,3.2089,3.1621,3.1434,3.1638,3.1295,3.1663,3.2749,3.3466,3.398,3.4303,3.4809,3.4625,3.3923,3.4341,3.4344,3.4036,3.4296,3.4374,3.4288,3.4013,3.3787,3.3565,3.3387,3.3403,3.3461,3.3045,3.3201,3.3573,3.3231,3.3177,3.3333,3.3825,3.3978,3.3978,3.3978,3.3499,3.2858,3.236,3.2713,3.3217,3.3264,3.3489,3.3847,3.4375,3.4422,3.436,3.4356,3.4641,3.4688,3.394,3.2567,3.1398,3.0991,2.9522,0.0,0.0,2.8382,2.8555,2.8636,2.9109,2.9466,2.9547,3.0397,3.0721,3.0224,3.1037,3.1522,3.1459,3.212,3.2597,3.2828,3.3744,3.4641,3.5488,3.5504,3.5504,3.5504,3.5749,3.5878,3.5893,3.6148,3.6258,3.6243,3.5989,3.6021,3.6227,3.5989,3.6069,3.6275,3.5615,3.5139,3.477,3.414,3.3586,3.3171,3.434,3.3924,3.3516,3.3685,3.3153,3.2729,3.2729,3.2711,3.2603,3.2353,3.2362,3.245,3.2617,3.2976,3.3073,3.2781,3.3274,3.3591,3.3503,3.2335,3.2028,3.2929,3.2679,3.243,3.227,3.1592,3.1985,3.3523,3.374,3.4102,3.4599,3.4838,3.4383,3.3397,3.418,3.4261,3.3837,3.43,3.446,3.4378,3.4024,3.3708,3.3456,3.3556,3.3728,3.3888,3.3761,3.4056,3.4482,3.4212,3.408,3.4076,3.4472,3.4501,3.4448,3.4685,3.3983,3.3061,3.272,3.3151,3.3742,3.3855,3.4053,3.4386,3.5095,3.4877,3.4637,3.516,3.5265,3.5113,3.4613,3.327,3.2013,3.135,0.0,0.0,0.0,2.9621,2.9893,3.0333,3.0527,3.0622,3.0622,3.154,3.187,3.1166,3.2411,3.2922,3.2347,3.34,3.3846,3.3461,3.4187,3.4924,3.5667,3.5667,3.5667,3.5667,3.6148,3.6368,3.6368,3.6738,3.6845,3.6723,3.6477,3.6508,3.6723,3.6461,3.66,3.6904,3.6231,3.5609,3.507,3.4796,3.4279,3.3708,3.3138,3.3084,3.3064,3.3152,3.3106,3.3063,3.3063,3.2864,3.2694,3.2669,3.2506,3.2634,3.3272,3.2712,3.2519,3.31,3.3476,3.3565,3.3242,3.3964,3.4235,3.3834,3.3378,3.3125,3.3104,3.3698,3.4079,3.4229,3.5037,3.4851,3.3693,3.3837,3.3665,3.3221,3.3429,3.3849,3.4443,3.448,3.4362,3.4111,3.3889,3.3619,3.3369,3.3927,3.4037,3.3999,3.4718,3.4928,3.4865,3.4835,3.4609,3.4442,3.4988,3.4804,3.4585,3.5528,3.5419,3.4921,3.4587,3.4547,3.4675,3.5006,3.509,3.5007,3.465,3.4548,3.4503,3.4563,3.4563,3.4584,3.4583,3.363,3.2649,3.2114,0.0,0.0,2.9567,2.9971,3.0351,3.0388,3.0893,3.1219,3.1219,3.1312,3.1726,3.2577,3.2766,3.3473,3.4922,3.4997,3.5202,3.565,3.491,3.5037,3.6133,3.6148,3.6148,3.6148,3.6615,3.686,3.686,3.6875,3.6662,3.6274,3.6677,3.6615,3.629,3.6677,3.6982,3.7115,3.6439,3.6228,3.616,3.5085,3.4935,3.5222,3.3414,3.371,3.4069,3.4092,3.3686,3.3516,3.4019,3.4006,3.3638,3.2821,3.3429,3.3812,3.3447,3.3915,3.401,3.3438,3.4371,3.4732,3.4113,3.4925,3.5184,3.4617,3.4006,3.3795,3.4001,3.344,3.3528,3.4369,3.4449,3.4216,3.3748,3.4241,3.382,3.2691,3.382,3.4427,3.4651,3.5025,3.533,3.5552,3.5102,3.4849,3.4757,3.4972,3.5357,3.5778,3.592,3.6041,3.6075,3.5612,3.5258,3.507,3.5268,3.5333,3.5398,3.5785,3.5769,3.5608,3.5478,3.4722,3.3963,3.3957,3.3822,3.3715,3.3761,3.4046,3.421,3.3823,3.4468,3.4856,3.3957,3.3878,3.3633,3.269,0.0,3.1818,3.1249,3.1372,3.1522,3.1522,3.1725,3.2066,3.2608,3.3031,3.3535,3.4127,3.4584,3.4926,3.5168,3.5446,3.6369,3.8082,3.6735,3.6199,3.6631,3.6631,3.6631,3.6631,3.7148,3.7608,3.8034,3.8364,3.8648,3.8865,3.8758,3.8521,3.8231,3.8079,3.7991,3.7915,3.7657,3.7217,3.6708,3.6695,3.6148,3.5459,3.409,3.4645,3.5108,3.4834,3.4346,3.4072,3.4378,3.4575,3.4368,3.3422,3.4331,3.4827,3.4228,3.4828,3.4958,3.4162,3.5186,3.5583,3.4928,3.5647,3.5901,3.5483,3.4849,3.4622,3.4833,3.3879,3.3811,3.4757,3.443,3.4114,3.3817,3.4551,3.4091,3.2711,3.423,3.4943,3.507,3.5494,3.602,3.6522,3.6181,3.5911,3.5765,3.6157,3.656,3.6977,3.7089,3.712,3.7038,3.6491,3.5999,3.5672,3.5784,3.6086,3.6337,3.5992,3.6023,3.6103,3.5889,3.4731,3.3547,3.3517,3.3567,3.3524,3.3152,3.3725,3.4164,3.3472,3.4223,3.47,3.373,3.4121,3.4265,3.3293,3.3012,3.2888,3.2725,3.2387,3.2275,3.2668,3.2646,3.2903,3.3679,3.4302,3.4888,3.5457,3.6209,3.6693,3.6781,3.7143,3.8092,3.9768,3.8457,3.7733,3.7733,3.7333,3.7257,3.7477,3.8003,3.8622,3.9278,3.9652,3.9969,4.0256,4.0105,3.9863,3.9578,3.9352,3.9055,3.8762,3.8762,3.8181,3.7436,3.7966,3.7529,3.671,3.5004,3.569,3.6028,3.5169,3.5016,3.4747,3.3954,3.4341,3.4701,3.4614,3.5089,3.5525,3.5788,3.522,3.4987,3.5374,3.5762,3.5867,3.5538,3.6131,3.6502,3.6502,3.5915,3.56,3.56,3.5532,3.5492,3.5492,3.536,3.4791,3.3834,3.4563,3.4372,3.346,3.4461,3.5241,3.5811,3.5811,3.6164,3.6731,3.6928,3.6616,3.6158,3.7349,3.7518,3.724,3.8175,3.8123,3.7589,3.7442,3.6875,3.6274,3.66,3.7075,3.73,3.6212,3.629,3.6553,3.5887,3.4743,3.3788,3.4108,3.4787,3.4865,3.293,3.363,3.4448,3.3565,3.3675,3.3955,3.4072,3.437,3.443,3.3888,3.3237,3.3051,3.3699,3.2759,3.2464,3.3659,3.3627,3.3716,3.4279,3.4754,3.5457,3.6554,3.7437,3.8681,4.0419,4.0511,4.0511,4.0496,3.9863,3.9507,3.9507,3.8316,3.805,3.8717,3.9256,3.9863,4.0496,4.0496,4.0257,3.9861,4.0302,4.0241,3.9845,4.0317,4.0106,3.9491,3.9491,3.9054,3.8416,3.8626,3.9032,3.9357,3.5212,3.5835,3.6473,3.6768,3.632,3.6028,3.6347,3.7022,3.7004,3.5613,3.6962,3.7603,3.6363,3.6292,3.6183,3.5802,3.6127,3.6309,3.6207,3.6295,3.6402,3.6502,3.6105,3.5833,3.5739,3.5577,3.552,3.5571,3.5286,3.5012,3.4713,3.4847,3.4964,3.5103,3.5505,3.6348,3.7472,3.7382,3.7729,3.8304,3.8286,3.8139,3.8019,3.8471,3.8696,3.8834,3.9206,3.8865,3.8222,3.8179,3.7605,3.6937,3.7195,3.736,3.745,3.7119,3.7134,3.7223,3.7019,3.629,3.5307,3.414,3.3311,3.271,3.2374,3.3002,3.3436,3.2719,3.3956,3.4708,3.319,3.4332,3.5003,3.3486,3.3469,3.3568,3.3338,3.3001,3.3293,3.4687,3.4342,3.4707,3.6507,3.6903,3.7421,3.8336,3.9231,4.0179,4.1209,4.0787,4.0738,4.1272,4.0576,4.0204,4.0204,3.9376,3.9061,3.927,3.9903,4.0576,4.1256,4.1256,4.144,4.1769,4.1909,4.1634,4.1074,4.1211,4.056,3.9491,3.9491,3.9054,3.841,3.8461,3.8248,3.7993,3.6143,3.682,3.7496,3.7956,3.7331,3.6824,3.6997,3.7973,3.8263,3.7033,3.8644,3.9297,3.7675,3.7646,3.7385,3.6487,3.6583,3.6667,3.6575,3.6502,3.644,3.6377,3.6137,3.5954,3.5883,3.5751,3.5825,3.6067,3.5948,3.5995,3.6221,3.637,3.6454,3.6485,3.6808,3.7418,3.8186,3.812,3.8477,3.9121,3.904,3.9013,3.9013,3.9148,3.9325,3.9511,3.972,3.9315,3.8701,3.8701,3.8128,3.7404,3.7479,3.7495,3.7495,3.7495,3.7495,3.7495,3.7495,3.6959,3.613,3.5053,3.4192,3.3547,3.3189,3.385,3.4344,3.3676,3.5008,3.591,3.4604,3.5908,3.6783,3.5597,3.5536,3.5477,3.5094,3.4847,3.5134,3.6236,3.6143,3.6625,3.8294,3.8684,3.921,4.0074,4.0645,4.1256,4.1954,4.1581,4.1533,4.197,4.1321,4.0963,4.1008,4.0617,4.0376,4.0348,4.0738,4.1321,4.2002,4.2002,4.2067,4.2213,4.2473,4.2052,4.1192,4.1482,4.0769,3.9491,3.9491,3.9082,3.8508,3.8801,3.8664,3.8381,3.7569,3.8309,3.8777,3.8712,3.8098,3.7364,3.6641,3.7826,3.8731,3.8536,3.9908,4.045,3.9271,3.8951,3.841,3.7383,3.7127,3.6938,3.6745,3.6695,3.6541,3.6247,3.6101,3.6019,3.603,3.5986,3.6241,3.683,3.7007,3.741,3.8009,3.8504,3.8365,3.7693,3.8178,3.8371,3.8324,3.8298,3.8692,3.9299,3.9299,3.9299,3.9312,3.9448,3.9488,3.9528,3.9759,3.9481,3.8983,3.8914,3.8375,3.7687,3.7539,3.7495,3.7495,3.7495,3.7495,3.7511,3.7574,3.7101,3.6598,3.6661,3.6776,3.6465,3.4999,3.5658,3.643,3.5876,3.6626,3.7377,3.7433,3.8354,3.9093,3.9062,3.8498,3.8074,3.8043,3.7592,3.7529,3.8138,3.856,3.9046,3.9707,4.0141,4.0751,4.1614,4.1678,4.1938,4.257,4.2618,4.2634,4.2634,4.2049,4.1785,4.1906,4.1906,4.1813,4.1611,4.1691,4.2049,4.2634,4.2649,4.2309,4.1756,4.2309,4.1823,4.0671,4.1286,4.0751,3.9534,3.9534,3.92,3.8795,3.9463,3.9791,3.9902,3.8349,3.8719,3.8795,3.8777,3.8588,3.8377,3.8212,3.9001,3.9381,3.8591,3.9406,3.9703,3.8753,3.844,3.8216,3.8061,3.7514,3.7119,3.7011,3.6728,3.6513,3.644,3.6261,3.6187,3.6227,3.5871,3.6124,3.703,3.7086,3.7637,3.8684,3.8391,3.854,3.9037,3.8594,3.8705,3.9215,3.9106,3.9136,3.9299,3.9299,3.9299,3.9299,3.9325,3.9422,3.9501,3.9445,3.9242,3.8914,3.8331,3.7932,3.7687,3.7539,3.7495,3.7495,3.7495,3.7495,3.7606,3.8144,3.816,3.816,3.8713,3.8839,3.838,3.6435,3.6224,3.6575,3.7001,3.7894,3.8442,3.7883,3.8548,3.9037,3.8624,3.821,3.8025,3.8272,3.8081,3.8421,3.9795,3.9586,3.9809,4.1042,4.1124,4.1445,4.2311,4.2298,4.2346,4.2586,4.2743,4.2837,4.2837,4.2797,4.2792,4.2823,4.2823,4.2469,4.1764,4.2438,4.2797,4.2837,4.2944,4.2908,4.2744,4.2321,4.1961,4.1649,4.1275,4.0606,3.9817,3.9817,3.9733,3.9647,3.9811,3.9874,3.9902,3.9707,3.9654,3.9487,3.9842,3.9226,3.8699,3.8699,3.9386,3.9727,3.924,3.9902,4.0103,3.925,3.8933,3.8527,3.7925,3.7532,3.7206,3.6962,3.6738,3.6572,3.6502,3.6329,3.6212,3.6152,3.6389,3.6936,3.7824,3.8413,3.9134,3.9942,3.9501,3.9498,3.9858,3.9215,3.9109,3.9392,3.9325,3.9299,3.9299,3.9299,3.9299,3.9299,3.9299,3.9339,3.9405,3.9471,3.9319,3.898,3.8177,3.7861,3.7759,3.7569,3.7495,3.7495,3.7495,3.7495,3.7653,3.8318,3.8492,3.865,3.9329,3.9503,3.9218,3.8129,3.7876,3.8032,3.8577,3.9319,3.9793,3.9561,4.0225,4.0732,4.045,4.0341,4.0228,4.005,4.0144,4.0441,4.095,4.0938,4.1167,4.1909,4.1943,4.2151,4.2711,4.2681,4.2665,4.2728,4.2743,4.276,4.276,4.282,4.2898,4.3007,4.3067,4.2871,4.242,4.2887,4.3067,4.3007,4.3067,4.2933,4.262,4.2556,4.2146,4.1524,4.1509,4.0885,3.9919,4.0279,4.0027,3.9508,3.987,4.0057,4.0064,4.0764,4.0557,4.0284,4.0634,3.958,3.8699,3.8699,3.9276,3.9688,3.9688,4.0286,4.0443,3.978,3.9496,3.8869,3.7658,3.7496,3.731,3.693,3.6796,3.6664,3.6534,3.6423,3.6297,3.6116,3.7215,3.805,3.8599,3.9829,4.0669,4.1117,4.0753,4.0488,4.028,3.9733,3.9448,3.9325,3.9299,3.9299,3.9299,3.9299,3.9299,3.9299,3.9299,3.9299,3.9325,3.9494,3.9302,3.8868,3.8132,3.7876,3.7788,3.7568,3.7604,3.7714,3.7684,3.7794,3.8031,3.8681,3.876,3.8824,3.9518,3.9598,3.9534,3.9661,3.9692,3.9802,4.0194,4.0704,4.1135,4.1355,4.2042,4.2555,4.2524,4.2602,4.2502,4.2009,4.2277,4.2329,4.1824,4.2137,4.2413,4.2429,4.2539,4.2665,4.2837,4.2884,4.2915,4.293,4.2774,4.2696,4.2696,4.2728,4.2821,4.2977,4.3129,4.3189,4.3189,4.3189,4.3174,4.3159,4.3174,4.2877,4.2383,4.2812,4.2336,4.1284,4.1776,4.1251,4.0217,4.0693,4.0287,3.9465,3.996,4.0255,4.0266,4.0205,4.0559,4.0543,3.925,3.8828,3.8699,3.8699,3.8799,3.8854,3.8854,3.8964,3.8975,3.8865,3.8841,3.8645,3.8224,3.7915,3.7623,3.7345,3.698,3.6748,3.6681,3.6661,3.6623,3.662,3.8101,3.8792,3.8605,3.964,4.0512,4.1175,4.0783,4.0488,4.028,3.9733,3.9488,3.9475,3.9339,3.9299,3.9299,3.9299,3.9299,3.9299,3.9299,3.9299,3.9272,3.901,3.8556,3.8062,3.7948,3.7744,3.7554,3.751,3.8011,3.8593,3.8426,3.89,3.961,4.0182,3.985,3.9534,4.0277,3.9977,3.9677,4.0309,4.0451,4.0625,4.1243,4.1805,4.2109,4.1869,4.2158,4.2365,4.219,4.1948,4.1948,4.241,4.2285,4.2238,4.2442,4.2428,4.2445,4.2555,4.2587,4.2618,4.2634,4.2806,4.2945,4.3067,4.3052,4.3036,4.3036,4.3189,4.3296,4.3327,4.3479,4.3522,4.3522,4.3522,4.3462,4.3357,4.3477,4.3472,4.3372,4.2811,4.2464,4.2264,4.1718,4.1371,4.1156,4.0671,4.0721,4.1019,4.0536,4.0382,4.0279,4.0577,4.0479,4.0212,3.9496,3.9001,3.8699,3.8699,3.8699,3.8699,3.8699,3.8699,3.8699,3.8699,3.8699,3.858,3.8323,3.8154,3.7889,3.7421,3.7158,3.6942,3.6758,3.6654,3.6752,3.7133,3.839,3.9145,3.9316,4.0406,4.0946,4.0972,4.0647,4.0299,3.9948,3.9563,3.9395,3.9379,3.9325,3.9299,3.9299,3.9299,3.9299,3.9299,3.9299,3.9134,3.8876,3.8525,3.8441,3.8444,3.8033,3.7817,3.7765,3.7998,3.8316,3.8693,3.8965,3.9121,3.9339,3.9976,3.9611,3.9326,4.0436,4.042,4.0293,4.1004,4.1146,4.1339,4.1917,4.1997,4.2013,4.2158,4.2349,4.2476,4.2397,4.2507,4.2711,4.3007,4.282,4.2618,4.2508,4.2429,4.2413,4.2476,4.2555,4.2711,4.3022,4.3129,4.3205,4.325,4.3159,4.3113,4.3113,4.3189,4.3235,4.3235,4.3402,4.3494,4.3494,4.3552,4.3568,4.3507,4.3583,4.3598,4.3582,4.3265,4.3102,4.31,4.2754,4.2139,4.1444,4.1974,4.2123,4.1924,4.1226,4.1226,4.1409]}]]